GFSSE_sfc_wetblb_048.txt.gz
Wetbulb
71.76 73.37 76.79 76.00 76.81 75.62 75.69 75.81 75.99 75.72 75.16 74.49 74.24 75.29 75.61 74.89 75.05 75.66 75.52 75.72 75.72 75.90 75.47 75.77 75.64 76.09 75.63 75.70 75.99 75.77 75.98 76.00 75.22 75.15 75.02 75.42 75.34 74.53 73.97 73.78 72.80 70.77 71.71
72.22 73.58 76.83 76.09 77.13 75.95 75.68 75.78 75.68 75.13 74.22 73.64 73.45 73.91 74.63 74.53 74.76 75.13 75.12 75.17 75.59 75.51 74.93 75.35 75.19 75.05 75.79 75.98 75.85 75.77 75.83 75.17 74.65 74.79 74.84 74.48 74.80 74.59 73.94 73.27 73.17 71.15 71.60
71.67 73.72 74.85 76.46 76.11 74.95 75.70 75.45 74.39 74.81 73.93 73.26 72.56 73.13 72.76 73.74 73.39 74.19 74.78 75.07 74.94 75.45 75.15 75.13 75.52 75.40 75.19 75.37 75.62 75.21 74.91 74.58 74.48 74.38 74.90 72.19 73.13 74.33 74.15 73.41 72.89 72.53 71.63
72.50 72.47 73.83 76.25 76.16 75.94 76.06 75.81 74.76 74.10 74.60 74.18 72.97 73.11 71.74 72.31 72.36 73.70 73.53 74.34 74.56 74.45 74.68 74.97 75.07 75.16 75.06 75.23 74.91 74.75 74.07 73.11 72.93 74.39 73.47 72.92 72.62 74.22 73.94 73.65 73.50 72.71 71.61
70.64 73.90 74.41 76.36 75.47 75.84 75.55 75.03 74.26 73.10 74.07 73.98 73.29 72.13 70.89 71.65 71.70 73.05 72.64 72.86 73.10 73.17 73.59 73.93 74.37 74.68 74.57 74.92 74.72 74.16 73.42 73.41 74.51 74.07 72.19 71.66 71.44 73.11 73.97 73.66 73.01 72.54 71.79
70.84 73.74 75.68 76.07 75.42 75.30 74.87 73.88 73.28 72.96 73.49 73.23 72.25 70.37 70.61 71.32 70.48 71.89 71.82 71.57 71.13 71.79 71.82 72.64 73.26 73.78 74.33 74.32 74.21 73.60 73.30 73.58 74.55 70.98 71.92 72.95 71.64 73.38 73.25 73.31 72.88 72.50 71.85
71.36 72.63 73.76 75.68 75.11 74.25 73.80 73.40 72.76 72.20 73.42 72.44 70.76 69.75 69.84 69.98 69.73 69.65 70.39 70.65 70.75 70.35 70.77 71.07 72.32 74.08 73.11 73.41 74.30 73.80 73.20 73.84 72.33 68.49 69.74 70.70 71.10 73.20 72.82 72.94 72.92 72.40 72.13
69.31 72.45 72.67 75.56 75.72 75.21 74.51 73.67 73.66 73.28 73.42 72.07 70.40 69.61 69.19 69.56 69.25 68.51 67.88 68.70 69.18 69.62 69.33 69.38 70.81 72.48 73.18 72.83 74.33 73.62 72.95 73.36 71.34 68.39 67.85 69.62 72.52 72.45 72.14 72.02 72.13 72.41 71.94
70.17 70.08 72.17 72.47 74.49 76.45 75.95 75.23 74.39 73.46 73.67 72.33 70.80 70.32 69.51 68.99 68.98 68.57 67.60 66.84 66.83 67.14 67.47 67.51 69.07 70.88 71.95 73.08 73.56 73.34 72.20 72.36 69.19 68.98 69.44 70.58 73.55 72.58 71.81 71.64 71.51 71.91 72.30
69.88 69.67 69.73 73.17 73.45 73.23 73.58 75.91 75.53 74.47 73.75 73.06 72.37 71.76 71.11 70.17 69.71 69.34 68.72 67.82 66.56 66.46 66.74 66.50 67.55 68.92 69.35 70.37 73.21 72.40 71.23 71.34 67.71 67.89 67.51 69.73 72.60 71.83 72.80 72.42 72.02 72.04 71.94
65.76 65.06 64.82 65.45 68.04 71.40 72.33 74.41 74.32 74.97 74.69 74.67 73.51 73.28 71.98 68.09 67.83 68.36 69.19 69.27 67.28 66.47 66.80 66.72 66.35 67.70 67.99 68.61 71.24 72.36 71.75 68.38 68.45 67.62 67.11 71.47 71.30 70.30 70.30 70.65 71.05 71.92 71.85
60.05 61.05 61.71 62.61 64.26 65.92 72.65 72.53 72.03 73.28 71.86 71.61 71.55 71.09 69.90 68.88 66.96 67.34 68.57 68.61 67.52 66.93 67.31 67.02 66.78 66.31 66.72 64.04 66.73 71.40 66.89 65.71 66.76 66.54 66.90 70.84 70.04 69.59 68.66 68.33 69.19 70.20 71.00
57.10 57.83 59.32 60.44 63.14 66.63 67.83 72.31 72.13 71.53 71.40 71.52 71.79 70.67 70.38 70.78 68.07 65.51 65.06 64.92 64.06 66.78 63.46 64.98 63.79 61.72 58.82 59.95 59.95 67.22 65.57 62.91 64.56 66.08 68.03 70.34 69.60 68.95 68.52 67.47 67.68 68.94 69.91
54.00 54.50 55.96 58.09 60.83 64.33 68.31 69.67 69.55 69.50 70.22 69.96 69.76 69.83 69.00 68.82 68.88 69.33 68.40 64.55 63.86 62.86 62.53 60.20 60.19 60.12 59.43 57.85 55.63 55.78 58.41 59.75 62.26 63.14 66.80 70.29 69.91 69.23 68.83 67.57 66.83 67.88 69.14
50.34 50.63 50.99 51.93 54.69 57.08 59.33 62.57 65.70 67.92 68.22 68.83 68.37 68.14 67.80 67.09 67.41 67.97 67.94 68.53 67.81 62.72 60.77 59.40 58.21 56.95 56.07 56.10 55.27 54.39 53.24 54.59 59.89 61.30 65.54 69.75 69.60 68.92 68.66 68.13 66.71 66.83 67.81
48.24 48.56 49.67 50.30 50.01 50.78 51.23 53.77 55.54 55.57 59.60 64.60 64.61 64.84 66.29 66.04 65.77 66.00 66.03 66.76 66.87 66.98 66.66 63.37 59.42 57.12 55.12 54.50 53.86 53.44 52.20 52.19 53.90 58.93 64.34 65.83 68.90 68.34 68.25 68.18 66.99 66.17 66.98
48.09 49.27 49.36 50.31 50.52 49.61 49.99 51.19 51.65 51.83 53.02 52.74 53.87 55.02 54.81 57.43 58.69 62.14 63.65 64.64 65.99 66.10 65.55 65.45 63.93 60.47 56.15 55.51 52.96 52.54 52.04 51.69 51.81 54.33 58.75 62.35 64.59 67.31 67.28 67.06 66.92 66.11 66.29
48.14 48.38 49.79 52.05 50.08 49.59 49.24 49.88 50.19 50.30 50.68 50.64 51.13 51.44 51.62 52.14 52.57 52.17 53.23 58.71 63.85 63.88 63.66 64.07 63.95 62.72 59.88 55.33 53.66 52.85 52.17 51.52 51.40 51.25 54.96 57.60 60.11 61.49 65.24 66.44 66.02 65.84 65.30
47.84 47.97 48.51 49.06 48.85 49.50 49.34 49.30 49.46 49.70 49.45 49.37 49.23 49.51 49.86 51.45 52.05 50.55 51.03 51.47 52.91 59.77 61.21 61.16 61.64 61.67 61.43 60.44 56.23 54.47 54.31 51.53 50.87 52.73 51.43 55.47 56.07 56.34 58.31 64.46 65.63 65.22 64.30
47.32 47.64 47.92 48.36 47.81 48.14 48.58 48.60 48.53 48.49 48.52 48.76 48.70 48.90 49.70 49.52 49.89 49.66 50.22 50.51 50.60 50.90 53.00 58.86 58.55 59.19 60.57 60.36 60.83 59.60 54.90 54.73 52.19 50.45 50.26 53.08 54.77 54.91 54.71 56.23 59.86 60.32 63.64
47.10 46.89 46.68 47.35 46.95 46.91 46.80 45.82 45.57 45.50 46.43 47.07 48.06 49.25 49.27 49.34 49.67 48.10 48.15 49.43 49.80 49.39 49.60 50.76 51.98 55.28 55.62 56.87 57.63 58.61 57.28 57.32 53.28 50.89 51.34 50.72 51.62 54.68 53.65 53.43 56.61 55.38 57.52
47.06 46.99 46.86 46.85 47.25 46.92 46.99 46.38 45.87 45.32 46.11 46.94 48.23 48.77 49.45 49.04 49.00 48.85 46.86 47.40 48.61 48.00 48.13 48.45 48.97 49.66 52.38 54.47 53.24 55.19 53.08 54.12 55.92 55.89 51.15 52.07 51.03 52.25 54.10 53.99 53.86 54.19 52.87
46.74 46.72 47.32 47.25 47.29 47.28 47.42 46.93 46.62 46.11 46.13 45.50 46.29 46.93 47.86 48.76 48.65 48.40 47.50 46.94 46.46 46.99 46.86 47.11 47.33 47.59 47.11 51.40 54.03 52.47 50.41 48.23 49.30 55.31 55.58 52.60 51.31 51.29 52.44 53.67 54.01 53.46 52.37
45.91 47.52 47.49 47.30 47.13 48.25 46.56 45.43 44.03 43.05 42.30 43.65 44.47 45.49 46.53 47.06 47.17 47.96 47.66 46.91 46.34 46.55 45.46 45.30 47.47 45.27 45.65 45.87 50.19 54.32 52.24 52.40 48.55 47.88 52.65 52.73 54.15 51.48 50.77 50.67 53.30 53.18 53.32
45.99 46.09 47.43 47.76 47.71 46.58 45.85 45.23 44.08 43.01 43.54 43.94 44.22 44.22 44.86 45.86 46.42 47.23 47.83 47.43 45.81 45.80 46.10 45.53 44.87 44.35 44.34 43.49 44.39 46.56 49.71 49.86 50.06 50.18 48.63 50.93 52.75 52.79 50.26 50.55 51.87 51.60 51.64
46.57 47.13 47.44 46.72 46.24 46.11 45.62 44.76 43.48 42.38 42.35 42.80 42.72 43.42 43.83 44.17 44.95 46.26 47.05 46.10 45.75 45.73 45.99 45.94 45.54 44.53 44.31 44.38 44.51 45.18 46.31 47.50 46.20 45.85 47.57 48.64 49.57 51.91 52.70 53.06 51.52 50.59 50.61

GFSSE_sfc_wetblb_051.txt.gz
Wetbulb
70.80 73.67 76.37 76.81 75.55 75.98 76.16 76.29 75.73 75.11 74.48 74.12 74.45 75.09 74.71 75.01 75.60 75.54 75.52 75.90 75.71 75.31 76.16 75.99 76.09 75.93 75.93 76.13 75.99 75.92 75.78 75.10 75.19 75.14 75.03 75.34 75.09 73.87 73.33 72.65 71.98 70.01 71.85
72.19 74.21 76.39 76.94 76.29 75.66 76.17 75.93 75.14 74.29 73.73 73.34 73.29 73.50 74.50 74.19 74.76 74.98 75.27 75.49 75.62 75.12 75.47 75.05 74.66 75.58 76.08 75.75 75.86 75.85 75.12 74.69 74.84 74.55 74.44 74.80 74.74 73.95 73.32 72.90 72.34 70.41 71.49
72.79 74.41 74.93 76.84 75.66 75.57 75.40 74.59 74.33 74.08 73.56 72.89 72.85 71.98 72.42 73.14 73.93 74.39 74.95 74.98 75.21 75.27 75.34 75.54 74.80 75.21 75.11 75.64 75.10 74.86 75.01 74.83 74.44 74.22 74.19 72.59 72.82 74.26 73.61 73.13 72.53 71.75 71.30
72.97 73.90 74.03 76.06 75.61 76.14 74.93 74.07 73.14 73.92 74.54 73.18 73.18 71.44 70.95 71.88 73.13 73.20 73.60 74.10 74.05 74.39 74.66 74.87 74.86 74.81 74.98 74.91 74.64 74.21 73.92 73.26 73.14 74.33 73.07 72.56 72.39 74.14 73.86 73.61 72.81 71.68 71.25
71.52 73.20 74.47 76.62 75.51 75.87 75.62 74.25 73.95 73.15 73.89 73.62 72.85 70.45 70.76 71.29 71.87 72.45 72.52 72.26 72.72 73.05 73.39 73.89 74.25 74.66 74.61 74.56 74.24 73.56 73.22 72.99 74.33 73.66 71.27 70.69 70.91 73.54 73.85 73.17 72.53 71.76 70.65
71.68 73.20 75.83 76.08 75.80 75.93 75.39 73.73 73.37 73.14 73.45 72.67 71.40 70.02 70.11 70.34 69.86 71.63 71.70 71.52 71.08 71.43 71.78 72.32 73.06 73.79 74.18 73.81 73.71 73.51 73.33 73.64 73.85 71.33 71.00 72.38 70.95 73.30 73.27 72.97 72.58 72.01 71.02
71.54 73.15 73.71 75.95 75.31 74.94 74.39 73.87 73.12 73.44 73.39 72.31 70.47 69.56 69.61 69.66 69.09 68.78 69.25 69.88 69.91 70.05 70.31 70.66 71.91 73.80 73.06 73.33 73.83 73.57 73.33 73.83 71.04 69.83 69.86 70.22 70.93 73.41 73.04 72.89 72.48 72.18 71.51
70.64 72.12 73.61 76.04 76.15 76.02 74.99 74.30 73.80 73.63 73.85 72.38 70.55 69.59 69.04 69.24 68.92 68.09 67.47 67.36 67.86 68.44 68.49 68.31 70.39 71.75 73.36 73.01 73.77 73.43 73.35 73.41 70.36 68.21 69.01 69.33 73.01 72.39 72.28 72.13 72.19 72.17 71.98
70.44 70.48 71.78 73.31 74.78 76.39 76.00 75.61 74.84 73.13 73.66 72.39 70.85 70.43 69.69 68.92 68.86 68.55 67.46 66.53 66.30 66.41 66.47 66.47 68.64 70.51 71.64 72.79 73.30 73.13 72.99 72.76 69.11 67.27 70.23 70.18 73.06 72.02 71.97 71.48 71.62 71.92 72.00
63.15 62.56 70.36 71.96 73.09 73.35 72.44 74.74 75.19 74.14 73.86 72.95 72.16 71.70 71.59 70.84 70.06 69.63 69.12 68.09 67.06 66.21 66.25 66.11 66.61 68.67 69.03 70.32 73.00 72.74 72.22 71.82 67.63 66.74 68.41 71.00 73.62 73.00 72.58 72.13 71.78 71.99 72.07
60.73 59.84 58.54 61.09 68.19 71.70 72.42 73.35 74.10 74.27 74.27 74.54 73.45 73.48 72.70 69.05 67.43 68.27 69.00 69.58 69.28 67.40 66.47 66.34 66.34 66.91 68.65 68.60 70.09 72.53 72.53 67.79 67.40 67.16 67.71 72.49 72.30 72.23 72.26 71.59 71.49 71.97 71.92
54.74 56.24 56.91 58.57 66.87 67.65 72.43 71.00 70.63 71.51 70.75 70.67 70.64 69.89 70.18 69.69 67.99 68.82 69.12 70.78 69.48 68.04 67.51 67.49 67.17 66.97 66.15 63.49 63.58 68.93 69.35 66.69 64.65 65.67 66.65 71.42 71.47 70.59 70.48 70.09 70.36 70.93 71.29
51.24 51.72 53.65 56.90 61.54 69.32 69.80 69.14 69.35 69.29 69.22 69.60 69.31 68.83 69.46 69.56 69.68 67.62 64.47 64.88 63.66 66.92 63.00 64.65 64.26 63.13 60.19 58.97 60.30 63.30 67.22 65.22 62.68 64.18 67.92 71.03 71.27 70.54 69.91 69.07 69.07 69.67 70.45
48.19 47.79 49.21 51.69 54.88 57.32 65.17 66.95 66.49 66.61 66.38 66.54 67.92 66.78 66.42 66.20 66.88 66.79 66.90 67.69 64.09 62.56 62.06 60.87 60.70 60.80 59.65 58.06 54.79 53.84 57.51 58.16 60.38 62.62 66.41 70.63 71.38 70.69 70.38 69.18 68.57 68.88 69.66
46.12 46.49 47.27 47.53 47.33 49.32 52.29 52.56 53.12 62.57 63.76 63.38 63.79 64.65 64.17 64.04 63.52 64.82 64.69 66.41 66.92 67.23 64.50 62.15 58.37 56.46 55.07 55.71 55.48 54.43 53.29 51.82 52.51 58.90 64.06 70.26 71.16 71.19 70.31 69.75 68.67 68.40 69.15
45.00 46.27 47.15 48.30 47.00 47.46 47.44 48.55 48.53 48.97 50.02 52.00 56.54 58.10 55.73 57.51 58.19 59.83 61.58 63.81 65.46 66.48 65.79 65.36 63.95 61.29 57.30 53.10 52.90 53.30 52.08 50.75 50.49 53.14 64.02 67.88 70.31 70.78 70.16 69.90 69.02 67.93 68.27
45.27 47.09 47.71 48.90 48.20 46.59 46.67 47.15 47.25 47.98 49.09 47.66 48.57 48.73 48.65 49.56 49.97 49.75 51.37 54.90 58.98 62.81 63.80 63.63 63.55 63.93 62.67 59.96 54.30 52.28 51.03 50.35 50.34 50.09 62.43 63.49 67.14 69.31 69.77 69.61 68.91 68.07 67.26
45.07 45.90 46.96 49.52 47.77 46.78 46.12 46.48 46.92 47.11 46.70 46.78 46.91 47.35 48.32 49.37 48.56 47.94 48.35 48.80 50.10 56.64 60.78 59.67 59.63 59.86 60.68 61.44 58.73 56.19 52.52 50.85 50.22 49.72 51.81 61.66 62.37 64.32 67.45 68.57 68.49 68.00 67.21
45.14 44.99 45.73 45.65 45.93 46.87 46.07 46.42 46.16 46.53 45.87 45.59 45.92 46.29 47.06 48.47 48.62 46.89 47.02 47.58 48.37 48.47 51.35 57.98 58.18 57.33 57.20 58.41 59.40 61.09 60.64 55.89 53.89 53.29 49.22 53.24 58.92 60.21 60.62 66.39 67.44 67.40 67.17
44.65 44.57 44.49 45.11 45.01 45.39 45.19 45.24 45.11 45.18 45.39 45.03 44.85 45.71 46.96 46.88 47.52 46.10 46.03 46.10 47.08 47.28 47.56 48.16 53.10 55.55 55.59 56.40 58.94 57.83 58.40 60.40 56.96 53.11 51.75 50.74 54.02 57.41 57.19 57.97 62.36 63.22 66.55
44.16 44.02 43.72 45.14 43.67 44.24 43.62 42.70 42.13 42.51 43.21 44.37 45.23 47.00 47.07 47.12 47.34 45.92 45.38 45.47 45.62 45.38 46.05 46.49 47.17 48.89 51.41 53.60 52.44 52.14 55.03 56.97 57.09 58.32 53.68 51.14 51.26 54.01 54.15 56.10 57.71 57.81 60.25
45.02 44.27 43.48 44.75 44.83 43.96 44.08 43.47 42.89 41.95 43.01 44.04 45.29 45.87 46.89 46.59 46.61 46.85 45.25 44.82 44.92 44.66 44.82 45.11 45.01 45.02 47.76 51.29 50.28 49.25 47.34 49.60 52.87 55.12 56.69 52.87 51.30 52.98 53.62 53.41 55.69 56.07 55.35
44.66 43.96 44.67 44.96 44.93 44.71 44.32 44.02 43.47 42.63 42.37 42.39 42.82 44.06 45.22 45.80 46.00 45.27 44.74 44.39 43.95 43.26 43.55 43.83 44.41 43.31 42.73 45.03 50.88 48.65 44.50 43.79 46.60 50.07 51.56 52.20 51.86 50.74 53.75 54.05 53.90 55.24 54.47
43.48 44.58 44.61 45.12 45.20 46.46 43.88 42.50 40.89 40.01 39.64 40.79 41.45 42.62 43.27 44.43 44.57 45.00 44.92 44.34 43.60 43.45 42.98 43.30 45.68 43.27 42.50 41.86 43.92 51.96 50.04 48.71 45.63 44.26 49.21 51.20 53.64 52.32 48.24 50.97 53.92 53.46 53.88
43.49 43.99 44.83 45.28 45.45 44.54 43.41 42.52 41.11 40.16 40.54 41.16 41.21 40.96 41.20 42.30 43.35 44.23 44.44 43.95 43.34 42.70 42.76 42.96 42.84 42.10 42.01 41.02 41.30 41.71 46.30 47.65 47.52 47.45 45.01 46.53 49.97 52.04 52.83 50.15 48.12 52.46 53.44
44.18 44.76 45.05 44.54 44.60 44.28 43.15 42.20 40.98 39.31 39.00 39.16 39.09 38.68 39.78 40.47 41.62 42.63 43.73 43.13 43.11 43.02 42.66 43.17 43.20 42.35 42.20 41.91 41.94 42.09 42.44 43.63 44.70 46.24 47.09 45.98 46.75 48.98 52.82 53.48 52.16 48.37 50.13

GFSSE_sfc_wetblb_054.txt.gz
Wetbulb
70.34 73.36 76.70 75.68 76.14 75.95 75.86 75.80 75.00 74.31 73.74 73.80 74.64 74.44 74.66 75.24 75.26 75.23 75.59 75.42 75.17 75.14 74.94 75.75 75.89 75.88 75.89 75.70 75.73 75.10 75.04 75.12 75.07 75.09 74.67 74.66 74.05 73.37 72.91 71.94 71.52 69.65 71.60
71.74 74.04 76.54 75.91 75.25 76.02 75.67 75.12 74.21 73.57 73.08 72.50 72.37 73.91 73.73 74.02 74.87 75.15 75.03 75.36 75.21 75.45 75.29 74.29 75.36 75.54 75.53 75.53 75.49 74.84 74.73 74.73 74.52 74.53 74.31 74.78 74.09 73.54 73.10 72.20 71.63 69.99 71.60
72.85 74.15 75.38 76.14 75.11 75.76 74.90 74.35 73.77 73.94 72.99 72.59 71.33 70.99 72.34 73.63 73.75 74.09 74.92 74.71 74.76 74.82 75.05 74.95 75.23 74.90 75.27 75.05 74.94 74.84 74.71 74.40 74.19 73.87 74.00 72.20 72.38 73.55 73.22 72.36 71.68 71.44 71.43
73.28 73.60 73.86 75.50 75.29 75.65 74.69 73.14 73.23 74.19 72.87 73.17 71.36 69.91 71.16 72.20 73.05 72.95 73.43 73.47 73.29 74.19 74.53 74.70 74.72 74.43 74.21 74.54 74.51 73.92 73.47 73.24 73.10 73.78 72.52 72.02 72.22 73.75 73.47 72.78 71.62 71.33 71.08
72.37 73.07 73.64 75.75 76.29 75.85 74.20 73.25 72.79 73.57 73.54 72.98 70.69 69.95 70.66 70.46 72.28 72.27 72.10 71.89 72.29 72.71 73.26 73.64 74.05 74.34 74.19 74.18 73.96 73.18 72.80 72.82 73.81 73.34 71.17 70.22 71.07 73.29 73.22 72.72 71.62 70.70 70.65
71.32 72.13 75.27 75.99 76.03 76.06 74.51 73.63 72.97 73.50 73.15 71.72 70.15 69.82 69.95 69.08 71.01 71.23 71.04 71.06 70.26 71.09 71.47 72.02 73.43 73.36 73.86 73.60 73.72 73.11 72.58 73.44 72.50 71.39 70.24 71.94 70.36 73.49 73.19 72.56 71.82 70.92 70.23
70.92 72.53 73.91 75.23 75.07 74.99 74.22 73.86 73.02 73.49 73.25 71.80 70.38 69.48 69.47 69.31 68.11 68.51 68.59 68.87 68.87 69.32 69.64 70.08 71.23 73.24 72.77 73.24 73.76 73.70 73.05 73.15 68.65 69.94 69.30 69.84 70.52 73.23 72.83 72.51 72.13 71.42 70.28
70.57 72.43 72.24 75.66 75.63 75.06 74.15 73.64 72.69 72.12 73.36 72.20 70.65 69.58 68.96 69.10 68.56 67.45 66.70 66.79 66.84 67.45 67.32 67.12 69.85 70.95 73.08 73.06 73.60 73.57 73.38 72.81 69.09 67.19 68.44 69.06 72.86 72.42 72.20 72.03 72.16 71.93 70.93
67.15 70.50 71.93 74.01 74.19 75.16 74.15 74.55 73.71 73.28 73.30 72.16 71.01 70.47 69.74 69.01 68.79 68.51 67.43 66.52 66.52 66.21 66.01 65.89 68.40 70.10 71.21 71.93 73.38 73.44 73.02 72.76 67.53 67.30 69.09 68.89 73.41 71.79 71.81 71.60 71.30 71.90 71.91
58.07 63.47 63.63 71.42 72.46 71.94 71.53 73.53 74.03 73.53 73.24 72.50 71.91 71.60 71.43 70.87 70.42 69.94 69.88 68.74 67.92 67.11 66.56 66.16 66.20 68.73 69.38 70.20 71.72 73.22 72.52 72.15 66.94 66.40 68.25 69.36 72.84 72.35 72.18 71.86 71.52 71.44 71.99
57.30 57.78 59.01 62.77 65.83 71.00 71.78 72.76 72.65 73.49 73.50 73.10 71.99 72.20 71.32 70.08 68.21 68.31 69.23 70.05 69.96 68.84 67.55 67.12 66.74 66.70 68.73 69.25 69.80 71.49 72.76 68.12 66.18 66.34 67.26 72.35 73.47 72.88 72.98 72.34 71.97 72.09 71.71
50.24 55.81 56.42 66.07 69.67 68.81 70.31 69.32 69.04 69.83 69.41 69.12 69.19 68.40 68.55 68.43 68.56 68.84 68.56 70.11 70.45 69.90 68.73 68.25 67.90 67.50 66.49 63.32 63.46 66.52 66.68 67.99 65.63 64.08 66.00 71.88 72.60 72.32 71.95 71.54 71.64 71.84 71.96
45.73 48.83 52.26 56.18 65.73 66.06 66.59 66.82 66.77 65.75 67.09 67.36 66.39 66.49 66.43 67.00 67.59 67.51 66.92 66.47 63.85 65.45 63.89 62.85 62.11 63.18 61.93 59.77 59.39 60.08 62.96 65.10 65.13 63.22 66.28 71.87 72.57 71.60 71.49 70.62 70.36 70.74 71.29
45.39 45.43 47.11 48.66 52.07 55.03 56.76 60.00 63.07 63.03 62.53 63.35 65.15 63.06 61.47 63.08 63.46 64.41 65.12 66.15 66.74 65.23 62.69 61.06 58.27 59.00 59.36 59.39 55.60 54.93 57.51 62.93 63.74 62.38 63.70 70.65 71.97 72.08 71.44 70.57 70.02 69.58 69.82
44.88 45.31 46.16 46.01 45.33 46.38 47.86 47.02 47.21 49.87 52.15 56.45 56.34 53.31 55.37 56.04 55.95 59.86 60.59 63.00 64.13 66.00 65.66 64.95 63.99 62.43 59.15 55.56 54.05 53.76 52.50 51.53 51.79 54.43 59.65 68.39 71.40 72.12 71.67 71.07 70.19 69.53 69.46
43.97 45.15 46.12 46.58 45.02 45.66 45.39 45.42 45.54 46.39 46.18 46.86 47.24 47.26 48.85 48.62 47.99 49.05 50.21 52.30 54.43 58.05 64.34 63.72 63.21 63.18 62.59 60.48 58.78 55.45 51.50 50.25 50.03 49.80 55.25 61.88 70.20 71.45 71.63 71.16 70.55 69.66 69.23
43.83 44.95 46.35 46.94 46.10 44.91 44.91 45.40 45.17 45.94 46.57 45.29 45.68 46.08 46.41 47.10 46.04 46.75 46.99 47.51 47.94 50.55 56.98 59.26 58.83 60.36 60.25 61.27 60.51 58.89 57.61 53.68 50.51 48.73 50.43 62.16 67.04 70.08 70.67 71.31 70.68 69.84 68.86
44.05 44.18 45.02 48.93 46.42 45.11 44.67 44.62 45.10 44.92 44.38 44.34 44.39 44.63 46.01 46.88 46.11 45.05 45.20 45.22 46.52 47.29 50.63 53.04 56.23 56.44 55.92 56.14 57.68 59.42 59.27 57.17 56.22 53.20 49.66 57.88 62.86 66.25 68.81 70.12 70.86 69.70 68.94
43.96 43.46 43.73 44.65 45.30 45.39 44.50 44.69 44.39 44.46 43.95 43.44 43.53 43.90 45.14 46.59 47.06 44.48 44.57 44.57 45.08 45.64 45.89 47.56 52.11 53.19 54.24 53.85 54.84 55.50 55.65 55.98 56.65 59.06 53.27 51.24 59.56 63.17 63.60 67.43 69.28 68.87 69.18
43.06 43.13 43.11 43.63 43.94 43.79 43.01 42.95 43.04 43.21 43.53 43.55 43.29 44.08 45.36 45.47 46.01 43.86 43.55 43.80 44.04 43.96 44.04 44.77 44.76 47.64 51.67 51.88 55.50 55.44 52.94 53.39 56.64 57.13 55.63 54.47 52.53 59.58 61.24 60.62 64.89 65.58 68.38
42.22 41.77 42.40 43.72 42.81 43.05 42.44 41.40 40.79 41.11 41.57 42.53 43.60 45.07 45.02 45.65 45.55 43.99 43.88 43.70 43.63 42.82 42.90 43.72 44.36 45.12 46.03 48.90 49.70 49.48 49.74 50.93 49.03 52.32 55.53 52.32 51.50 53.16 57.51 58.85 60.21 61.08 63.54
43.26 42.32 42.08 43.31 43.36 42.63 42.27 41.64 41.32 40.39 41.16 42.02 43.23 43.78 44.80 44.67 44.70 45.08 43.32 42.74 42.65 42.05 42.38 42.31 41.83 42.09 44.02 46.93 45.44 46.02 43.24 45.56 48.00 50.38 50.56 51.49 50.42 49.07 52.76 57.24 56.52 58.69 58.33
42.43 42.12 42.73 43.13 43.75 43.41 42.85 42.23 41.76 41.00 40.98 41.28 41.39 42.10 43.25 43.49 43.66 43.27 42.54 41.84 41.53 41.07 41.01 41.22 41.45 41.11 41.36 41.85 45.42 45.30 41.88 41.14 44.45 47.08 47.92 48.96 50.56 51.18 48.91 50.71 53.96 55.36 57.53
42.46 42.78 43.18 43.82 44.07 44.70 42.53 41.34 39.49 39.01 38.55 39.45 39.39 40.70 41.03 41.86 41.88 42.61 42.60 42.12 41.36 40.95 40.15 40.45 43.87 41.09 39.97 39.82 41.29 47.60 47.28 46.01 42.80 41.35 45.89 47.35 48.17 48.83 50.16 50.90 49.13 52.07 53.61
42.29 42.75 43.33 43.91 44.59 43.91 42.32 41.08 40.12 39.07 38.81 39.09 39.07 38.67 39.08 40.10 41.24 42.11 41.99 41.23 40.74 40.69 40.37 40.15 40.50 40.34 39.93 39.02 39.02 39.69 40.99 43.54 44.15 43.95 40.80 43.32 46.72 46.68 49.94 50.73 50.77 48.97 52.32
41.49 42.74 43.40 43.70 43.90 43.31 42.44 41.40 39.63 38.03 37.40 37.14 37.04 36.82 38.01 38.62 39.66 40.63 41.38 40.37 40.24 40.06 40.21 40.71 40.99 39.89 40.49 39.77 39.62 39.76 40.95 40.97 40.44 41.79 41.75 41.58 44.11 47.35 47.17 49.78 52.18 50.97 49.02

GFSSE_sfc_wetblb_060.txt.gz
Wetbulb
69.26 72.15 75.35 75.51 74.94 74.85 74.64 73.93 73.26 72.69 72.69 73.88 73.38 73.85 74.66 74.81 74.95 74.97 75.14 75.44 74.98 74.88 75.45 75.34 75.30 75.41 75.30 74.62 74.80 74.75 74.77 74.74 74.49 74.06 73.65 73.49 73.17 72.70 72.23 71.87 71.61 69.23 71.90
70.80 73.11 75.48 75.63 75.35 74.69 74.43 73.70 72.93 72.01 70.65 71.44 72.88 73.16 73.31 73.88 74.72 74.90 74.97 74.78 75.17 75.02 75.40 75.06 75.21 75.16 74.72 74.71 74.93 74.73 74.41 73.91 73.77 73.65 73.46 73.83 72.62 72.70 72.13 71.77 71.38 69.72 70.45
71.70 73.54 74.06 74.92 75.67 74.99 74.00 73.40 72.77 72.20 70.88 69.48 70.24 71.90 73.11 72.19 73.10 73.95 73.74 74.04 74.52 74.77 74.85 75.01 74.69 74.67 74.74 74.84 74.69 74.09 73.76 73.86 73.48 73.24 73.38 71.45 71.35 72.36 72.16 71.69 71.24 71.43 70.99
72.26 73.12 73.95 74.77 75.21 74.77 73.42 72.99 72.83 72.47 72.32 69.56 69.26 70.16 71.67 72.05 71.81 72.23 72.67 72.13 72.27 73.11 74.16 74.33 74.35 74.05 74.10 74.13 73.86 73.61 73.30 73.08 72.85 73.08 71.47 71.44 72.13 73.12 72.49 71.56 71.13 71.60 72.32
71.72 73.17 73.76 74.62 74.63 74.26 72.98 73.13 73.01 73.04 72.26 69.56 69.39 69.27 69.54 71.05 71.17 70.98 71.37 70.89 71.28 72.10 72.50 73.29 74.00 73.99 73.85 73.81 73.33 72.86 73.25 73.12 73.10 72.94 70.38 70.24 71.17 72.45 72.39 71.37 70.53 70.65 71.41
70.76 71.79 73.52 74.73 74.92 73.68 72.90 72.41 72.83 72.41 71.15 69.45 69.38 69.47 68.41 69.55 70.23 69.81 69.55 69.23 69.22 69.88 71.22 71.41 72.46 73.67 73.37 73.43 73.52 72.55 73.05 72.16 72.18 70.63 69.57 70.78 70.66 72.55 72.11 71.76 70.83 70.09 70.24
69.51 70.90 72.89 75.35 74.21 73.65 73.16 72.48 72.71 72.75 71.71 70.35 69.29 69.14 69.07 68.25 67.41 67.33 67.34 67.53 67.44 68.03 68.32 68.71 70.66 72.49 73.41 73.47 73.64 72.80 72.50 71.24 68.47 69.28 68.84 69.00 70.17 72.26 71.75 71.40 71.03 70.16 69.70
69.85 71.81 72.66 74.56 74.71 73.53 72.79 72.93 71.99 72.78 72.25 71.12 70.04 69.06 68.71 68.66 68.32 67.82 66.88 66.46 66.79 66.97 66.90 66.84 67.73 70.34 71.92 72.67 72.90 73.03 72.51 71.06 67.11 67.25 68.65 68.82 70.78 71.70 71.12 71.24 71.16 70.53 69.52
70.81 70.92 70.62 71.89 72.66 73.90 73.76 72.83 72.33 72.71 72.46 72.10 71.75 70.98 70.21 69.67 69.00 68.89 68.89 68.12 67.61 68.16 68.21 67.64 66.72 68.13 70.14 71.18 71.74 72.53 72.61 71.58 66.36 66.50 68.61 67.93 70.38 71.58 71.18 70.70 71.11 71.13 70.42
60.94 61.94 67.99 70.06 70.74 70.34 70.97 73.49 73.28 73.16 72.92 72.62 72.17 72.38 71.89 70.68 71.18 70.93 70.78 69.93 70.03 70.11 69.93 68.76 68.23 67.85 67.48 69.06 70.26 70.93 71.74 70.42 66.20 66.27 66.60 67.44 70.60 71.75 71.53 71.47 71.05 71.10 71.41
64.05 65.14 67.18 68.52 69.34 67.96 69.52 70.55 70.11 69.69 68.15 67.08 66.84 68.60 66.23 66.43 67.16 67.26 70.32 70.98 71.25 71.11 71.06 70.24 69.44 69.29 68.86 67.62 67.44 67.57 68.72 66.47 66.29 65.55 64.93 67.69 70.57 71.93 72.00 72.29 71.81 71.39 71.25
54.42 60.07 62.80 63.88 64.57 64.13 66.15 65.66 65.32 63.89 62.31 60.62 60.85 61.44 61.44 61.17 61.04 63.13 64.58 66.88 68.76 68.44 67.73 67.79 67.51 65.97 63.53 61.85 60.70 62.20 59.67 60.99 62.22 64.36 65.09 68.66 69.65 72.06 72.46 72.16 71.95 72.07 71.82
48.65 50.42 52.14 57.16 59.63 61.20 61.03 60.09 57.74 54.43 53.09 51.13 51.68 53.47 54.28 55.79 56.87 57.30 57.13 57.13 57.36 64.22 64.33 63.90 62.97 61.94 59.42 58.50 58.44 57.49 56.74 56.44 58.69 61.14 63.58 67.18 69.38 70.76 72.49 72.02 72.14 71.62 71.53
46.01 46.99 47.62 48.74 47.81 47.16 49.30 50.14 50.75 49.81 47.89 46.42 47.14 48.63 47.85 47.82 48.07 49.44 50.34 51.23 50.55 53.05 57.33 59.68 60.88 61.99 61.88 61.13 59.22 56.94 54.43 53.46 54.03 56.43 58.58 63.22 67.98 70.07 72.08 72.39 71.94 71.57 70.93
44.13 44.44 44.61 44.41 43.58 43.90 44.57 44.05 44.32 44.13 43.95 44.72 44.46 45.79 45.49 44.59 44.43 45.78 45.46 46.34 46.26 47.51 50.71 52.63 54.33 56.54 57.54 59.06 60.01 59.65 58.49 56.60 54.28 51.72 51.09 57.77 61.20 64.96 68.88 71.45 71.80 71.65 71.23
42.32 42.99 43.34 43.80 42.66 43.43 43.16 43.18 42.88 43.09 42.85 42.80 42.24 42.89 44.78 43.15 42.86 43.27 43.14 43.23 43.65 44.88 46.21 46.72 47.83 51.54 52.54 52.98 54.82 54.99 55.54 57.76 57.30 56.12 53.58 51.94 59.23 60.75 64.25 67.81 71.41 71.65 70.99
41.81 42.65 43.24 43.61 43.29 42.59 42.57 43.05 42.83 43.76 43.28 41.83 41.97 42.29 43.75 43.89 42.38 41.83 41.52 41.64 42.03 43.12 44.96 43.99 44.28 47.00 47.09 49.47 49.36 51.47 52.77 55.56 55.78 54.41 53.71 53.40 53.69 58.70 61.27 64.00 68.45 71.19 71.13
41.99 42.50 43.93 47.45 43.62 42.34 41.88 41.75 42.11 42.39 41.89 41.37 41.47 41.86 43.64 44.92 42.99 41.55 41.45 41.38 41.93 42.65 43.24 42.69 43.37 44.64 44.55 45.40 46.50 47.30 49.73 51.96 52.13 51.59 52.50 54.49 52.92 53.88 58.65 62.77 65.16 68.42 70.85
42.17 42.35 42.99 42.91 43.22 42.93 41.65 41.56 41.49 41.89 41.29 40.55 40.68 41.47 42.55 44.32 43.48 41.19 41.03 40.96 41.23 40.86 40.41 41.33 41.64 42.13 43.01 43.45 45.30 46.19 48.27 49.01 48.80 51.29 49.76 52.13 52.04 53.58 54.49 60.07 63.32 66.60 70.06
41.45 41.63 41.90 42.06 41.94 41.39 40.83 40.35 40.18 40.54 40.38 40.18 40.47 41.64 42.21 42.84 42.56 41.11 41.05 40.51 40.39 39.81 39.65 39.33 39.12 40.46 41.76 42.84 46.19 46.34 45.56 46.49 47.08 46.81 48.22 50.00 52.23 51.43 51.04 55.00 58.53 61.23 64.37
40.48 39.89 40.42 41.80 40.89 40.70 40.37 39.97 39.32 39.67 39.39 40.10 40.92 41.82 41.98 41.90 42.23 40.89 40.35 40.05 39.86 39.21 38.42 38.40 38.27 39.20 39.38 41.88 42.12 41.12 41.87 44.40 43.57 45.71 46.78 49.68 49.19 50.21 50.07 51.85 55.23 58.51 60.76
40.74 40.25 39.68 40.75 41.17 40.86 40.62 39.96 39.49 38.78 39.07 39.42 40.72 40.73 41.75 41.21 41.27 41.97 39.50 39.51 38.88 38.28 38.08 37.84 37.13 36.94 38.13 39.68 38.46 39.00 36.90 39.69 41.77 47.64 46.82 47.41 47.12 48.09 50.13 50.39 50.18 53.97 57.22
39.53 39.70 40.28 40.52 41.22 41.29 41.27 40.41 39.51 38.62 38.52 38.95 39.09 39.44 40.46 40.32 40.40 40.08 39.42 38.76 38.38 37.54 37.53 36.84 36.77 36.48 35.94 37.21 39.08 38.55 35.24 34.71 38.00 41.49 42.75 44.29 44.22 44.98 47.50 47.58 48.93 50.65 53.14
39.53 39.71 40.24 40.86 41.00 41.91 40.88 39.75 38.63 38.15 37.49 37.52 37.37 38.19 38.42 38.68 38.86 39.48 39.39 38.73 37.94 37.57 36.76 36.94 40.24 37.29 35.84 35.25 36.44 40.47 40.12 39.64 37.21 36.08 39.19 42.05 43.88 44.85 44.40 45.56 48.00 49.99 50.49
39.30 39.83 40.17 40.39 41.06 41.90 39.99 39.43 38.40 37.29 36.97 37.01 36.25 36.15 36.42 37.46 38.41 39.09 38.83 38.16 37.64 37.43 37.12 36.97 36.82 36.16 36.02 35.39 35.38 35.55 35.54 36.84 38.32 38.74 35.57 38.23 40.36 43.78 45.14 45.47 47.05 48.24 49.53
39.79 40.23 40.33 40.36 41.23 41.22 40.16 39.21 37.94 36.69 36.02 35.08 34.82 34.78 35.83 36.39 37.36 37.96 38.51 37.51 37.32 37.14 37.11 37.54 37.10 35.98 36.04 35.60 35.82 35.90 36.19 35.09 34.73 35.39 34.93 36.79 37.24 40.12 42.97 45.58 45.50 46.57 48.20

GFSSE_sfc_wetblb_063.txt.gz
Wetbulb
72.01 74.86 75.11 75.22 74.79 74.55 74.37 73.60 72.74 71.99 73.47 73.99 73.58 74.20 74.79 75.00 75.30 75.12 75.21 75.20 74.98 75.46 75.41 75.44 75.61 75.47 74.79 75.29 75.11 74.94 74.62 74.43 74.16 74.02 73.55 73.01 72.98 72.62 72.50 71.89 71.44 70.91 72.83
73.10 74.93 75.32 75.48 75.24 74.33 73.85 73.34 72.43 70.66 70.49 72.15 72.65 73.53 73.06 74.31 74.56 74.63 74.66 74.92 75.15 75.38 75.09 74.96 75.23 75.01 74.96 75.29 74.84 74.47 74.15 73.93 73.62 73.75 73.40 73.51 73.28 72.85 72.39 71.78 72.07 70.86 71.60
73.07 74.95 74.70 74.90 75.33 74.71 73.71 73.22 72.57 71.67 70.58 69.43 70.69 72.70 72.84 72.51 73.42 73.48 73.08 73.33 74.08 74.61 74.65 74.90 74.55 74.49 74.97 74.83 74.50 74.33 74.24 73.97 73.51 73.77 73.28 73.73 73.15 72.69 72.26 71.67 72.40 72.87 70.83
73.33 75.05 74.52 74.94 74.51 74.33 73.32 73.10 72.75 72.88 71.40 69.48 69.98 70.26 71.77 71.53 71.47 71.85 72.10 71.79 72.28 73.18 73.44 73.97 74.15 74.15 74.16 74.04 73.75 73.52 73.67 73.48 73.06 72.84 72.91 72.84 72.88 72.82 72.03 71.56 71.60 72.10 71.80
73.24 75.20 74.79 74.94 74.46 73.87 73.14 73.04 73.14 72.68 70.96 69.79 69.93 69.16 70.30 70.96 70.70 70.33 70.29 70.11 69.98 71.78 72.21 72.79 73.68 73.60 73.74 73.76 73.51 73.29 73.53 73.28 73.03 72.67 72.61 73.28 73.39 72.22 72.17 71.29 70.63 70.99 71.70
73.23 75.03 74.71 74.95 74.58 73.53 72.67 72.79 72.77 71.91 70.77 69.57 69.63 69.45 68.49 69.38 69.45 68.75 68.39 68.16 68.11 69.10 69.30 70.37 71.82 72.96 73.45 73.65 73.33 72.55 72.82 72.27 72.33 73.07 72.11 72.51 72.71 72.17 72.06 71.65 70.70 70.30 70.66
72.82 73.87 73.84 75.37 74.45 73.61 72.94 72.55 73.20 72.70 71.57 70.34 69.53 69.36 69.22 68.46 67.95 67.22 67.23 67.36 67.56 67.53 67.26 67.17 68.49 71.14 72.19 72.85 73.15 72.84 72.37 71.00 71.79 73.31 72.44 72.09 72.46 71.78 71.67 71.44 71.19 70.23 69.98
72.21 72.91 74.21 74.50 74.50 73.63 73.25 72.69 72.59 73.14 72.12 71.12 70.36 69.73 69.46 69.19 69.14 69.21 68.29 67.90 68.69 69.00 68.89 67.88 67.32 68.64 70.28 71.74 72.34 72.79 72.43 71.33 70.65 70.69 72.13 72.38 71.44 72.41 71.18 71.11 71.17 70.61 69.59
72.27 72.92 73.65 73.88 73.87 73.63 73.48 72.63 72.48 72.72 72.91 72.76 72.59 71.85 71.91 72.00 70.46 70.47 70.73 70.55 70.33 70.28 70.18 69.34 68.97 67.93 67.95 69.29 70.57 71.38 72.24 71.04 70.78 70.74 71.26 72.26 70.40 72.00 71.64 70.82 70.94 71.01 70.53
68.37 69.17 72.59 73.09 72.79 73.07 72.77 72.72 72.79 72.59 70.89 71.44 70.73 70.78 70.14 69.95 70.92 71.56 71.11 71.50 71.88 71.89 71.49 70.73 70.14 70.01 69.55 68.98 68.23 68.12 69.63 70.08 70.71 69.64 70.72 71.39 70.74 71.67 72.30 71.44 70.97 70.68 71.17
67.40 69.32 71.49 71.52 71.08 71.98 71.03 67.78 67.21 66.18 65.53 65.02 64.85 64.52 63.70 65.15 64.67 64.47 66.82 69.24 70.19 69.42 69.44 69.00 68.75 67.76 66.62 66.16 66.87 66.58 64.70 66.41 68.05 69.41 69.25 68.38 69.73 71.05 72.38 72.36 71.61 71.27 70.97
65.79 66.36 68.90 68.74 68.01 68.33 65.76 63.35 61.01 56.46 56.13 56.22 57.30 58.32 58.17 57.83 58.55 58.13 58.94 59.73 62.25 65.00 65.78 65.63 65.93 65.27 65.34 65.48 65.27 64.23 64.18 63.69 63.38 64.55 66.15 67.07 68.20 70.21 71.95 72.69 72.17 71.75 71.44
60.23 61.24 61.35 63.19 63.97 62.82 58.64 56.23 54.94 54.23 54.01 54.12 54.17 54.48 54.58 54.57 54.81 54.82 54.75 54.78 55.56 58.18 57.96 58.68 59.88 61.13 61.94 63.15 63.62 63.81 64.24 64.02 62.79 62.58 63.29 63.87 65.89 69.19 70.77 72.10 72.40 71.95 71.14
55.51 55.17 55.71 56.43 57.29 55.49 54.79 53.58 52.90 52.06 52.15 52.05 52.72 53.04 53.37 52.88 52.70 52.56 52.52 53.23 53.49 54.10 54.38 54.82 55.38 56.82 57.36 57.49 59.06 59.63 60.85 61.43 63.24 63.50 62.45 60.37 62.12 64.08 67.54 70.97 72.03 71.99 71.63
51.37 51.07 50.91 51.70 52.13 51.72 51.26 51.14 51.06 50.72 50.59 51.11 51.88 52.24 52.60 52.04 51.20 51.58 51.38 51.86 52.03 52.81 52.63 52.43 53.16 53.91 54.73 54.90 55.61 56.34 56.91 58.05 60.18 60.92 60.86 59.70 60.76 63.11 63.73 65.73 68.94 71.33 71.37
49.73 49.63 49.64 49.89 50.63 51.01 50.55 50.82 50.40 50.52 50.37 50.62 50.88 51.62 51.47 50.90 50.69 50.82 50.74 50.84 51.05 51.51 51.51 51.07 51.14 52.26 52.69 53.05 53.49 54.65 54.97 55.73 56.73 57.07 57.32 58.14 59.02 60.72 62.53 64.28 65.36 67.41 71.07
49.66 48.94 49.30 49.34 49.71 50.29 50.29 50.64 50.95 50.58 50.24 50.17 50.06 50.88 51.30 50.86 50.16 50.15 50.06 49.89 49.90 50.44 50.60 50.89 50.90 51.44 51.27 51.58 51.76 53.16 53.38 54.06 54.82 54.87 55.08 55.77 57.02 58.15 58.57 60.30 64.19 65.17 67.55
48.91 49.07 49.54 49.88 49.17 49.43 49.72 50.00 50.04 49.68 49.90 49.89 50.14 50.70 50.78 50.47 50.19 50.22 49.97 49.53 49.59 50.00 50.08 50.06 49.80 49.45 49.75 49.97 50.26 51.21 52.16 53.03 53.46 54.02 54.48 54.91 55.52 56.16 58.25 59.88 61.73 64.79 65.93
49.02 49.01 49.38 49.41 48.82 48.64 48.77 49.17 49.45 49.16 49.64 49.70 50.24 50.51 50.06 49.95 49.35 49.83 49.64 49.34 49.17 49.18 48.62 48.22 48.16 48.46 47.71 48.25 48.63 49.56 50.37 51.31 51.93 52.46 52.93 53.82 55.41 57.79 58.17 58.20 59.44 61.55 63.80
48.08 48.81 49.09 48.71 48.45 48.50 48.38 48.41 49.12 49.37 49.25 49.59 49.99 50.14 49.31 49.97 49.14 49.75 49.53 48.79 48.55 48.11 47.71 47.27 46.72 47.64 47.37 47.51 47.30 47.52 49.25 49.67 50.88 51.24 52.02 53.15 56.33 56.78 56.25 56.37 58.18 58.76 59.66
46.96 47.41 47.91 47.80 47.80 48.14 48.55 48.70 48.74 49.43 48.97 49.21 49.69 48.50 48.94 48.91 48.73 49.13 49.09 48.25 48.14 47.28 46.74 46.81 46.26 45.73 46.15 47.57 46.34 46.41 47.39 48.95 50.33 51.51 53.16 52.45 54.73 54.36 54.84 54.46 55.18 54.76 56.09
46.78 47.00 47.02 48.01 47.91 48.22 48.70 48.84 49.09 48.94 48.67 48.51 49.00 48.48 48.53 47.94 47.89 47.80 47.48 47.52 47.36 46.64 46.55 46.24 45.72 44.71 45.31 46.66 43.94 44.14 43.12 44.80 50.23 52.50 51.35 50.83 51.18 53.00 52.99 53.18 53.77 53.40 54.57
46.38 46.60 46.94 47.36 47.69 48.02 48.23 47.80 47.62 47.41 47.48 47.64 47.73 47.99 47.93 46.57 46.66 46.59 46.76 46.59 46.52 46.33 45.50 45.65 45.52 44.89 43.04 44.99 45.57 42.83 40.43 39.93 43.34 46.51 47.91 49.28 48.95 49.30 51.32 52.12 51.71 52.74 53.54
46.25 46.56 46.64 46.71 46.88 47.19 47.85 47.67 47.65 47.74 46.89 47.16 46.53 46.54 46.01 45.28 45.63 45.71 45.70 45.77 45.63 45.69 44.98 45.26 45.56 45.18 44.18 42.05 44.13 44.42 45.01 43.99 39.74 39.11 45.22 46.74 47.96 47.66 48.79 49.87 51.45 52.50 53.33
45.26 45.82 46.26 46.01 46.45 47.41 47.39 47.27 47.18 46.05 46.05 45.98 44.80 44.06 44.81 45.34 45.54 45.22 45.18 45.03 44.91 45.11 45.03 44.67 44.43 44.26 44.25 42.85 42.57 42.55 42.92 42.96 43.59 41.15 38.34 41.61 45.51 47.18 48.10 48.85 49.48 50.11 51.91
45.72 46.05 45.87 45.62 46.41 47.34 47.22 46.44 46.06 45.35 44.46 43.58 43.67 43.45 44.18 44.19 44.51 44.75 44.74 44.78 44.73 44.34 44.00 44.01 44.15 43.75 43.34 43.24 42.99 42.62 41.76 40.64 40.47 40.80 39.90 40.22 41.01 43.57 45.89 47.28 48.17 49.15 50.71

GFSSE_sfc_wetblb_066.txt.gz
Wetbulb
73.13 74.83 74.95 74.95 75.13 74.42 74.01 72.91 71.70 73.28 73.72 73.40 74.00 74.20 75.03 75.20 75.19 75.20 75.14 75.49 75.46 75.33 75.33 74.95 75.19 75.14 75.23 75.50 75.04 74.65 74.37 74.26 74.13 73.64 72.92 72.96 72.96 72.59 72.63 72.73 72.77 72.61 74.32
73.87 74.06 75.19 75.10 74.95 74.01 73.56 72.65 70.91 70.14 70.58 71.81 73.32 73.11 73.56 74.32 73.93 73.78 74.13 74.80 75.09 74.87 74.84 74.86 74.96 74.66 75.17 74.95 74.81 74.47 74.51 74.01 73.99 73.58 73.04 73.88 73.37 72.61 72.28 73.02 72.71 71.31 73.27
72.71 73.89 74.56 74.71 75.21 74.24 73.46 73.01 72.25 71.58 69.71 70.34 71.73 72.59 72.38 72.30 72.67 73.05 72.70 73.27 74.16 74.32 74.72 74.79 74.62 74.48 74.61 74.63 74.36 74.14 74.04 73.88 73.75 72.92 73.47 73.74 72.73 72.38 71.99 72.24 72.23 72.10 72.38
72.40 73.53 73.25 74.65 74.85 73.70 73.31 73.03 73.17 72.30 70.01 70.18 69.85 71.39 71.52 71.40 71.28 71.55 70.95 70.88 72.22 72.98 73.35 74.01 73.94 74.24 74.05 73.82 73.69 73.86 73.59 73.44 73.04 72.77 71.97 71.42 71.33 72.14 71.82 71.44 71.70 72.66 72.98
72.37 73.41 74.31 74.80 74.58 73.47 73.15 73.09 72.96 71.89 70.21 70.36 69.93 69.61 70.97 70.71 70.08 69.44 68.83 68.64 69.50 70.72 71.13 72.12 73.38 73.64 73.75 73.95 73.12 73.48 73.05 73.69 72.77 73.04 72.60 72.73 72.06 72.17 71.75 71.34 70.70 71.21 72.05
72.59 73.58 74.51 74.69 74.44 73.15 72.74 73.00 72.53 71.92 70.57 70.14 70.11 69.65 68.84 68.81 68.27 68.03 67.89 67.80 67.81 67.71 67.75 68.35 70.55 72.10 73.22 73.32 73.58 73.10 72.70 71.93 72.97 72.98 72.56 72.18 72.72 71.99 71.79 71.63 70.86 70.51 70.97
72.48 73.19 73.50 74.81 74.13 73.24 72.77 72.69 73.01 72.41 71.51 70.52 70.06 69.90 69.74 69.53 69.39 68.37 68.04 68.93 69.39 69.42 68.36 67.63 68.11 69.63 71.23 72.22 72.98 73.03 72.65 71.96 71.92 72.80 72.46 72.35 72.62 72.05 71.58 71.15 71.18 70.51 70.33
72.25 72.74 73.62 74.54 73.98 73.27 73.10 72.43 72.92 72.68 72.09 71.56 71.05 71.03 71.04 69.96 69.90 70.32 70.21 70.04 70.22 70.40 69.99 69.52 68.68 67.92 69.10 70.58 71.35 72.15 72.62 71.86 72.20 71.86 72.26 72.46 71.63 72.30 71.48 70.93 70.99 70.74 69.99
72.15 73.03 73.93 73.63 73.89 73.42 73.01 72.79 72.92 72.92 72.64 72.82 72.83 72.49 71.82 72.21 72.05 71.84 71.28 71.59 71.86 71.96 71.29 70.68 70.42 70.03 69.29 68.68 68.96 70.01 71.06 71.55 71.87 71.74 71.35 71.31 71.13 71.72 72.27 70.81 70.59 70.84 70.75
72.18 72.48 73.69 73.11 73.26 73.26 73.41 72.38 72.63 71.52 71.45 70.08 69.84 69.44 69.84 70.42 70.38 68.87 71.05 71.03 70.54 70.67 70.62 69.78 69.26 68.65 67.97 68.14 68.25 67.70 66.51 68.59 70.59 70.85 70.36 71.05 69.96 71.42 72.24 72.54 70.95 70.52 70.81
70.59 71.67 73.22 72.59 73.16 73.25 70.87 69.26 67.40 65.40 64.58 64.45 64.10 64.05 65.71 66.52 65.14 63.13 62.39 65.16 66.49 67.31 67.01 67.10 66.96 66.64 67.10 65.89 65.53 65.35 65.67 65.05 64.87 66.31 68.32 68.48 68.60 70.02 71.00 72.40 72.44 71.14 70.85
69.84 71.09 72.73 72.73 72.57 71.78 67.19 60.37 57.20 57.72 58.98 60.20 60.54 60.88 60.66 60.38 59.34 58.91 58.57 59.17 60.22 61.01 61.05 62.17 63.01 63.90 67.15 67.50 68.18 67.73 68.06 67.21 66.06 65.32 64.99 65.92 66.24 67.91 70.19 70.95 72.13 71.75 71.33
69.78 70.06 70.77 70.43 70.16 68.60 63.14 61.49 60.53 59.82 59.01 57.99 57.48 57.46 57.52 57.38 57.45 57.26 57.33 57.27 57.59 58.13 57.79 58.81 59.66 60.32 61.19 62.24 63.96 65.38 65.68 66.24 67.33 67.08 65.93 62.76 63.79 64.95 66.08 69.44 71.21 71.57 71.52
67.06 67.11 66.97 67.30 65.26 62.13 60.33 58.72 57.18 56.00 55.61 55.33 55.46 55.64 55.76 55.33 54.94 54.77 55.11 55.46 55.72 55.89 55.37 55.67 55.86 56.55 57.02 57.39 58.49 60.11 61.75 62.99 64.92 66.08 66.66 61.96 62.33 64.40 65.40 65.68 67.61 71.18 71.46
63.32 62.60 62.14 61.55 59.57 58.46 56.66 55.85 55.10 54.10 53.81 54.62 54.97 54.94 54.45 54.16 53.57 54.02 53.88 54.21 54.28 54.56 54.05 53.84 54.06 54.20 54.76 54.86 55.09 55.23 56.06 57.88 59.79 61.65 62.96 61.49 59.56 61.28 63.39 65.50 65.79 66.81 69.15
60.07 57.98 57.76 57.22 56.87 55.90 55.13 54.73 53.84 53.99 54.19 54.56 54.95 54.17 53.73 53.67 53.05 53.12 52.81 52.82 52.88 53.19 53.05 52.91 52.71 52.93 53.20 53.61 53.68 54.29 54.75 55.24 55.74 56.90 58.00 59.68 60.21 58.86 60.36 61.69 63.50 65.66 66.50
56.47 55.20 54.49 54.72 55.06 54.80 54.40 54.22 54.28 53.77 53.98 53.95 54.04 53.93 53.66 53.92 53.08 52.80 52.41 51.99 51.95 52.35 52.14 52.28 52.18 52.39 52.35 52.53 52.56 53.06 53.72 54.29 55.02 55.33 55.95 56.69 57.88 60.87 58.87 58.48 61.23 63.26 65.94
54.44 54.01 54.01 53.47 54.23 54.30 53.81 53.82 53.31 53.82 54.07 53.92 53.99 54.16 53.20 52.93 53.25 53.19 52.82 52.21 52.15 52.10 51.81 51.34 51.04 51.02 51.12 51.13 51.09 51.74 52.29 53.07 53.48 53.94 54.95 55.89 56.33 56.40 59.31 60.87 59.85 62.12 63.98
54.23 53.84 53.82 54.16 53.15 52.99 53.32 53.53 53.28 53.28 53.89 54.02 54.25 54.39 53.57 53.27 52.79 53.27 52.75 52.45 52.17 51.82 51.38 50.88 50.49 50.33 49.84 50.32 50.31 50.78 51.23 51.66 52.54 52.44 52.94 54.41 55.82 56.39 57.84 61.19 58.65 60.17 61.86
53.77 53.89 53.95 53.54 52.80 53.04 53.53 53.43 53.74 53.57 53.84 54.55 54.54 54.84 53.25 54.17 53.00 53.04 52.80 52.21 51.93 51.31 50.69 50.38 49.54 50.03 49.76 49.78 49.26 49.36 51.22 51.70 52.21 52.31 52.48 53.44 54.73 57.08 58.67 57.96 57.61 58.66 57.54
53.02 53.14 53.27 52.60 52.55 52.87 52.56 52.42 52.81 52.76 53.09 53.27 53.88 52.94 53.03 53.16 52.50 52.15 52.14 51.63 51.54 50.68 50.14 50.11 49.46 48.73 48.63 49.75 48.28 48.69 49.41 50.64 51.79 52.80 53.30 53.71 55.00 55.21 56.63 56.49 56.16 56.54 56.65
52.35 52.83 52.80 52.64 52.79 53.14 53.93 54.07 54.24 53.90 53.97 54.58 54.24 53.17 52.86 51.88 51.44 50.75 50.97 50.65 50.62 49.88 49.85 49.53 49.14 47.88 48.16 49.00 46.24 45.97 44.56 47.01 50.10 53.59 53.59 52.85 53.30 54.37 54.69 55.54 55.30 55.69 56.01
52.17 52.61 52.63 52.73 53.12 53.42 53.68 53.96 53.40 53.32 53.22 52.28 52.45 52.58 52.25 50.76 50.44 50.34 50.36 49.88 49.55 49.46 48.64 48.85 48.71 48.04 46.02 47.89 47.80 45.20 42.68 42.09 44.99 47.47 49.05 50.43 50.81 50.94 51.42 51.82 52.77 53.59 53.30
52.47 53.30 52.85 52.71 52.31 52.73 53.21 52.81 52.76 52.72 52.03 53.46 52.92 52.87 51.37 50.05 49.96 49.87 49.48 49.18 48.93 48.93 48.34 48.42 48.13 47.53 46.96 44.99 46.90 47.01 47.01 45.72 41.60 41.38 46.95 47.83 49.12 48.89 49.76 50.79 51.19 51.85 53.11
52.89 52.58 52.51 52.05 51.65 52.30 52.45 53.09 53.07 52.30 52.52 52.68 51.41 49.57 49.90 50.51 50.37 49.46 48.87 48.57 48.40 48.34 48.07 47.57 47.06 46.70 46.68 45.48 45.19 45.25 45.35 45.41 45.47 42.70 40.40 43.92 47.11 48.28 49.22 50.15 50.54 50.93 51.87
51.82 52.10 52.21 51.39 51.45 52.43 52.71 52.48 52.21 52.03 51.36 50.06 49.52 48.77 49.24 49.44 49.26 48.88 48.69 48.37 48.06 47.56 47.05 46.87 46.74 46.23 45.76 45.59 45.52 45.16 44.16 42.98 42.75 42.77 41.76 42.79 43.37 45.95 47.91 48.73 48.87 49.46 50.56

GFSSE_sfc_wetblb_069.txt.gz
Wetbulb
71.77 74.29 75.00 74.97 74.99 74.14 73.11 71.76 71.90 72.87 72.90 73.81 73.87 74.58 74.82 74.60 74.60 74.85 74.97 75.47 75.03 75.04 75.07 75.19 75.22 75.00 75.26 75.23 74.74 74.60 74.24 74.06 73.75 73.34 73.25 72.97 72.99 72.56 73.29 72.01 73.58 73.49 74.68
72.16 73.54 75.35 75.19 74.49 73.88 73.01 71.54 70.73 69.64 71.07 72.90 73.28 73.26 73.56 73.58 73.18 73.47 74.04 74.75 74.86 74.77 74.75 74.78 74.89 75.06 74.66 75.06 74.63 74.56 74.20 73.86 73.30 72.99 73.12 73.71 73.08 72.53 72.68 72.55 73.49 72.86 74.05
71.51 72.87 74.76 75.24 74.68 73.85 73.17 72.45 72.39 70.27 70.34 70.80 72.00 72.21 72.18 71.96 72.43 71.86 71.66 73.07 73.86 74.03 74.55 74.58 74.56 74.38 74.45 74.34 74.24 74.35 73.93 73.61 73.03 73.61 74.36 72.43 71.06 72.18 71.98 72.01 73.16 73.28 72.49
71.49 72.21 73.23 74.67 74.01 73.47 73.22 73.33 72.62 70.45 70.53 70.04 70.39 71.45 71.40 70.62 70.15 69.61 69.60 69.96 71.99 72.20 72.73 73.66 74.03 74.09 74.18 73.84 73.77 74.04 73.52 73.64 73.27 74.17 71.52 70.78 70.76 72.22 71.57 71.47 71.63 72.69 71.74
71.39 72.34 74.20 74.60 73.92 73.29 72.98 73.09 72.14 70.56 70.51 70.43 69.57 69.95 70.19 69.41 68.67 68.43 68.29 68.48 68.57 68.75 69.46 71.06 72.64 73.61 73.64 73.65 73.45 73.55 72.94 72.86 73.65 73.51 71.94 72.44 73.05 72.12 71.91 71.59 70.66 71.48 71.67
71.50 73.16 74.49 74.92 73.76 73.15 73.20 72.67 72.40 71.79 70.91 70.62 70.57 69.83 69.25 68.75 68.09 67.98 69.24 69.96 69.65 68.54 67.95 68.39 69.99 71.34 72.78 73.11 73.47 73.26 73.04 72.88 73.21 72.11 71.28 71.25 71.08 72.10 71.96 71.42 71.19 70.87 71.16
71.47 72.38 72.98 74.97 73.83 73.10 72.72 73.15 72.75 72.03 71.41 70.90 70.72 70.45 70.07 70.55 69.97 69.68 69.94 70.36 70.65 70.39 69.82 69.08 68.14 68.97 70.77 71.60 72.22 73.03 72.96 72.74 72.09 70.81 71.17 70.81 71.58 72.48 71.87 71.25 71.16 70.78 70.65
71.72 72.58 72.91 74.55 73.84 73.28 72.70 73.22 73.22 72.92 72.68 72.05 71.81 72.49 71.88 70.55 71.11 71.61 71.44 71.44 71.70 71.45 71.09 70.75 70.35 69.00 68.72 69.41 70.55 71.42 72.23 72.33 71.50 70.26 70.17 71.28 71.97 71.81 72.27 70.89 70.82 70.99 70.47
72.15 72.07 71.73 72.63 73.34 73.83 73.20 73.03 73.32 73.10 73.06 72.95 72.62 71.96 72.17 72.16 72.17 72.03 72.02 71.45 71.62 71.98 71.45 70.54 69.91 69.43 69.65 68.94 68.26 67.78 67.83 69.68 69.99 69.51 69.04 71.19 71.73 71.97 72.28 72.23 70.35 70.56 70.81
71.49 71.73 71.48 73.14 71.79 73.01 72.99 72.81 72.28 71.31 69.89 69.87 69.63 69.70 70.45 69.57 68.20 67.78 68.84 68.55 69.34 68.87 68.80 68.29 68.05 68.01 68.18 66.50 66.80 66.96 67.27 67.67 68.37 67.76 68.55 69.71 70.08 70.65 71.46 71.84 72.03 70.34 70.44
70.24 70.62 72.22 71.95 71.89 72.76 71.10 69.24 67.32 66.40 65.57 65.48 65.86 65.87 67.57 66.08 65.07 63.10 61.36 62.35 63.01 63.29 63.31 64.00 64.76 65.71 67.52 68.20 66.58 66.26 67.68 67.56 66.74 64.16 64.62 68.06 67.88 68.62 69.61 70.61 71.68 71.82 70.59
68.87 69.91 71.13 71.38 71.78 71.22 68.46 64.47 60.84 61.31 62.42 62.66 62.62 62.59 62.09 60.96 59.12 60.11 60.87 60.96 60.36 60.71 61.22 62.36 62.84 66.00 66.81 64.15 66.19 68.68 67.17 67.31 67.53 66.99 66.14 65.54 65.36 66.11 66.83 68.41 70.65 71.88 71.38
68.89 70.17 70.96 71.37 71.03 69.34 65.14 63.83 64.03 63.32 61.71 59.62 58.34 58.42 57.70 57.15 56.92 56.78 56.96 57.00 57.23 60.71 56.11 57.74 57.53 56.92 57.36 58.58 60.04 61.44 63.02 64.09 65.20 66.56 66.64 65.43 64.63 65.51 66.44 66.40 67.07 70.33 71.67
69.22 69.44 70.05 70.42 69.77 66.31 64.21 63.02 60.91 58.21 56.77 55.85 55.73 55.36 55.55 55.12 54.77 54.72 54.90 55.64 55.96 55.36 54.76 55.05 54.74 55.18 55.43 55.25 54.74 54.75 55.46 57.83 61.01 63.10 65.37 63.03 61.63 62.89 64.59 66.22 66.40 66.92 69.69
67.62 67.32 67.35 66.70 64.84 63.41 60.54 58.47 56.40 55.13 54.87 55.33 55.24 54.84 55.23 55.25 54.31 54.68 54.19 54.24 54.21 54.37 53.55 53.38 53.51 53.27 53.43 53.74 53.91 53.84 53.95 54.57 55.17 56.58 60.49 62.98 59.58 60.06 61.78 63.97 64.80 65.97 66.84
65.17 64.07 64.63 63.24 60.99 58.88 56.77 55.72 54.77 54.71 55.25 55.85 55.54 54.86 54.54 54.56 53.92 54.21 53.69 53.54 53.26 53.33 52.97 52.76 52.35 52.41 52.45 52.87 52.82 53.24 53.28 53.90 54.45 55.92 56.78 58.91 62.44 60.60 60.07 60.76 62.40 63.98 65.31
62.70 60.41 58.82 57.67 56.90 55.86 55.21 54.94 55.05 54.91 55.00 55.15 55.08 54.66 54.60 55.07 54.37 54.13 53.97 53.50 53.15 53.31 52.59 52.55 52.01 52.41 52.30 52.45 52.11 52.45 53.21 52.83 54.04 53.92 55.54 57.12 58.01 62.33 61.73 60.05 59.76 61.48 63.81
58.51 56.63 55.98 55.26 55.44 55.27 54.80 54.43 54.10 54.72 54.96 54.87 54.96 55.01 54.31 54.19 54.65 54.40 54.02 53.49 53.53 53.49 53.17 52.29 51.58 51.29 51.32 51.27 51.16 52.04 51.80 52.62 52.34 52.61 54.53 55.59 56.65 56.55 60.18 62.61 60.61 60.59 61.83
56.47 55.41 54.72 55.09 54.60 54.21 53.66 53.77 53.95 54.27 54.55 54.66 54.84 54.78 54.29 53.69 53.56 54.02 53.70 53.50 53.41 53.18 52.73 52.06 51.48 50.96 50.27 50.81 51.02 51.32 51.75 52.48 52.84 52.69 52.76 54.73 56.09 57.22 57.25 60.18 60.69 59.89 60.31
55.48 55.05 54.89 54.63 53.64 53.42 53.89 53.65 54.02 54.15 54.43 54.77 54.49 54.62 53.34 53.90 53.26 53.63 53.57 53.32 52.97 52.66 52.32 51.93 50.87 51.05 50.48 50.36 49.38 49.58 51.26 52.22 52.89 53.12 52.52 53.10 55.11 57.36 57.91 59.99 59.52 58.53 61.37
54.60 54.24 54.27 53.58 53.36 53.47 53.35 53.04 53.24 53.13 53.73 53.91 54.36 53.39 53.20 53.29 52.76 52.91 52.95 52.64 52.65 51.69 51.31 51.52 50.69 49.68 49.85 50.43 49.05 49.28 49.70 50.27 50.75 52.47 52.88 53.38 55.09 55.67 56.63 56.51 58.04 57.06 57.19
53.76 54.13 54.12 53.69 53.56 53.65 54.31 54.52 54.64 54.29 54.61 54.63 55.36 54.07 53.73 53.02 52.44 52.01 51.85 51.69 51.60 51.34 50.77 50.63 51.04 49.03 48.99 49.99 46.92 47.02 44.01 46.84 49.97 51.33 52.17 50.73 50.29 53.10 52.91 54.48 54.90 56.06 56.68
53.64 53.87 53.86 53.77 53.75 53.97 54.75 55.04 54.90 54.54 54.69 53.52 53.36 53.45 53.72 52.97 51.96 51.55 51.45 51.03 50.57 50.71 50.14 50.54 50.48 50.20 46.93 48.26 48.05 45.59 42.06 41.38 45.10 47.89 48.76 49.89 49.97 50.99 50.98 51.74 52.33 53.08 53.47
53.98 54.61 54.20 54.09 53.76 54.13 54.81 54.09 53.70 52.91 52.41 54.21 54.34 54.25 53.38 52.71 51.49 51.35 51.04 50.66 50.05 49.91 49.45 50.02 49.35 48.55 48.22 45.51 47.66 47.26 47.10 46.34 42.40 41.44 46.87 48.08 48.84 48.64 49.73 50.38 50.65 51.07 52.07
54.46 54.20 54.27 53.92 53.59 54.00 53.55 54.34 54.31 53.56 54.00 54.35 53.68 52.52 52.08 51.95 51.93 51.57 50.84 50.11 49.58 49.54 49.05 48.23 47.62 47.03 47.67 46.21 46.05 46.05 45.61 46.14 45.56 42.91 40.68 43.85 47.18 48.65 49.75 50.07 50.32 50.76 51.59
54.56 54.62 54.44 53.57 53.14 53.74 53.91 53.70 53.76 53.45 53.21 52.85 52.33 51.07 50.97 51.38 51.17 50.74 50.50 50.03 49.48 48.69 47.83 48.00 47.68 46.82 46.27 46.02 46.15 45.52 44.89 43.62 42.91 42.96 41.77 42.60 43.13 45.86 48.10 49.09 49.43 49.85 50.62

GFSSE_sfc_wetblb_072.txt.gz
Wetbulb
70.93 72.96 75.62 75.55 74.67 73.43 71.62 70.96 71.61 72.02 73.42 73.63 74.00 74.58 74.23 73.78 74.12 74.79 75.10 75.22 75.11 75.16 75.04 75.25 75.10 75.13 75.00 74.75 74.87 74.43 73.86 73.76 73.89 73.64 72.71 73.00 73.05 72.63 73.18 73.66 74.24 72.90 74.75
71.20 73.42 75.99 75.06 74.43 73.32 71.91 72.02 69.85 70.70 72.12 72.85 72.84 72.98 73.05 72.51 72.45 72.77 73.96 74.54 74.78 75.02 74.98 74.91 74.90 74.85 74.77 74.57 74.70 74.34 73.94 73.27 73.19 73.12 73.42 73.04 72.55 72.78 72.34 73.85 73.16 72.25 74.28
71.15 73.20 74.22 75.00 74.11 73.35 72.92 72.74 70.64 70.59 70.35 71.46 71.78 71.83 71.15 70.96 70.76 70.44 71.14 72.89 73.33 73.52 74.20 74.49 74.50 74.40 74.27 74.28 74.47 73.84 74.03 73.85 73.90 74.93 74.42 70.03 69.68 71.80 71.89 72.11 73.10 72.08 73.67
70.62 72.43 73.23 74.58 73.77 73.56 73.45 72.83 70.86 70.81 70.27 70.17 71.14 70.78 70.16 69.50 69.05 68.84 69.27 69.98 70.24 70.92 71.94 73.25 74.04 74.05 73.91 73.80 73.93 73.68 73.17 73.58 74.03 74.85 69.66 71.29 70.44 72.05 71.45 71.31 71.98 71.62 72.28
71.84 72.57 73.61 74.25 73.58 73.17 73.28 72.36 71.28 71.04 70.93 70.29 69.68 69.57 69.13 68.61 68.47 69.07 69.40 69.14 68.57 68.58 69.17 70.38 71.94 73.01 73.54 73.74 73.67 73.54 73.61 73.59 74.11 73.33 69.13 69.25 69.27 71.91 71.81 71.55 70.94 71.59 71.68
70.88 72.02 74.75 74.25 73.75 73.35 72.88 72.67 72.23 71.43 71.14 71.02 70.69 70.58 70.86 69.32 69.43 70.52 70.89 71.07 70.42 69.83 69.06 68.26 68.86 70.83 71.87 71.89 73.25 73.24 73.35 73.42 73.83 70.85 70.02 71.29 70.01 72.72 72.00 71.47 71.08 70.94 71.40
69.93 71.53 73.70 74.20 73.45 73.26 73.36 72.90 72.21 71.83 71.54 71.54 71.30 70.90 71.02 71.31 71.51 71.62 71.56 71.68 71.77 71.47 71.24 70.85 69.19 68.85 69.36 70.55 71.52 72.29 72.98 72.81 70.46 68.92 68.52 69.59 70.90 73.04 72.33 71.39 71.26 70.81 70.96
69.22 71.33 72.84 74.33 73.84 73.35 73.66 73.53 73.53 73.35 72.86 72.59 72.86 72.73 71.91 72.00 72.35 72.19 72.47 72.52 72.46 72.21 71.46 71.00 70.56 70.17 69.73 68.70 68.36 68.53 69.27 70.59 69.13 68.29 68.22 70.04 72.69 72.51 72.59 71.53 70.97 71.08 70.61
70.04 70.55 70.96 71.65 72.95 74.42 73.48 73.71 73.41 72.97 72.96 72.65 72.04 72.35 72.47 71.67 71.47 71.38 70.95 70.81 70.27 70.40 69.82 69.18 68.96 69.05 68.74 68.43 68.25 67.83 67.71 68.63 65.27 66.93 67.42 68.98 72.64 71.98 72.04 72.18 70.96 70.54 70.85
69.00 70.42 70.83 70.87 71.59 71.17 71.75 72.87 72.07 71.21 71.34 70.83 70.69 71.17 70.03 68.04 66.67 66.16 65.30 65.94 65.86 65.80 65.33 65.43 65.73 66.94 67.71 68.21 67.99 68.12 68.84 69.27 63.40 61.28 66.77 67.94 69.99 69.54 70.08 70.97 71.67 70.84 70.15
68.28 70.24 70.08 69.92 70.69 70.52 69.77 69.30 69.25 68.87 67.49 67.56 67.12 68.34 69.11 59.68 59.70 58.37 61.08 62.01 62.02 62.23 61.93 62.43 63.70 66.11 67.86 69.28 68.49 69.67 69.96 64.73 64.18 62.90 64.59 67.78 67.34 67.50 67.70 68.79 70.53 71.74 70.79
66.20 69.09 69.41 69.68 70.09 69.46 67.74 62.83 59.18 59.90 59.12 59.07 58.81 57.57 57.08 55.49 54.64 57.64 60.45 63.89 63.13 62.91 64.61 64.52 64.96 64.18 60.63 55.13 57.00 62.83 59.95 59.81 61.85 63.22 63.07 67.06 66.92 67.01 67.25 67.18 67.42 70.33 71.69
66.09 68.30 69.31 69.60 69.43 65.75 62.10 59.02 58.52 58.78 56.25 52.94 52.14 52.55 51.92 52.53 51.59 51.68 51.50 52.05 51.52 57.64 51.54 53.16 51.88 51.81 50.79 50.90 50.81 50.03 51.15 52.68 56.67 59.47 65.42 66.17 65.48 65.48 66.16 66.60 67.13 67.19 69.93
66.82 66.18 68.71 69.07 67.66 63.05 60.79 58.77 55.99 52.49 51.46 50.45 50.40 51.00 50.12 50.07 49.63 49.39 49.75 50.23 49.82 49.79 48.39 48.97 49.12 48.84 48.92 49.27 47.77 47.85 48.08 48.82 49.78 51.54 61.99 65.02 62.61 61.67 61.80 64.37 66.02 66.66 67.21
65.41 65.65 66.12 64.70 61.51 60.05 56.41 53.25 51.26 50.21 50.08 50.66 50.13 50.26 50.28 49.93 48.53 49.05 48.33 48.73 48.43 48.59 47.81 47.65 47.42 47.67 47.43 48.28 48.46 47.84 47.25 47.53 48.37 49.96 51.28 63.34 62.19 60.18 60.34 60.85 62.57 64.99 65.85
63.96 63.26 62.15 61.85 58.64 55.48 52.19 50.58 49.62 50.26 51.02 50.94 50.17 49.48 50.40 49.50 48.47 48.97 48.46 48.55 48.04 47.94 47.45 47.11 46.17 46.65 47.03 47.51 48.00 47.86 47.05 46.98 47.68 48.59 50.23 51.33 63.46 63.46 61.04 60.38 60.39 61.14 63.06
61.64 61.25 60.01 56.04 54.43 51.27 50.26 50.49 50.41 50.48 51.71 50.25 49.95 49.82 50.20 50.62 49.30 49.32 48.75 48.07 47.83 48.34 48.43 47.87 47.19 47.55 46.94 48.02 45.87 47.05 47.35 47.22 47.71 47.17 47.90 49.90 52.47 60.30 63.85 61.37 60.01 60.46 61.01
57.55 55.23 53.23 54.15 51.67 50.66 50.05 49.79 49.78 50.42 50.35 50.04 49.81 49.52 50.01 50.42 49.99 49.28 48.87 48.04 48.12 48.54 48.27 47.31 46.71 46.16 45.69 45.34 44.68 45.58 45.71 46.39 46.81 46.98 48.30 48.65 49.79 52.00 56.38 62.26 59.69 60.64 60.71
54.37 51.65 50.81 50.85 51.08 50.78 49.25 49.16 49.37 49.51 49.43 49.49 49.62 49.73 49.88 50.16 50.20 49.19 48.67 48.19 48.55 48.35 47.86 47.48 46.57 45.50 44.42 44.54 45.77 44.52 44.78 45.44 46.21 49.54 46.66 47.47 48.60 50.74 50.89 57.85 61.57 61.70 60.31
52.21 51.16 50.82 50.65 49.82 49.00 48.71 48.32 48.59 48.59 48.73 49.34 49.22 49.63 49.71 49.69 49.53 48.56 48.76 48.21 48.11 47.23 47.09 46.32 44.70 45.17 44.54 44.40 47.68 46.73 44.14 44.95 45.46 45.55 46.19 48.54 48.50 50.22 50.71 51.63 53.98 55.31 60.37
50.75 50.14 49.84 49.45 48.24 48.48 47.49 47.56 47.31 47.30 48.15 48.41 49.36 49.25 48.93 48.76 48.99 47.44 47.55 47.07 47.09 45.97 45.21 45.93 44.89 43.86 43.22 44.16 42.31 42.34 42.69 45.90 44.32 43.83 44.59 45.89 46.50 47.27 49.11 50.62 51.68 52.63 52.87
49.66 49.67 49.51 49.31 48.75 49.20 48.98 48.92 49.00 48.49 49.19 49.39 50.32 49.26 49.28 48.80 48.54 47.94 46.26 46.26 46.04 44.94 44.73 44.70 44.17 43.05 42.76 43.38 39.90 39.25 37.21 40.21 42.22 44.47 43.68 44.71 43.90 44.53 46.07 47.20 46.45 47.88 49.15
48.99 49.25 49.34 49.04 49.16 49.46 49.85 49.71 49.38 49.47 48.96 48.28 48.22 48.59 49.53 49.32 48.27 47.09 46.30 45.19 44.61 44.30 43.64 43.80 43.59 42.80 40.67 41.50 41.50 39.14 35.73 34.34 39.71 42.17 41.16 42.94 42.64 43.31 43.13 44.66 45.76 46.41 46.38
49.60 50.06 50.07 49.88 49.31 49.91 50.24 49.08 48.21 47.59 46.42 48.34 48.76 49.33 49.09 48.63 47.64 47.18 46.57 45.69 44.50 44.03 43.25 43.02 44.83 41.49 40.37 38.67 40.24 43.80 40.13 38.50 36.85 36.41 39.59 40.84 42.32 43.58 42.70 43.46 44.18 44.87 44.85
50.40 49.88 49.91 49.50 49.20 49.35 49.16 49.38 48.69 48.04 48.66 49.25 48.32 47.35 47.05 47.23 47.39 47.21 46.44 45.17 44.24 43.79 43.20 42.41 41.80 40.97 40.36 38.90 38.25 38.41 38.01 38.26 38.16 37.81 36.10 38.52 40.04 41.44 42.10 42.77 43.58 43.99 44.57
50.72 50.72 50.11 49.28 49.01 49.18 48.97 48.58 48.41 47.65 47.70 47.22 47.43 45.97 45.92 45.86 45.92 46.10 46.31 44.63 44.08 43.19 42.46 42.05 41.47 40.74 40.12 39.60 39.22 38.72 37.79 36.86 37.29 36.98 36.91 37.60 37.85 40.07 41.04 41.93 42.53 42.42 43.69

GFSSE_sfc_wetblb_075.txt.gz
Wetbulb
69.73 72.79 76.03 75.08 73.47 71.62 70.96 71.09 71.63 72.92 73.34 73.54 73.99 73.41 73.12 73.43 74.27 74.81 75.12 75.08 74.94 74.86 75.01 74.88 75.00 74.96 74.69 74.65 74.39 73.76 73.74 73.84 73.63 72.61 72.12 72.44 72.59 73.36 74.11 73.31 73.68 72.80 74.60
71.98 73.48 75.30 74.83 73.49 72.34 71.77 70.10 70.70 71.76 72.27 72.33 72.38 72.38 72.01 71.86 71.53 73.01 73.58 73.89 74.54 74.67 74.69 74.67 74.54 74.57 74.38 74.50 74.01 74.07 74.09 73.88 73.56 72.93 71.90 72.34 72.55 72.41 72.96 72.90 73.40 72.97 74.51
72.13 73.68 73.68 74.43 73.24 73.11 72.22 70.81 70.57 70.18 71.06 71.56 70.94 70.20 70.02 69.78 69.68 70.71 71.54 71.86 72.38 73.26 74.19 74.10 73.99 74.12 73.89 74.17 74.03 73.74 73.94 74.28 74.50 73.69 72.45 68.71 68.52 71.45 71.52 71.86 71.80 73.28 74.00
72.67 73.36 73.09 73.87 73.62 73.26 72.40 71.12 70.91 70.13 70.16 70.73 70.37 69.55 69.05 68.86 68.97 69.17 69.42 69.57 70.11 70.96 72.01 72.92 73.72 73.78 73.91 74.00 73.83 73.83 73.96 73.94 74.10 73.88 70.12 69.95 69.73 71.65 71.37 71.43 71.57 71.85 72.65
71.58 72.79 72.49 73.74 73.41 73.80 72.28 71.57 71.40 71.14 70.46 69.86 69.97 69.17 68.83 69.54 70.64 70.90 70.56 69.45 68.89 68.76 68.78 69.60 71.53 72.38 72.40 73.31 73.41 73.57 73.79 73.89 74.15 72.02 69.12 68.29 69.04 71.19 71.59 71.09 70.95 71.79 72.12
71.54 72.27 74.02 73.69 73.36 72.89 72.81 72.50 71.89 71.57 71.43 71.02 71.04 71.48 69.86 70.79 71.36 71.56 71.68 71.74 71.32 71.19 70.32 68.96 68.83 69.33 70.92 70.80 72.21 72.70 73.07 72.95 71.82 68.55 70.35 71.12 69.34 72.26 71.70 71.26 70.92 71.09 72.05
71.53 72.54 72.16 73.71 73.54 73.36 72.93 72.44 72.17 71.99 72.16 71.88 71.35 71.48 71.89 72.05 71.87 72.45 72.81 72.62 72.39 71.76 71.45 71.12 70.69 70.00 68.89 68.54 68.43 68.83 69.27 69.86 67.53 68.42 68.80 69.69 70.53 73.17 71.86 71.32 70.95 70.72 70.90
71.51 72.67 71.93 73.61 73.70 74.03 73.56 73.46 73.53 73.24 73.06 72.94 72.72 72.21 72.24 72.39 72.54 72.07 71.86 71.50 71.38 70.85 70.44 70.03 69.89 69.67 69.34 69.20 68.85 68.48 68.27 68.64 65.04 66.83 68.97 69.60 72.68 72.60 72.49 71.50 70.94 70.75 70.48
71.73 71.81 71.34 71.84 73.14 74.39 74.03 73.73 73.23 73.02 72.78 72.71 72.58 72.31 71.49 71.04 70.20 69.66 69.62 68.71 68.30 66.87 66.87 66.33 67.32 67.82 68.06 68.76 69.06 69.45 69.54 69.84 64.16 62.88 68.39 68.34 72.23 71.51 71.64 71.60 71.17 70.64 70.56
69.97 70.64 69.95 70.81 70.86 71.30 71.37 72.83 72.57 72.14 71.94 71.92 71.65 70.00 68.44 66.79 64.87 64.34 63.65 63.98 63.78 63.69 63.75 64.56 66.28 67.14 66.32 69.06 68.90 69.64 70.96 69.21 63.41 63.86 66.33 67.25 69.96 69.07 69.26 70.21 71.09 70.70 70.26
68.71 68.86 69.84 70.04 70.18 69.62 69.20 70.64 70.07 69.84 69.14 69.51 69.82 70.17 62.08 57.65 56.85 57.05 63.89 65.03 62.91 62.91 63.98 64.72 64.46 64.65 62.28 61.02 62.80 65.54 64.11 58.93 60.31 63.62 64.01 68.98 68.29 67.88 67.79 67.70 68.29 71.03 70.73
67.10 68.16 69.20 69.06 68.39 67.78 67.85 63.78 61.51 62.16 59.54 58.60 56.47 58.88 53.34 52.16 53.88 56.83 60.46 61.35 60.94 60.78 60.89 60.93 60.98 59.57 55.16 49.12 49.23 54.13 49.41 49.71 54.09 61.45 63.69 68.36 67.58 67.62 67.46 67.40 67.32 67.53 70.77
66.75 67.86 68.16 68.42 68.10 63.95 61.29 58.38 55.40 54.77 49.97 49.16 48.97 49.39 48.86 49.34 48.70 48.51 48.79 48.73 47.78 54.51 48.07 49.82 48.29 47.71 46.65 46.98 46.89 46.34 47.25 47.28 47.63 55.43 65.43 66.47 64.44 63.19 62.97 64.16 66.36 66.99 67.38
66.29 67.78 68.76 68.23 62.29 60.20 59.09 56.39 53.68 49.12 47.87 47.23 47.81 48.62 47.68 46.87 46.46 46.35 46.48 46.65 46.32 45.89 45.49 45.33 45.32 46.00 46.30 46.93 44.97 45.49 45.20 45.74 46.71 47.64 56.59 64.63 62.17 61.00 59.99 60.61 62.16 65.39 66.23
64.48 65.10 66.49 62.75 59.49 56.79 50.80 48.77 48.20 47.76 47.33 47.43 47.14 48.26 47.64 46.52 45.97 45.85 45.48 45.81 45.52 45.55 44.99 44.76 44.49 45.20 45.24 46.07 46.36 45.85 45.12 44.94 45.32 46.92 47.43 57.88 63.30 62.05 60.93 59.84 60.45 61.14 63.34
61.50 60.34 60.70 59.85 54.43 51.05 48.44 47.60 47.46 47.84 47.76 47.65 46.97 47.47 48.37 46.35 46.10 46.13 45.98 45.83 45.58 45.38 45.44 45.17 44.45 44.94 44.99 45.17 46.17 46.03 45.49 45.00 45.37 45.64 46.27 47.10 58.73 62.70 61.46 60.13 60.25 59.97 60.97
59.47 59.25 57.71 54.19 50.49 48.04 47.75 47.90 47.73 48.72 49.22 47.55 47.23 47.97 48.40 47.85 46.98 46.52 45.76 45.18 44.97 45.83 46.51 45.73 45.76 45.46 45.05 45.98 43.80 44.79 45.32 44.77 45.21 45.11 45.75 46.54 48.66 56.06 59.74 61.77 59.26 59.34 60.30
57.74 53.90 52.36 52.70 49.25 47.86 47.77 47.54 47.87 48.58 48.21 47.11 46.64 46.75 48.20 48.56 47.70 46.81 46.20 45.49 45.80 46.55 46.30 45.12 44.78 44.44 43.88 43.35 42.27 43.31 42.21 43.68 44.28 44.62 45.77 45.74 46.18 48.16 52.48 57.61 60.12 58.04 59.37
51.55 49.69 49.27 48.65 48.68 48.40 47.50 47.55 47.36 47.36 46.87 46.68 46.76 46.82 47.64 48.34 48.55 46.76 46.10 45.76 46.39 46.13 45.68 45.03 44.27 43.11 42.35 42.77 44.43 43.74 42.78 42.91 43.14 46.64 43.46 44.82 45.38 47.08 48.31 54.83 61.06 61.43 59.33
50.10 49.50 49.27 48.29 47.22 46.92 45.90 45.35 45.56 45.84 46.02 46.20 46.64 47.14 47.76 47.75 48.00 46.77 46.46 45.89 45.82 45.04 44.33 43.93 42.90 43.31 42.44 42.23 45.88 44.77 41.79 43.39 42.57 41.70 42.02 45.33 45.31 45.72 46.57 48.98 50.39 53.37 60.92
48.86 48.13 48.17 47.02 45.41 45.74 44.79 44.81 44.67 45.31 45.58 45.88 46.82 47.22 47.31 47.25 47.47 45.91 45.74 45.16 45.10 44.27 43.54 43.67 42.73 42.05 41.48 41.56 40.02 39.89 40.38 41.67 40.15 39.97 41.13 41.09 43.07 43.63 43.51 44.87 45.49 49.29 51.23
47.01 47.59 47.42 47.03 46.01 46.41 46.52 46.01 45.90 45.16 45.96 46.29 47.25 46.95 47.67 47.14 47.06 46.27 45.04 44.71 43.90 43.25 42.54 42.14 41.78 40.64 40.79 40.98 38.38 36.42 35.29 37.73 39.25 42.93 44.09 41.74 43.65 42.09 43.19 44.04 43.15 43.56 43.75
45.91 46.23 47.27 46.94 46.16 47.23 47.68 47.08 46.68 46.83 46.46 46.22 46.13 46.44 47.23 47.54 47.15 46.08 44.89 44.04 43.12 42.17 41.62 41.16 41.02 40.19 38.56 39.35 39.10 37.83 34.04 32.41 37.28 38.96 39.12 40.52 39.47 40.65 41.16 41.32 42.55 43.57 43.35
46.61 47.01 47.11 47.08 46.72 48.00 47.66 47.20 46.22 45.52 44.43 45.31 45.67 46.79 47.17 47.51 46.26 45.95 44.86 43.89 42.94 42.04 41.16 40.83 43.34 39.67 38.03 36.86 37.73 41.52 37.58 36.42 33.80 34.02 36.74 37.95 39.68 40.74 39.69 40.17 41.50 42.43 42.82
47.26 47.12 47.28 46.78 46.51 47.02 46.86 47.07 46.34 45.42 45.78 46.52 46.20 45.73 45.07 45.56 45.94 45.28 44.22 43.39 42.15 41.35 41.10 40.41 39.74 38.91 38.21 37.24 36.57 36.34 35.54 35.94 35.56 34.15 34.43 36.97 37.15 38.77 39.58 40.09 40.15 40.27 41.71
46.93 47.09 46.99 47.05 46.74 46.29 45.98 46.54 46.22 45.36 45.08 44.92 44.80 43.76 43.70 43.39 43.59 44.01 44.32 42.39 41.68 40.94 40.57 40.38 39.63 38.47 38.09 37.35 37.13 36.64 36.06 34.99 35.32 33.36 33.56 35.06 35.57 37.88 37.90 39.03 39.26 40.18 40.96

GFSSE_sfc_wetblb_078.txt.gz
Wetbulb
70.05 72.73 75.15 73.70 72.23 71.79 71.34 71.93 72.47 72.98 73.15 73.12 72.68 72.76 73.07 73.86 74.29 74.71 74.79 74.67 74.63 74.56 74.51 74.51 74.20 74.51 74.16 74.04 73.99 73.77 73.46 73.35 72.43 71.89 71.64 71.84 72.61 73.23 73.09 74.05 73.83 72.91 74.45
71.22 73.55 74.97 73.33 71.81 70.89 70.36 71.19 71.82 71.81 71.98 71.97 71.71 71.20 71.24 71.27 72.57 72.81 73.43 73.68 73.94 74.06 74.52 74.46 74.07 74.07 74.12 73.97 73.89 74.02 73.50 73.32 72.70 71.63 71.12 71.90 72.21 71.83 72.02 72.72 73.58 72.87 74.34
72.28 73.11 73.24 73.35 72.88 71.49 70.83 70.35 70.64 71.04 71.20 70.38 69.81 69.46 69.47 69.69 70.21 71.20 71.66 72.09 72.58 72.89 74.05 73.75 73.82 73.89 73.83 73.94 74.02 73.66 73.69 73.60 73.33 71.99 71.01 67.38 68.14 71.00 71.65 71.23 72.75 73.63 73.89
72.55 72.69 71.82 73.26 72.93 71.71 71.06 70.41 70.06 70.61 70.51 69.95 69.23 68.95 68.93 69.23 69.20 69.27 69.40 69.78 70.22 71.02 71.87 72.96 73.18 73.22 73.55 73.59 73.57 73.73 73.72 73.25 73.11 72.63 68.87 68.90 69.18 71.39 71.02 71.37 71.77 72.57 73.02
72.04 72.27 71.57 73.43 73.27 71.87 71.35 71.22 70.63 70.03 69.91 69.99 69.31 69.04 70.52 71.01 71.13 70.72 69.93 69.58 69.00 68.58 68.54 69.18 70.61 71.15 70.83 72.32 72.38 72.88 72.86 71.79 72.77 70.98 68.25 67.89 67.95 70.63 71.19 70.97 71.28 71.81 71.87
71.22 70.60 73.09 73.37 73.13 72.44 72.13 71.87 71.66 71.50 71.09 71.52 71.00 70.05 71.20 71.50 71.53 71.87 72.13 71.61 71.39 71.36 70.78 70.06 69.27 68.75 68.78 68.72 68.51 68.69 69.39 69.94 68.86 68.93 69.63 70.32 68.53 71.69 71.32 70.87 70.76 71.42 71.68
70.72 71.40 71.39 73.33 73.07 72.74 72.44 72.10 71.93 72.04 71.76 71.47 71.80 71.96 71.77 72.05 72.49 72.85 72.18 72.06 71.10 71.29 70.94 70.56 70.24 69.97 69.78 69.69 69.96 69.74 68.34 68.68 66.52 68.37 68.91 69.03 70.41 72.18 71.56 70.99 70.55 70.55 71.15
71.01 71.10 71.33 73.36 73.50 73.08 72.60 72.67 73.04 73.26 72.88 72.63 72.20 72.04 72.24 72.21 72.28 71.70 71.12 70.50 69.68 68.94 68.61 68.86 68.70 68.34 69.04 69.83 70.08 70.07 70.29 68.96 65.27 68.04 68.36 69.04 71.65 71.73 72.14 70.92 70.64 70.28 70.28
71.27 70.32 70.55 71.57 73.52 74.06 73.80 73.42 73.04 72.80 72.76 72.49 72.16 71.87 71.24 70.22 69.67 68.65 67.73 65.90 65.07 64.97 64.94 65.78 65.40 65.13 67.81 67.96 67.46 67.71 68.49 69.49 60.76 63.76 67.63 67.04 71.81 70.56 71.06 71.17 70.79 70.20 69.97
70.47 70.21 69.46 70.51 71.24 71.30 71.51 73.15 72.79 72.37 72.26 71.77 70.45 68.99 67.32 64.72 64.72 64.10 63.58 64.23 63.63 63.90 63.72 63.36 63.20 62.80 62.67 63.07 63.32 62.92 61.59 62.52 61.35 65.26 65.58 66.39 69.47 68.16 68.61 69.14 70.47 70.72 69.80
69.37 69.00 69.67 69.85 70.42 69.72 69.61 70.98 71.02 70.46 70.83 70.85 67.95 66.80 61.19 54.94 55.65 57.43 63.77 63.39 62.33 62.27 62.19 61.83 61.30 60.83 58.70 58.46 60.35 59.84 56.13 50.46 60.21 62.39 63.66 69.48 68.83 68.43 68.04 67.75 67.74 69.09 70.94
66.44 68.15 68.72 69.37 68.37 68.43 69.81 66.44 62.77 62.02 59.81 57.66 62.54 52.33 51.29 52.13 53.60 55.68 58.29 60.35 60.44 59.35 59.85 59.66 59.24 57.57 52.81 46.28 47.04 52.01 46.60 46.61 49.26 60.19 63.34 68.14 65.36 64.62 64.89 66.14 67.28 67.46 68.27
66.49 68.13 68.57 68.17 67.42 65.63 64.08 58.83 55.10 49.75 47.96 47.90 49.19 47.99 47.99 48.74 47.23 46.76 46.25 45.78 45.76 52.64 45.83 47.53 46.29 46.06 45.29 45.56 45.56 44.76 45.29 44.92 44.66 48.22 61.26 64.99 63.61 61.81 60.97 61.45 63.27 66.36 67.00
66.26 67.47 68.21 67.42 63.53 60.01 58.67 54.91 53.52 47.01 46.39 45.99 46.53 46.90 45.67 44.75 44.42 44.34 44.90 44.92 44.79 44.22 43.79 43.66 43.93 44.59 44.96 45.34 43.57 43.85 43.43 43.79 44.05 45.43 48.20 58.79 61.19 62.05 61.41 60.51 60.79 61.82 64.63
65.55 66.75 67.30 64.13 58.96 57.26 53.41 49.16 47.61 47.14 45.82 45.79 46.08 46.70 45.72 45.17 44.38 45.00 44.50 44.65 43.95 44.24 43.79 43.46 43.62 43.84 43.87 44.56 44.67 43.94 43.55 43.22 43.64 45.20 45.13 55.45 58.73 60.65 60.95 60.27 60.68 60.45 61.17
65.33 65.63 63.85 60.48 54.11 49.22 47.24 46.59 46.34 46.34 45.74 45.76 45.51 46.08 46.48 45.77 45.25 45.22 44.50 44.44 44.18 44.10 43.75 43.69 43.49 43.32 43.11 43.31 44.41 44.28 43.22 42.77 43.36 43.71 44.82 45.13 55.82 58.16 60.13 59.88 59.67 59.24 60.37
62.86 60.08 59.21 53.57 49.33 46.97 46.68 47.08 46.92 47.04 46.98 45.82 46.25 47.14 47.13 46.65 45.51 44.65 44.16 43.97 43.55 44.52 44.75 44.41 44.26 43.86 43.75 44.65 42.58 43.59 43.50 42.74 43.40 43.26 44.27 44.82 46.14 52.81 56.34 58.87 59.19 58.83 58.91
58.93 57.76 55.31 52.75 48.25 47.07 46.84 46.75 47.09 47.25 46.52 45.88 45.58 46.12 47.24 47.37 46.44 45.10 44.80 44.08 44.39 45.07 44.75 43.88 43.33 42.93 42.64 42.19 41.61 42.63 42.26 42.66 42.64 42.73 43.72 43.32 43.58 46.05 50.19 56.59 60.01 58.01 58.08
55.20 50.53 48.53 48.10 47.62 47.10 46.10 46.04 46.36 46.36 45.71 45.09 44.90 45.65 46.59 47.89 47.38 45.37 44.73 44.62 45.21 44.68 44.07 43.55 43.14 42.39 41.85 42.05 43.57 42.91 41.78 41.46 41.16 44.34 41.05 42.65 43.73 44.20 45.10 51.48 57.40 59.39 60.23
50.22 48.70 47.77 47.20 46.25 45.61 44.82 44.35 44.53 45.24 45.02 44.98 45.10 45.65 46.76 46.91 47.21 45.76 45.22 44.88 44.34 43.74 43.15 42.50 42.07 42.15 41.55 41.30 44.60 43.26 40.81 40.73 39.68 39.74 39.91 42.80 42.18 42.86 42.57 43.70 44.77 47.67 55.69
48.23 48.23 47.13 46.32 45.10 45.60 44.01 43.64 43.23 43.80 43.97 44.38 45.48 47.02 46.38 46.20 46.39 45.13 44.87 44.20 43.93 43.29 42.41 42.45 41.80 41.17 40.89 40.36 38.79 38.71 38.41 39.52 37.70 38.91 39.34 39.13 41.06 41.82 41.63 42.62 42.34 42.63 44.45
47.77 47.76 45.89 46.42 44.96 44.89 45.17 44.24 44.29 43.61 43.90 44.57 45.47 45.22 46.10 45.91 45.90 45.25 44.22 44.06 43.17 42.69 41.52 41.22 40.62 39.56 39.75 39.38 37.43 34.90 33.87 36.53 38.15 40.95 41.17 39.68 39.62 39.92 42.50 42.50 40.54 41.36 41.61
45.92 46.02 45.73 45.17 45.06 45.12 45.43 45.35 45.30 45.46 45.08 44.85 44.93 44.78 45.38 45.80 45.65 45.28 43.98 43.35 42.50 41.48 41.26 40.29 39.98 39.18 37.78 38.07 37.61 36.94 32.88 30.88 33.65 37.09 38.07 39.00 37.62 39.18 38.94 39.64 40.85 41.24 41.29
46.09 46.76 46.64 45.87 45.54 46.11 45.74 45.81 45.23 44.62 43.61 44.04 44.42 45.13 45.83 45.85 45.39 45.20 44.15 42.81 41.62 40.89 40.23 39.70 41.59 38.73 37.28 35.99 36.57 39.81 36.44 35.78 32.99 32.35 35.28 36.65 38.51 38.53 38.00 38.48 39.49 40.20 40.06
45.14 45.10 45.31 44.93 44.79 45.54 45.01 45.96 45.12 43.83 44.22 44.81 45.17 44.80 44.18 44.30 44.01 44.06 42.80 41.76 41.08 40.26 39.70 39.56 38.71 37.64 37.09 36.40 35.72 35.22 34.22 34.36 33.86 32.85 33.42 34.42 37.03 36.92 37.80 38.00 38.48 38.69 39.55
44.51 44.60 44.65 44.56 44.76 45.10 45.00 44.69 44.70 44.28 44.39 44.17 43.29 43.19 42.57 42.35 42.30 42.42 42.97 41.38 40.82 40.05 39.52 39.32 38.40 37.30 36.93 35.94 35.90 35.41 35.03 34.04 33.00 32.27 30.64 33.21 34.54 36.19 36.56 37.78 37.65 38.40 39.63

GFSSE_sfc_wetblb_081.txt.gz
Wetbulb
69.86 72.22 74.20 73.05 72.73 71.43 71.73 72.32 72.64 72.98 72.87 72.32 72.28 73.00 73.71 73.94 74.19 74.40 74.21 74.10 74.08 74.09 74.11 73.72 74.04 73.77 73.92 74.03 73.86 73.35 73.30 72.31 71.67 71.31 70.84 71.42 72.24 72.91 74.19 74.20 74.06 72.77 74.29
71.30 72.95 74.05 72.13 71.30 70.92 71.59 71.88 71.78 71.89 71.94 71.47 70.86 71.02 71.86 72.24 72.04 72.30 73.53 73.82 73.90 74.18 74.13 73.76 73.69 73.86 73.93 73.69 73.08 73.49 73.34 72.68 71.77 70.97 70.98 71.20 72.03 71.73 72.52 73.60 74.42 72.89 74.47
72.11 72.73 71.29 72.23 71.14 70.70 70.96 71.11 70.98 70.80 70.27 69.64 69.29 69.43 69.73 70.25 71.00 71.65 72.05 72.18 72.56 73.06 73.61 73.42 73.65 73.68 73.73 73.81 73.48 73.11 73.39 72.95 72.06 71.33 70.82 67.33 67.41 71.16 71.52 72.59 73.02 73.84 74.36
72.23 72.14 70.63 72.88 71.48 70.81 70.17 70.38 70.68 70.41 69.72 69.12 68.89 68.98 69.15 69.12 69.27 69.48 69.70 69.83 70.12 70.61 71.72 72.23 71.60 71.71 72.59 72.61 72.66 72.75 72.18 72.73 72.16 70.98 68.18 68.10 68.41 70.86 71.25 71.56 72.51 73.22 73.66
71.47 71.09 70.57 72.75 71.67 71.25 70.59 70.06 70.26 70.05 69.52 69.12 69.27 70.19 70.64 70.68 70.12 69.44 69.64 69.36 68.96 68.80 68.57 68.75 68.78 68.83 69.17 68.98 69.25 69.67 71.26 72.88 71.87 69.74 67.70 67.09 67.37 70.02 70.92 71.14 71.41 71.69 72.97
70.83 69.76 72.59 73.02 71.91 71.51 71.49 71.24 70.66 70.64 71.05 69.85 70.03 70.85 71.14 71.31 71.69 72.02 71.66 70.81 71.00 71.21 70.89 70.44 70.05 70.01 70.29 70.54 69.90 69.02 70.61 71.38 70.61 68.72 68.82 69.58 67.89 71.43 70.91 70.57 70.68 71.52 71.12
69.50 70.33 71.04 73.42 72.42 72.17 72.05 71.90 71.67 71.40 71.60 71.52 71.39 71.29 71.75 72.09 71.98 72.01 71.93 71.18 70.47 70.51 70.43 70.18 69.82 69.97 70.43 70.32 70.04 70.37 69.65 70.59 67.57 67.88 68.04 68.82 69.68 71.65 71.51 70.62 70.30 70.50 71.32
70.06 70.31 70.68 72.70 72.75 72.49 72.27 72.36 72.50 72.06 72.05 71.90 71.90 71.76 72.08 72.04 71.69 71.12 69.87 68.86 67.23 67.56 67.67 66.96 67.39 69.13 68.19 66.49 66.20 66.79 69.57 67.37 67.65 67.24 67.87 68.07 71.38 70.87 71.70 71.10 70.43 70.01 70.21
70.55 69.93 69.86 70.80 71.94 72.81 72.97 73.26 72.98 72.74 72.45 72.47 72.16 71.53 70.89 70.48 68.89 67.75 65.80 65.29 65.19 65.65 64.74 64.80 64.44 64.53 64.64 64.25 63.54 63.33 66.14 66.66 60.98 65.30 66.53 66.03 70.99 69.41 70.29 70.96 71.07 70.18 69.89
69.31 69.34 68.90 70.81 71.50 71.12 71.40 73.10 72.78 72.77 72.56 71.58 70.41 68.91 66.17 65.72 64.67 64.02 64.34 64.50 63.84 63.73 63.33 62.87 62.30 61.88 62.24 62.38 61.84 61.11 60.02 64.49 62.88 63.70 63.92 66.15 69.27 68.82 68.36 68.02 69.05 71.33 69.73
68.49 67.97 68.75 69.43 70.20 69.95 70.13 71.41 71.85 72.11 71.11 69.48 66.57 64.21 59.19 54.04 55.04 56.45 63.93 63.00 62.55 62.24 61.79 61.37 60.89 60.02 57.41 58.00 59.50 58.19 54.76 47.66 57.70 61.40 63.66 68.58 66.87 66.61 66.73 67.44 67.76 68.15 70.72
66.92 67.79 68.26 68.87 68.33 68.53 70.11 66.22 62.44 63.97 63.12 63.37 56.57 52.35 51.27 51.84 53.41 55.11 58.43 60.44 59.97 59.63 59.63 59.40 58.49 56.68 51.52 45.08 45.70 50.39 44.96 44.93 46.36 50.66 59.66 63.62 64.11 62.83 62.29 62.52 64.80 67.37 67.98
66.72 68.12 68.21 68.05 67.78 67.18 65.73 60.11 53.85 49.67 49.26 55.02 50.08 49.10 50.02 46.71 45.43 44.60 44.31 44.51 44.51 51.86 44.97 46.52 45.17 44.94 43.94 44.31 44.15 43.26 43.81 43.42 42.99 45.25 50.17 59.67 61.31 62.45 61.94 61.22 61.97 63.27 66.47
65.40 67.47 68.43 67.83 66.31 62.16 59.58 53.96 49.08 46.23 45.99 45.78 45.78 45.81 44.51 43.43 43.22 43.22 43.46 43.47 43.45 43.37 43.08 43.08 42.93 43.40 43.73 44.00 41.97 42.29 41.69 42.08 42.50 43.71 46.10 57.51 59.55 61.00 61.82 60.95 60.80 61.22 62.11
65.59 66.76 67.84 66.32 61.75 58.21 54.91 51.98 46.46 46.46 45.09 45.11 45.04 45.24 44.29 43.61 43.11 43.60 43.19 43.56 43.34 43.39 42.91 42.64 42.69 42.86 42.79 43.33 43.38 42.68 41.78 41.55 41.83 43.00 43.25 54.33 56.86 58.41 60.47 60.99 60.42 60.34 60.70
65.84 66.41 66.22 63.37 58.38 54.37 52.20 49.17 45.67 45.22 44.67 44.46 44.23 44.54 45.26 44.66 43.99 43.98 43.73 43.75 43.59 42.96 42.76 42.90 42.49 42.30 42.02 42.16 42.88 42.92 42.05 41.46 41.88 42.15 43.50 44.05 53.95 56.27 58.02 59.41 60.64 58.88 59.38
65.85 65.03 62.86 58.57 54.88 53.01 49.44 46.82 45.62 45.49 45.86 44.86 44.86 45.14 45.64 45.31 44.72 43.89 43.43 43.09 42.72 43.60 43.84 43.53 43.27 42.92 42.73 43.45 41.35 42.36 42.56 41.78 42.24 41.56 42.92 43.10 44.71 52.72 56.69 59.07 60.07 60.16 58.71
64.03 61.97 58.82 57.61 50.85 48.18 48.47 46.36 45.99 45.50 45.00 44.58 45.11 45.64 46.82 46.49 45.20 43.98 43.70 43.55 43.73 44.17 43.66 42.73 42.51 42.24 41.83 41.33 40.61 41.66 41.38 41.19 40.77 41.45 42.18 42.08 43.56 44.19 47.68 57.37 59.36 61.29 61.01
62.04 57.00 53.50 49.22 49.22 47.72 45.57 45.67 45.20 45.09 44.53 44.05 44.13 44.79 46.15 46.97 46.20 44.48 43.98 43.54 43.93 43.54 42.69 42.61 41.93 41.34 40.83 41.16 42.89 42.32 41.08 40.15 39.86 42.98 40.06 41.04 41.92 41.87 42.30 49.69 53.12 54.11 57.34
57.21 56.10 49.58 48.02 46.13 45.08 44.36 43.63 43.39 43.82 43.48 43.58 43.78 44.41 45.74 46.39 46.12 44.53 43.92 43.75 43.38 42.90 42.02 41.53 40.82 40.88 40.36 39.74 43.37 41.80 39.72 39.00 38.49 38.49 38.99 41.01 40.70 41.39 41.40 41.78 41.66 43.70 53.31
48.20 47.25 47.09 45.86 44.11 44.62 42.49 42.33 41.88 42.64 42.44 42.93 43.81 45.34 44.99 45.41 45.80 44.40 43.84 43.20 43.34 42.38 41.67 41.43 40.79 40.07 39.65 39.52 38.16 38.25 37.46 38.42 36.41 37.20 37.25 37.79 39.36 40.22 40.29 40.94 40.63 40.70 42.29
47.68 47.45 45.57 46.27 44.20 44.07 43.62 42.51 42.77 42.39 42.46 43.31 44.44 44.92 45.06 44.81 44.94 44.56 43.94 43.35 42.61 42.04 40.69 40.32 39.86 38.71 38.86 38.31 36.51 33.79 33.15 35.58 36.55 39.58 37.45 38.31 37.37 38.49 40.30 40.65 39.62 40.00 40.19
45.15 46.16 46.35 44.61 44.44 44.12 44.31 44.55 44.21 45.38 44.09 43.94 43.75 44.02 44.28 44.89 44.56 44.09 43.25 42.60 41.78 40.86 40.45 39.44 38.95 38.52 37.37 37.02 36.60 36.32 32.04 29.89 32.53 36.10 36.90 37.18 36.49 37.90 37.20 38.44 39.48 39.68 39.63
45.22 45.29 45.33 44.65 44.09 44.61 44.53 44.79 44.45 43.97 43.01 43.40 43.79 43.93 44.28 44.22 43.77 44.10 43.16 41.66 40.75 40.00 39.37 38.82 40.34 38.20 36.97 35.85 35.78 38.62 35.57 34.78 32.33 31.13 34.40 35.79 37.25 37.28 36.77 37.30 38.04 38.89 38.87
44.60 44.54 43.90 43.43 43.50 43.74 43.69 44.13 43.73 42.78 42.50 42.70 43.80 44.23 43.98 43.62 43.87 43.75 42.54 41.02 40.11 39.38 38.69 38.78 37.95 36.90 36.29 35.73 35.07 34.40 33.33 33.16 32.66 31.78 32.59 32.26 36.79 35.89 36.65 36.92 37.29 37.59 38.30
43.22 43.35 43.03 42.95 42.58 43.05 43.01 43.32 43.34 42.60 42.53 43.10 42.64 42.42 41.62 41.43 41.34 41.44 41.83 40.41 39.94 39.45 38.96 38.69 37.81 36.82 36.35 35.19 35.10 34.42 34.26 33.34 32.39 31.38 29.63 30.96 32.58 35.78 35.75 36.99 36.92 37.20 37.97

GFSSE_sfc_wetblb_084.txt.gz
Wetbulb
69.24 71.19 73.72 73.17 72.18 71.71 72.83 72.91 73.29 72.76 72.39 72.42 72.95 73.56 73.63 74.07 74.45 74.21 74.17 74.17 74.16 74.06 73.90 73.81 73.05 73.08 73.69 73.51 73.83 73.42 72.60 71.91 71.49 71.14 71.07 71.78 72.33 73.83 74.56 74.38 74.26 73.17 74.39
70.90 72.14 73.70 72.88 71.67 71.60 71.86 71.93 71.89 71.36 71.34 70.81 71.05 72.21 72.38 72.20 72.49 73.08 73.59 74.17 74.00 73.94 73.69 73.53 73.17 73.03 73.72 73.28 73.47 73.50 72.98 72.15 71.82 71.46 70.95 70.37 72.03 72.50 73.36 73.88 74.72 73.04 74.61
71.72 71.69 70.13 71.69 71.10 71.50 71.53 71.16 70.88 70.40 69.67 69.18 69.48 69.93 70.61 71.14 71.76 72.02 71.90 72.10 72.86 73.31 73.29 72.94 72.74 72.79 72.67 73.12 73.00 72.64 73.13 72.34 71.77 71.34 70.84 67.46 67.78 71.33 72.29 72.93 74.01 74.36 74.66
71.95 70.82 69.27 71.85 71.09 70.91 70.89 70.70 70.27 69.54 68.98 68.71 68.85 68.90 69.03 69.43 69.95 70.14 70.00 69.80 69.98 70.29 70.43 69.82 70.07 70.29 70.11 70.35 70.59 72.23 73.09 72.13 71.60 70.77 67.88 67.81 68.12 71.01 71.47 72.06 72.63 73.89 74.08
70.98 69.74 70.23 71.96 71.28 70.57 70.51 70.63 70.34 69.56 69.11 69.11 69.77 70.09 70.07 69.44 69.43 69.62 69.70 69.60 69.56 69.49 69.08 69.04 69.31 70.09 70.48 70.05 70.02 72.08 73.19 72.23 71.42 69.67 67.97 67.53 67.66 69.90 70.86 71.38 71.40 71.91 73.37
69.58 68.97 72.16 72.11 71.61 70.89 70.41 70.38 70.16 69.98 69.55 69.76 70.49 70.82 71.18 71.65 71.36 71.63 70.89 71.04 71.00 71.05 70.97 70.77 70.81 70.90 70.49 70.43 70.70 71.41 72.21 71.83 70.59 68.43 68.45 69.44 68.32 71.81 70.97 70.49 70.87 71.33 71.50
68.56 69.30 70.29 72.58 71.84 71.74 71.60 71.33 71.20 71.37 70.64 70.57 71.10 70.90 71.86 72.12 72.00 72.01 71.28 70.58 70.32 69.95 68.64 69.55 70.29 69.15 67.76 67.60 69.25 70.48 71.45 71.07 67.47 67.54 68.07 68.36 69.32 71.20 71.94 70.94 70.24 70.65 71.27
68.99 69.83 70.75 72.33 72.20 72.26 72.18 72.02 71.86 71.82 71.96 72.10 71.51 71.71 72.07 71.97 71.25 69.79 68.65 67.57 67.65 67.20 66.62 66.59 66.83 66.51 65.59 65.13 66.55 69.34 68.92 68.74 67.02 66.04 66.07 66.91 70.83 70.23 70.79 71.80 70.82 70.09 70.33
69.74 69.06 69.00 69.70 71.44 72.64 72.33 73.03 72.54 72.49 72.33 72.33 72.10 71.59 71.12 69.88 68.25 66.65 66.02 66.18 65.51 65.57 65.03 64.51 64.87 64.67 64.33 63.71 63.87 67.77 68.97 68.03 63.73 64.05 65.25 65.58 70.66 69.32 68.78 69.06 71.07 71.05 70.07
68.45 68.81 68.33 69.37 69.34 69.63 71.06 73.37 73.21 72.73 72.74 71.77 70.74 68.37 67.07 65.48 65.18 65.65 64.83 64.84 64.62 63.91 63.51 62.87 62.10 61.99 62.39 62.13 61.46 60.27 59.43 61.56 61.08 63.05 64.17 64.70 68.56 67.96 68.04 68.26 68.32 69.31 70.61
67.77 67.01 68.25 69.73 69.81 69.99 70.26 71.56 72.43 72.83 71.23 68.69 65.31 64.56 58.55 53.63 54.65 57.57 63.61 63.41 62.94 62.50 61.97 61.37 60.56 58.89 56.82 57.98 58.95 57.45 53.42 46.40 48.63 55.58 58.32 64.53 64.79 64.18 63.72 64.04 66.42 68.12 69.51
66.57 67.01 67.85 69.12 68.69 68.96 70.57 65.95 65.31 67.10 62.47 59.55 53.22 50.68 51.06 51.52 54.52 57.06 59.22 60.93 60.72 60.50 59.94 59.32 57.89 55.79 50.38 44.16 44.94 49.70 44.11 43.93 45.04 45.97 50.40 61.20 62.63 63.54 63.02 62.44 63.20 65.53 67.55
66.51 67.61 68.78 68.83 67.54 67.70 65.54 60.01 56.95 55.97 58.90 52.62 50.14 50.16 46.14 45.10 43.90 43.51 43.34 43.75 44.04 51.19 43.98 45.51 44.26 44.11 43.22 43.72 43.16 42.27 42.98 42.92 42.29 44.00 49.45 59.54 60.96 62.37 62.80 61.53 61.71 62.59 63.83
65.87 67.33 68.87 67.75 66.54 64.93 61.87 56.69 51.44 48.34 51.83 47.31 47.24 46.05 43.60 42.53 42.42 42.28 42.47 42.42 42.43 42.27 42.27 42.46 42.37 42.76 42.87 43.09 41.05 41.14 40.60 41.44 41.99 43.15 45.56 56.78 58.55 60.07 61.88 61.67 60.96 61.27 61.44
65.31 66.79 67.71 67.40 63.84 61.72 56.67 50.46 46.95 47.23 46.97 44.82 44.46 44.47 43.44 42.90 42.14 42.49 41.98 42.26 42.29 42.53 42.58 42.24 42.24 42.12 41.89 42.47 42.58 41.93 41.06 40.75 40.86 41.90 42.67 53.21 56.73 58.47 59.59 60.65 61.71 59.99 60.14
65.35 66.61 67.66 65.94 60.88 57.39 52.93 49.21 47.84 44.97 44.46 44.04 43.58 43.66 43.85 43.37 42.88 43.02 42.93 42.82 42.68 42.51 42.51 42.44 41.82 41.91 41.64 41.78 42.28 42.34 41.28 40.78 40.58 40.91 42.50 43.60 55.15 57.87 59.56 60.11 59.80 60.35 59.09
65.71 66.73 66.00 63.38 59.27 57.82 53.93 47.41 46.75 44.89 44.89 43.57 43.73 43.84 44.30 44.11 43.91 42.93 42.92 42.75 42.85 42.82 43.21 42.74 42.14 42.13 41.98 42.71 40.90 41.72 41.95 40.77 40.82 41.02 41.73 42.51 44.55 52.81 58.65 59.97 62.22 62.14 59.39
65.86 65.01 63.68 63.01 58.44 53.61 51.02 48.23 45.22 45.12 44.35 43.92 43.64 43.95 45.14 45.16 44.46 43.39 43.43 43.28 43.39 43.35 42.76 42.26 41.79 41.74 41.18 40.98 40.53 41.42 40.88 40.42 40.33 40.98 41.40 41.25 42.81 42.90 46.59 54.89 56.53 59.07 60.25
65.60 63.60 60.72 56.78 53.74 51.17 47.48 46.46 44.82 44.38 43.90 43.72 43.82 44.59 45.64 46.07 45.25 43.81 43.32 43.12 43.59 43.12 42.13 42.49 41.17 41.06 40.12 40.28 41.99 41.14 39.60 38.89 39.16 41.77 38.89 40.32 41.34 41.69 41.76 48.58 52.31 54.03 56.51
63.28 60.59 55.08 52.86 50.33 47.75 44.68 43.68 42.99 43.03 42.36 42.27 43.08 44.20 45.57 45.78 45.10 43.78 43.27 43.15 42.79 42.12 41.06 40.66 39.87 39.79 39.34 39.15 42.36 40.92 38.32 38.02 38.03 37.84 37.88 40.61 39.98 40.87 40.84 41.39 41.29 43.27 52.12
56.68 52.04 50.27 49.34 47.85 45.62 43.23 42.48 41.67 41.69 41.45 41.88 42.44 44.19 44.45 44.93 44.77 43.64 42.97 42.48 42.32 41.84 41.01 40.75 40.01 38.89 38.46 38.24 37.68 37.47 36.99 37.40 36.07 36.97 36.88 37.62 38.95 39.70 39.66 40.53 40.52 40.55 41.65
53.25 51.37 49.22 48.04 44.93 44.42 43.85 41.90 42.16 41.38 41.55 42.33 43.20 43.45 43.81 43.88 44.50 43.98 43.42 42.49 41.91 41.21 40.06 39.61 39.26 38.14 38.14 37.66 35.94 33.58 32.88 35.49 36.06 37.83 36.73 37.75 36.69 38.19 39.31 40.34 39.21 39.82 40.04
49.53 49.03 48.07 46.46 44.65 43.71 43.22 42.94 42.79 43.42 42.59 42.45 42.54 43.08 43.85 44.05 43.90 43.40 42.65 41.99 41.16 40.38 39.80 38.57 38.45 38.26 37.07 36.53 36.11 36.01 31.86 30.08 31.95 35.92 36.31 36.56 36.49 37.08 37.03 38.00 39.18 39.76 39.43
47.96 47.16 45.01 44.58 43.62 43.85 43.56 43.67 42.96 42.90 42.23 42.45 42.66 43.04 43.28 42.87 42.86 43.02 42.53 41.32 40.53 39.57 38.71 38.29 39.49 37.85 37.04 36.05 35.30 37.95 34.94 34.32 32.18 30.66 34.31 35.56 36.49 36.94 36.58 37.03 37.88 38.48 38.91
44.07 44.17 43.95 43.17 42.84 42.83 42.47 42.90 42.49 41.65 41.58 41.65 42.12 42.37 42.57 42.75 42.84 42.75 41.85 40.29 39.40 38.84 38.41 38.30 37.72 36.71 36.25 35.73 34.93 34.09 33.22 32.82 32.25 31.69 31.89 31.88 34.52 35.53 36.03 36.45 37.10 37.25 38.06
43.05 42.92 42.21 42.26 41.65 41.88 42.02 42.15 42.14 41.34 41.30 41.95 41.89 41.98 41.33 40.76 40.47 40.42 40.77 39.37 38.96 38.63 38.45 38.12 37.04 36.00 35.39 34.75 34.64 34.01 33.92 32.98 31.84 30.88 29.10 30.50 30.36 34.00 35.23 35.90 36.23 36.92 37.88

GFSSE_sfc_wetblb_087.txt.gz
Wetbulb
71.37 73.12 73.78 73.10 72.29 73.81 73.77 73.85 73.29 72.86 72.80 73.12 73.97 73.81 74.12 74.46 74.31 74.40 74.36 74.21 74.27 74.11 73.73 73.43 73.69 74.02 74.06 74.08 73.72 73.14 72.62 72.32 71.63 71.20 71.71 72.21 73.61 74.17 74.67 74.50 74.93 74.01 74.46
72.58 73.17 73.74 73.06 71.93 73.00 72.95 72.60 71.88 71.81 71.23 71.50 72.64 72.59 72.65 72.86 73.16 73.70 74.13 74.20 74.13 73.89 73.77 73.82 73.87 73.35 73.72 73.58 73.49 73.24 72.54 72.17 71.64 71.29 70.90 71.79 72.29 73.63 74.24 73.63 74.75 73.89 74.53
72.52 72.73 72.61 72.47 71.95 72.19 71.94 71.75 71.32 70.48 69.63 69.93 70.55 71.17 71.41 71.63 72.41 72.01 71.77 72.62 72.82 72.30 71.75 71.77 71.78 71.79 71.63 71.67 73.05 73.28 72.44 72.02 71.69 71.36 71.18 69.46 70.52 71.76 73.00 73.41 73.96 74.03 74.45
72.66 72.18 71.17 71.83 71.97 71.80 71.39 70.84 70.02 69.30 68.95 68.97 69.04 69.40 69.94 70.49 70.62 70.32 70.04 69.83 69.78 69.45 69.06 69.93 70.34 70.81 70.73 71.16 73.19 73.67 72.25 71.98 71.68 71.20 70.04 70.77 69.04 71.22 71.87 72.32 73.01 73.87 73.75
71.86 70.90 70.95 71.62 71.41 71.22 70.99 70.62 69.97 69.44 69.38 69.66 69.89 69.67 69.25 69.45 69.63 69.76 70.13 70.36 70.29 70.21 70.29 70.64 70.70 70.71 71.06 71.34 72.82 73.63 72.40 72.20 71.69 71.40 71.27 71.55 71.62 70.85 71.11 71.64 71.69 72.46 73.46
71.31 71.36 72.20 71.73 71.09 70.85 71.01 70.77 70.15 69.75 69.82 70.62 71.00 71.27 71.28 71.23 70.91 71.58 71.30 70.95 71.25 70.79 70.66 71.19 70.23 69.09 69.40 70.99 72.31 72.51 72.34 71.68 71.20 71.51 71.35 71.13 70.49 72.25 71.58 70.69 71.27 71.48 72.17
70.67 71.47 71.44 71.96 71.25 70.89 70.89 70.70 70.93 70.36 70.47 70.91 70.83 71.42 71.69 72.05 72.27 71.68 70.85 70.59 69.16 69.28 70.49 68.69 67.92 67.21 67.77 69.94 70.92 71.83 71.75 70.92 70.58 70.58 70.07 70.04 70.22 70.81 72.59 71.85 70.59 71.02 71.51
70.53 71.18 71.27 71.79 71.91 71.70 71.61 71.56 71.78 71.50 71.37 72.01 71.97 71.75 72.05 71.82 70.82 68.96 68.41 68.30 67.63 67.40 67.77 67.27 66.59 65.97 66.06 69.30 70.53 69.97 69.99 68.67 68.60 68.36 68.97 69.65 70.81 69.68 69.58 70.55 71.83 70.62 70.58
70.90 71.02 72.14 70.95 71.91 72.76 72.54 72.28 72.26 72.31 72.39 72.25 72.02 71.77 70.91 68.85 67.60 67.20 66.91 66.77 66.38 65.76 65.42 65.43 65.24 64.72 64.31 64.83 65.81 67.00 67.63 67.31 67.93 67.47 66.75 67.79 69.97 68.70 69.02 69.00 69.22 71.53 70.50
70.70 71.04 71.34 71.27 71.31 71.41 72.35 73.22 72.93 72.59 72.17 72.18 70.79 68.70 67.03 67.02 66.62 66.16 65.87 65.34 64.89 64.35 63.56 62.75 62.33 62.66 62.59 62.11 61.24 60.02 58.90 59.67 62.07 61.98 63.89 64.62 66.95 65.59 65.42 65.69 68.58 69.43 71.23
69.85 70.53 71.06 71.08 71.31 71.88 72.57 72.23 72.54 72.30 71.70 69.23 67.54 64.52 62.05 62.02 63.39 63.79 64.32 63.91 63.46 62.81 62.14 61.28 60.07 58.49 57.10 58.50 58.60 57.04 55.08 53.48 54.50 55.35 60.48 62.90 64.36 65.14 64.66 64.20 64.94 67.95 69.00
67.90 69.31 70.78 71.22 71.21 72.01 71.34 71.62 71.52 69.27 65.65 63.53 59.80 58.74 59.45 60.77 61.54 61.45 62.04 62.24 61.83 61.15 60.15 59.00 57.45 55.78 53.87 52.27 52.37 53.41 52.21 52.65 52.77 53.04 57.99 61.45 62.67 64.14 63.86 62.76 63.19 64.17 66.68
67.86 68.87 70.27 71.47 71.74 71.91 70.64 69.92 69.13 66.74 62.19 57.70 56.92 57.04 56.22 55.00 54.63 53.92 53.10 53.16 53.76 53.93 52.03 52.55 52.27 51.67 51.49 51.47 51.29 50.98 51.37 51.48 51.54 52.08 53.77 58.65 60.15 61.80 63.31 62.59 62.09 62.59 63.19
67.25 68.47 69.98 70.65 70.62 70.80 67.79 67.00 64.85 64.13 60.16 56.38 56.06 52.51 52.08 51.64 51.47 51.37 51.49 51.81 51.97 52.08 51.71 51.98 51.47 51.59 51.29 50.92 50.79 50.44 50.45 50.53 50.63 50.93 52.06 56.94 58.81 60.27 61.03 62.82 62.39 61.62 61.53
66.75 68.00 68.62 68.68 69.61 69.05 64.98 61.48 57.11 62.55 60.45 55.87 54.43 52.10 52.12 52.02 51.26 51.43 51.14 51.54 51.60 52.01 51.93 51.68 51.51 51.14 51.02 50.92 50.78 50.18 49.68 49.65 49.91 50.42 51.40 56.56 58.82 59.83 60.08 60.63 60.73 61.08 60.57
67.03 67.29 68.30 67.69 68.24 66.47 62.89 57.97 55.98 56.93 56.98 53.62 52.91 51.73 51.43 52.03 51.59 51.53 51.37 51.28 51.38 51.83 51.30 51.18 51.01 50.82 50.25 50.69 50.19 49.94 49.42 49.70 49.48 49.68 50.28 51.92 57.38 60.00 61.03 62.83 62.32 60.68 59.89
67.12 67.72 67.55 66.97 67.09 63.99 58.90 55.19 53.09 52.39 52.01 51.99 52.11 51.20 51.45 51.89 51.74 51.59 51.16 51.12 50.84 51.10 50.67 50.81 50.64 50.80 50.61 50.25 50.02 49.82 49.13 49.15 49.58 49.20 49.54 50.44 50.80 52.61 56.54 58.44 60.95 62.36 62.72
67.10 67.57 67.85 67.16 64.51 61.85 57.56 52.65 51.64 51.35 51.59 51.55 50.96 50.94 50.86 51.36 51.49 51.53 51.61 51.50 51.26 51.35 51.46 51.15 51.05 50.63 49.97 49.92 49.93 50.15 49.14 49.32 49.00 48.84 49.07 49.57 50.44 49.49 50.74 54.90 56.24 58.06 59.64
66.89 67.25 66.68 65.08 62.70 59.48 54.93 52.68 50.82 50.63 50.94 50.81 50.80 51.01 51.26 51.44 51.39 51.78 51.82 51.61 51.68 51.45 51.46 51.45 50.59 50.61 50.16 49.98 49.68 49.91 49.52 49.26 48.44 48.03 48.49 48.89 49.50 49.44 49.41 50.49 51.70 52.69 55.30
67.48 67.36 65.61 63.31 59.52 54.48 52.08 49.82 49.43 49.66 50.01 50.32 51.25 51.61 51.51 51.55 51.17 51.75 51.60 51.26 51.23 51.07 50.58 50.66 50.30 49.88 49.73 48.75 47.97 48.53 49.31 48.61 48.73 48.65 47.79 48.40 48.60 48.87 48.92 49.45 49.40 49.01 51.60
65.37 64.04 62.20 59.05 54.67 51.97 49.10 48.69 49.13 49.67 49.51 49.84 50.63 51.45 51.75 52.02 51.56 51.62 51.50 50.99 50.95 50.91 50.78 50.29 49.88 48.96 48.94 48.11 48.39 48.65 48.81 48.19 48.03 47.66 48.38 48.99 48.19 48.70 48.16 48.46 48.29 48.24 48.35
62.94 61.70 58.90 58.33 53.16 52.00 50.50 49.67 50.19 49.71 49.81 50.94 50.65 50.52 51.09 51.42 51.42 51.00 51.34 50.64 50.32 50.18 49.45 49.00 49.07 48.66 48.51 48.02 47.26 45.66 44.55 47.11 47.74 47.34 48.24 47.39 47.01 47.90 47.63 47.32 47.37 47.42 47.87
59.81 57.93 56.95 54.28 52.68 51.25 49.87 48.73 48.64 49.60 49.09 49.15 49.35 50.07 50.20 50.36 50.74 50.79 50.82 50.65 50.16 49.79 49.36 48.48 48.05 47.90 47.46 46.83 46.05 46.91 43.30 42.24 43.01 47.12 46.49 46.74 46.68 47.05 47.06 46.90 46.69 46.82 46.98
57.01 55.49 54.36 53.31 51.01 49.49 49.44 50.02 49.95 50.50 49.79 50.69 51.19 51.22 50.99 50.34 50.31 50.04 49.87 49.49 49.29 48.90 48.24 48.10 47.51 47.60 47.05 46.20 45.83 45.47 45.76 44.75 41.09 40.42 44.92 45.36 46.32 45.06 45.95 46.02 45.97 46.19 46.55
52.00 52.33 52.95 50.93 49.40 49.44 49.54 50.98 50.81 49.77 49.80 49.89 50.23 49.74 50.03 50.04 49.25 48.73 48.79 48.42 48.08 47.98 47.82 47.32 46.70 46.27 46.73 46.51 45.55 44.89 44.08 43.59 43.01 40.42 38.63 41.57 43.53 44.62 45.15 44.90 45.27 45.56 46.04
49.99 50.20 49.10 49.01 48.54 48.61 48.79 48.77 49.53 49.41 49.09 49.68 49.66 49.91 49.65 49.25 48.77 47.61 47.57 48.11 47.75 47.37 46.82 46.80 46.53 45.54 45.33 44.76 44.70 44.11 43.35 42.07 41.65 40.59 39.03 39.94 40.21 41.97 43.63 44.47 44.56 44.84 45.58

GFSSE_sfc_wetblb_090.txt.gz
Wetbulb
71.57 73.48 73.49 72.83 74.79 74.99 74.93 74.19 73.51 73.54 73.62 74.19 74.37 74.36 74.64 74.54 74.39 74.34 74.38 74.21 74.22 74.04 73.70 74.07 74.03 74.27 74.14 73.89 73.33 72.90 72.24 71.70 71.29 71.43 71.96 72.97 74.30 74.68 74.56 74.75 75.27 74.17 74.41
72.76 73.45 73.95 72.54 74.24 73.99 73.56 72.92 72.64 72.02 72.32 73.03 73.10 73.07 73.27 73.45 73.95 74.13 73.93 74.09 73.78 73.46 73.27 73.29 73.22 72.95 72.81 73.64 73.29 72.67 72.21 71.81 71.47 70.85 72.71 72.22 72.84 74.19 74.40 74.18 74.87 74.48 74.29
72.61 72.88 73.44 72.25 73.06 73.17 72.87 72.23 71.74 70.52 70.67 71.49 71.86 71.68 71.84 72.28 72.04 71.79 72.22 72.52 71.91 71.32 71.48 71.38 71.46 71.55 72.02 73.56 73.29 72.48 72.23 72.07 70.85 71.73 72.56 69.30 70.91 72.49 73.25 73.83 74.11 74.29 74.29
72.83 72.29 73.20 72.26 72.46 72.22 71.86 71.22 70.31 69.41 69.40 69.65 70.02 70.56 71.01 71.27 70.87 70.40 70.04 69.64 69.36 69.54 70.55 71.10 71.25 71.40 72.07 73.69 73.06 72.54 72.32 72.10 71.65 72.68 70.83 69.84 68.78 71.39 72.11 72.57 73.68 74.11 74.15
72.64 72.47 72.34 72.38 72.21 71.69 71.11 70.18 69.62 69.32 69.58 69.80 69.68 69.58 69.93 69.93 69.85 70.07 70.31 70.36 70.44 70.56 70.70 70.73 70.53 71.05 71.87 73.28 73.13 72.66 72.28 71.71 72.49 71.56 70.15 71.25 71.45 71.24 71.27 71.87 72.30 73.44 73.57
71.53 72.43 72.25 72.17 71.66 71.40 71.02 70.45 69.97 69.89 70.41 70.93 71.09 70.56 70.66 71.15 71.58 71.32 71.15 71.14 70.49 71.07 70.82 69.13 68.87 70.05 71.59 72.83 72.77 72.36 71.80 71.15 72.25 70.63 70.75 70.42 71.05 72.71 72.28 71.02 71.45 71.90 72.98
70.98 71.74 71.75 71.58 71.28 71.27 71.18 70.74 70.42 70.39 71.01 71.07 71.12 71.99 71.72 72.00 72.07 71.50 70.59 69.49 70.23 69.90 68.80 67.90 67.76 69.87 71.06 71.56 72.22 71.73 70.76 70.39 69.55 69.53 70.11 70.25 69.87 70.07 71.03 72.38 71.06 71.15 71.80
70.98 71.00 71.10 71.53 71.29 71.29 71.20 71.36 71.33 70.94 71.48 72.35 72.12 72.16 72.14 71.67 70.03 69.47 68.73 68.21 68.45 68.26 67.55 66.82 66.51 67.65 69.62 70.28 70.78 70.07 69.35 70.21 69.27 69.54 70.20 69.34 69.80 69.22 69.77 69.94 71.89 70.76 70.83
71.27 70.89 70.68 71.08 71.98 71.89 71.84 72.00 72.11 72.16 72.28 72.41 72.13 71.93 69.90 68.97 68.50 67.87 67.58 67.03 66.60 66.28 66.03 65.61 65.25 64.97 65.44 65.61 65.87 66.23 66.92 67.96 68.09 68.07 67.12 66.66 68.54 66.84 67.03 68.64 69.66 71.67 71.32
70.33 70.35 70.45 70.68 71.15 71.91 72.63 72.63 72.38 72.48 72.35 72.22 71.02 69.71 68.45 67.87 67.59 66.91 66.26 65.70 65.17 64.24 63.36 62.79 62.97 63.17 62.73 62.02 61.38 60.51 61.08 63.88 63.61 64.98 64.92 64.31 66.20 66.38 65.63 65.57 67.64 69.28 71.18
69.23 70.61 70.62 70.34 71.15 72.30 73.00 72.78 72.18 71.83 71.85 69.73 67.69 66.09 66.46 67.23 66.03 66.03 64.79 64.18 63.69 62.72 61.84 60.93 59.90 58.51 58.93 59.25 58.80 57.92 61.01 58.18 59.06 60.34 62.24 63.08 64.35 65.69 64.77 64.12 64.78 66.54 68.54
68.14 69.54 70.39 70.68 71.16 72.28 72.13 72.62 72.45 71.55 70.39 68.25 65.86 64.17 64.39 64.68 64.57 63.79 63.55 62.78 62.03 60.83 59.69 58.68 57.58 57.12 59.32 55.20 55.21 58.98 55.56 56.07 56.31 56.29 58.86 60.48 61.90 63.48 64.63 63.25 63.39 63.90 65.42
68.47 69.47 70.26 70.58 71.55 71.99 71.99 72.29 71.21 70.39 66.63 63.40 62.57 62.31 62.52 62.46 62.01 60.27 58.75 57.22 56.76 56.05 55.40 55.92 55.45 54.88 54.74 54.62 54.35 53.97 54.04 53.94 54.24 54.76 57.41 59.23 60.39 61.85 62.54 64.23 62.91 62.93 63.22
68.18 69.17 70.60 70.89 71.81 72.33 72.20 71.49 70.94 68.69 64.35 61.22 60.16 58.40 58.12 57.16 55.66 55.52 55.63 56.15 56.16 56.18 55.60 55.69 55.30 55.34 54.97 54.42 54.18 53.95 54.00 53.81 53.83 54.31 57.34 59.56 60.69 60.67 61.10 61.79 63.11 61.80 62.09
68.00 69.00 70.52 71.44 71.99 71.96 71.38 70.93 69.94 67.72 64.22 61.27 58.95 56.98 56.78 56.10 55.15 55.50 55.35 55.58 55.77 56.07 55.74 55.39 55.22 54.92 54.77 54.39 54.27 53.61 53.55 53.49 53.56 54.03 55.01 58.97 61.23 61.82 63.41 63.67 61.37 61.93 61.23
68.72 68.75 70.60 70.48 71.50 71.66 70.04 69.10 68.58 67.74 65.07 61.17 58.77 56.91 55.87 55.99 55.26 55.38 55.23 55.45 55.55 55.89 55.73 55.18 54.73 54.62 54.24 54.36 54.11 53.56 53.29 53.51 53.27 53.37 54.00 54.83 56.01 58.53 60.17 62.20 63.76 63.95 62.73
69.26 69.19 69.91 70.26 70.57 70.79 68.52 65.44 60.37 65.28 63.94 60.53 58.51 56.38 55.82 56.12 55.50 55.43 55.17 54.96 55.02 55.28 54.62 55.37 54.88 55.46 55.14 54.83 54.26 54.00 53.47 53.08 53.20 52.87 53.40 54.10 54.22 54.11 56.61 58.02 59.85 61.29 61.85
69.55 67.89 68.90 69.31 70.12 69.96 65.03 60.71 57.91 60.11 61.72 58.94 57.17 55.98 55.54 55.69 55.86 55.59 55.43 55.46 55.63 55.87 56.14 56.24 56.20 55.78 55.36 54.74 54.34 54.25 53.82 53.61 52.81 52.12 53.14 53.42 53.54 53.22 53.64 53.86 54.78 56.57 58.21
69.81 69.70 69.34 68.63 69.07 66.94 60.20 55.19 55.80 56.40 57.45 56.51 56.16 55.80 55.31 55.15 55.39 55.82 55.84 56.02 55.85 55.74 55.94 55.96 55.84 55.28 54.82 54.67 53.33 54.04 54.16 53.85 53.16 52.33 51.94 52.83 52.77 53.17 52.81 51.19 51.26 51.79 53.81
68.11 68.95 69.32 68.88 67.52 61.91 56.70 55.41 54.37 54.91 55.27 55.54 55.34 55.39 55.08 55.60 55.28 55.76 56.00 55.76 55.71 55.62 55.55 55.71 55.04 55.16 54.09 53.39 52.35 52.83 53.86 53.73 53.80 52.80 52.80 52.25 53.03 53.05 52.62 52.50 52.46 51.56 49.79
68.00 68.12 68.92 67.44 65.80 61.64 59.26 55.01 54.08 54.16 54.33 54.78 55.46 55.14 55.14 55.45 55.38 55.90 55.80 55.52 55.65 55.14 55.40 54.80 54.65 53.16 54.17 53.90 52.33 52.96 53.52 52.97 51.84 51.73 52.72 52.64 51.86 51.77 51.59 51.52 51.58 51.17 50.93
66.78 68.30 68.24 66.46 64.77 60.98 59.20 57.16 57.27 56.23 55.21 55.32 55.70 55.57 55.82 55.86 55.64 55.38 55.56 55.16 55.16 54.87 54.45 54.04 53.63 53.15 52.87 52.86 50.65 50.56 49.00 50.56 51.53 50.83 51.56 51.50 51.03 51.20 50.93 50.90 50.49 50.28 50.65
66.76 67.62 67.51 65.66 62.36 61.14 59.28 56.80 55.75 55.14 54.70 54.10 54.37 54.80 55.11 55.29 55.46 55.17 55.16 55.19 55.06 54.81 54.09 54.21 53.64 52.92 51.33 52.76 51.17 49.66 47.34 46.38 48.84 51.22 50.62 50.70 50.17 50.17 50.51 50.21 50.07 49.73 49.71
66.55 67.03 66.17 65.02 62.77 60.29 58.92 56.20 55.03 54.16 52.93 53.77 54.36 54.93 55.15 54.97 54.76 54.76 54.75 54.69 54.47 54.36 53.58 53.60 53.13 52.43 51.88 50.17 51.38 49.86 50.22 49.01 45.05 44.24 49.01 49.45 49.91 48.62 49.17 49.31 49.11 49.05 49.30
64.80 64.52 64.49 62.67 61.46 59.19 56.35 55.98 55.62 55.04 55.29 55.35 54.86 54.82 54.95 54.89 54.46 54.49 54.10 54.07 53.62 53.52 53.28 52.90 52.15 51.37 51.31 50.47 50.21 49.76 48.81 48.37 47.91 44.79 42.40 45.10 47.71 48.39 48.39 48.35 48.45 48.45 48.79
60.90 61.19 61.47 62.00 58.99 55.82 54.47 56.01 55.88 55.27 54.14 53.68 54.04 53.87 54.25 54.69 54.47 53.55 53.42 53.77 53.68 53.12 52.41 52.15 51.70 51.02 50.70 49.86 49.52 48.88 47.55 46.15 45.66 45.14 43.53 43.90 43.69 45.55 47.08 47.48 47.46 47.68 48.36

GFSSE_sfc_wetblb_093.txt.gz
Wetbulb
72.67 71.85 73.01 75.18 75.35 75.41 74.91 74.32 74.24 74.17 74.58 74.77 74.85 74.75 74.82 74.84 74.51 74.50 74.37 74.46 74.50 74.22 74.11 74.22 73.97 73.80 74.04 73.38 73.03 72.18 71.81 71.52 71.37 71.88 73.25 73.56 74.30 74.73 74.90 74.64 74.81 73.47 74.41
73.17 72.13 73.09 74.98 75.14 74.83 74.11 73.44 72.98 73.11 73.47 73.66 73.83 73.78 74.19 74.04 74.41 74.13 73.98 73.63 73.16 73.01 72.82 72.55 72.57 73.10 73.86 73.20 72.90 72.49 71.64 71.46 71.94 73.53 73.41 72.59 72.79 74.20 74.45 74.14 74.66 74.00 74.54
71.69 72.96 72.16 73.83 74.26 74.00 73.07 72.65 71.51 71.32 72.30 72.50 72.07 72.20 72.81 72.52 72.46 72.61 72.42 71.69 71.17 71.75 71.73 72.09 72.00 72.79 73.75 73.15 72.81 72.55 72.14 72.01 73.45 74.06 72.70 68.89 69.97 72.85 73.43 74.08 74.37 74.10 74.20
71.74 72.18 72.25 72.73 73.61 73.14 72.64 71.93 70.35 70.19 70.36 70.65 70.94 71.35 71.71 71.56 70.87 70.44 70.20 69.96 70.31 71.24 71.53 71.66 71.96 72.53 73.66 72.94 72.81 72.45 72.11 72.08 73.78 72.41 70.85 69.56 67.97 71.48 72.54 73.18 74.19 74.16 73.74
70.95 71.86 72.37 73.03 72.68 72.15 71.30 70.25 69.72 69.71 69.81 69.84 70.07 70.45 70.43 70.24 70.48 70.81 70.89 70.96 70.89 71.13 70.45 69.97 70.94 72.48 73.30 72.78 72.67 72.18 71.70 71.91 73.58 70.43 69.66 71.50 72.02 71.87 71.54 71.88 72.55 73.61 73.73
70.90 72.69 72.38 72.70 72.25 71.54 70.52 70.13 70.02 70.35 70.56 70.48 69.87 70.25 70.80 71.10 71.50 71.48 70.70 71.00 71.70 69.87 69.14 69.47 70.88 72.18 73.00 72.77 72.28 71.80 71.43 71.71 71.67 69.90 70.11 69.46 69.45 71.37 72.57 71.73 71.51 72.22 73.19
70.47 72.01 72.16 72.28 71.89 71.45 70.92 70.53 70.43 70.99 71.30 71.13 71.67 71.59 71.86 72.47 72.24 70.88 70.20 70.51 69.90 68.87 68.39 68.95 71.29 71.76 72.10 72.05 71.28 70.70 70.59 71.33 69.43 69.91 69.18 67.95 68.25 70.14 70.86 72.48 71.24 71.39 71.87
70.39 70.31 70.83 71.50 71.62 71.60 71.35 71.05 70.93 71.41 71.54 71.86 71.71 71.73 71.83 71.19 70.46 69.50 69.00 69.35 68.74 68.05 67.36 67.29 68.61 69.21 70.10 70.20 69.98 69.73 69.06 70.22 68.80 67.72 67.72 66.87 68.98 68.10 69.15 70.27 72.10 71.92 71.11
70.50 69.89 69.31 69.77 71.37 71.85 71.69 71.87 71.68 72.02 72.13 72.45 72.20 71.21 70.27 69.53 69.03 68.43 67.92 67.50 67.14 66.73 66.31 65.93 65.71 66.18 66.23 65.94 65.58 65.68 65.51 68.03 66.60 65.83 65.12 64.87 68.58 67.12 66.89 67.53 69.80 71.23 72.16
69.60 69.08 68.99 69.36 69.91 70.61 71.76 72.76 72.49 72.15 72.25 72.17 71.01 69.55 69.74 69.19 67.88 67.35 66.73 65.88 65.05 64.05 63.43 63.47 63.44 63.18 62.61 62.09 61.55 60.68 62.72 66.21 62.49 64.47 62.91 63.06 66.03 66.77 65.74 65.73 66.55 69.14 70.38
68.11 69.30 69.57 69.30 70.55 71.82 71.99 72.55 72.33 72.47 71.64 69.76 68.51 69.24 68.30 67.10 66.40 65.41 64.84 64.40 63.57 62.53 61.71 60.77 59.51 58.66 60.79 60.37 59.12 59.51 63.29 58.00 57.93 59.64 58.74 61.94 63.41 65.11 65.38 64.47 64.86 65.80 67.84
67.36 69.27 69.39 69.73 70.20 71.33 71.53 71.80 71.99 71.68 70.76 68.62 66.73 66.10 65.76 65.65 65.25 63.94 63.57 62.70 61.59 60.59 59.87 58.91 57.85 58.78 62.61 55.16 55.32 60.30 54.67 55.29 55.55 56.55 57.95 60.92 61.98 63.24 64.50 64.80 64.09 64.20 64.85
68.21 69.19 69.12 69.78 70.56 70.99 70.54 71.20 71.04 70.92 67.98 65.47 63.78 63.39 63.74 63.51 62.99 61.88 59.93 57.78 57.26 59.80 56.08 57.70 57.19 55.76 55.70 55.64 55.73 54.91 54.86 54.44 54.46 56.18 58.75 61.34 61.58 61.73 62.52 62.88 64.18 63.07 64.02
67.89 68.65 69.37 69.89 70.22 70.39 70.70 71.10 70.29 68.20 65.12 62.59 61.95 60.83 60.04 58.36 56.64 56.18 56.34 56.91 57.34 56.69 56.08 56.49 55.94 56.22 55.85 55.18 54.78 54.51 54.33 54.21 54.16 55.16 58.95 62.09 62.78 64.11 64.95 63.02 61.79 62.49 62.91
67.51 68.50 69.44 70.20 70.61 69.88 70.42 69.87 69.81 67.67 64.23 62.31 59.77 58.41 57.47 56.71 55.75 56.37 56.11 56.35 56.53 56.80 56.25 56.00 55.92 55.39 55.27 54.91 54.68 54.29 54.11 53.82 54.02 54.54 55.98 58.23 60.15 61.06 62.90 64.86 64.70 62.46 62.91
67.82 68.58 70.02 70.17 70.85 69.92 69.89 70.27 69.23 67.58 64.75 61.91 59.63 57.95 56.70 56.60 56.15 56.28 56.03 56.20 56.29 56.37 56.13 55.60 55.37 55.33 55.11 55.13 54.93 54.48 54.31 54.34 54.23 54.34 54.76 55.18 57.42 58.93 60.72 62.14 63.23 64.12 64.26
68.13 69.01 69.90 70.60 71.20 70.40 69.92 66.80 66.25 67.05 64.00 61.88 59.61 57.38 56.24 56.72 55.90 55.81 55.94 55.68 55.69 55.76 55.13 55.56 55.31 55.70 55.59 55.59 55.16 54.95 54.51 54.07 54.11 53.50 54.24 55.06 55.38 56.07 56.09 57.07 58.88 59.93 60.93
68.43 68.62 70.27 70.97 70.76 70.44 68.94 63.98 60.64 59.45 61.37 61.98 58.95 57.25 55.95 56.09 56.08 56.07 55.92 55.76 55.87 56.03 56.15 55.67 55.48 55.40 55.47 55.35 54.71 54.92 54.75 54.43 54.04 53.05 53.91 53.91 54.38 54.07 54.61 53.68 53.93 55.19 57.05
69.06 69.04 69.52 70.59 69.86 66.58 61.68 59.55 56.42 57.98 59.35 59.18 58.07 56.84 56.13 56.10 55.96 56.11 56.15 56.46 56.16 56.46 55.70 55.78 54.95 54.76 54.63 54.93 54.23 54.19 54.89 54.55 54.02 52.53 52.50 53.23 53.57 54.23 54.15 52.55 50.96 51.12 52.76
69.58 69.69 69.09 69.10 69.60 64.30 58.48 55.89 56.96 56.14 58.09 57.70 57.01 56.44 55.54 56.00 55.72 56.81 56.58 56.57 55.95 56.13 55.62 55.37 54.54 55.18 54.47 54.23 53.29 53.60 54.94 55.00 54.32 53.55 52.57 51.69 53.25 53.70 54.37 54.56 54.46 52.90 50.74
69.29 67.27 69.01 68.58 66.07 61.86 59.20 56.48 55.69 54.83 55.88 56.20 56.54 55.87 55.51 55.93 55.70 56.21 56.41 56.00 56.23 55.81 55.59 55.73 54.99 54.01 54.22 54.77 52.77 53.47 53.83 54.66 53.46 52.80 52.70 52.35 54.31 53.07 52.92 53.76 53.32 53.03 52.08
65.00 64.78 68.36 68.21 65.99 64.58 61.62 59.82 58.48 56.80 56.94 56.52 58.09 56.23 56.09 56.00 55.89 55.80 56.16 55.85 55.72 55.62 55.63 55.29 55.29 53.93 54.26 54.28 50.90 51.16 48.87 51.54 53.07 51.67 51.82 51.69 51.86 52.58 51.75 51.51 51.23 51.51 52.51
64.98 66.89 68.38 66.99 65.51 64.76 63.24 60.24 59.86 59.10 57.40 56.36 55.73 55.63 55.81 56.08 56.08 55.79 55.63 55.57 55.57 55.94 55.41 55.96 55.50 54.85 52.26 54.06 53.22 49.85 46.87 46.11 49.34 52.03 51.90 51.95 51.94 51.29 51.12 51.05 50.40 50.67 50.41
66.12 67.99 68.31 67.59 65.74 64.57 63.00 60.59 58.51 55.32 54.26 55.29 55.29 55.58 55.51 55.54 55.44 55.57 55.43 55.59 55.53 55.64 54.95 55.18 54.78 54.05 53.88 50.89 53.18 52.05 51.05 49.53 45.57 44.44 49.60 50.05 50.62 49.39 50.17 50.66 49.91 49.45 49.56
67.12 67.32 67.76 67.07 65.36 64.58 62.21 59.73 58.12 57.30 56.03 55.52 55.02 54.85 55.01 55.43 55.46 55.46 55.30 55.18 54.97 55.05 54.64 54.14 53.84 52.99 52.70 51.52 51.56 51.33 50.80 50.38 49.30 46.33 43.58 46.17 48.67 49.48 49.94 49.56 49.54 49.25 49.04
66.36 67.48 66.81 66.02 64.85 62.92 61.55 59.50 58.49 57.29 55.27 54.48 54.85 54.51 54.92 55.34 55.49 55.02 54.94 54.84 54.85 54.54 54.11 53.89 53.50 52.74 52.02 51.56 50.98 50.46 49.09 47.16 45.91 45.73 44.12 44.32 44.14 46.33 47.66 48.15 48.13 48.55 49.21

GFSSE_sfc_wetblb_096.txt.gz
Wetbulb
68.82 71.06 75.52 75.74 75.82 75.52 75.11 74.83 74.87 74.99 74.88 75.06 74.88 74.54 74.60 74.79 74.47 74.50 74.55 74.36 73.97 73.82 73.42 73.36 74.01 74.06 73.42 72.98 72.31 72.01 72.28 72.38 72.60 73.55 73.52 73.88 74.62 74.70 74.82 74.41 75.15 73.10 74.91
68.77 70.51 75.72 75.65 75.75 75.05 74.30 74.06 74.20 74.18 73.91 73.96 74.27 74.13 74.09 74.20 74.11 73.93 73.32 73.19 73.06 72.48 72.68 72.75 73.56 74.08 73.27 72.85 72.57 72.42 72.50 73.95 74.49 74.18 72.65 72.02 72.92 74.35 74.24 73.96 74.61 73.68 74.86
68.78 70.19 73.83 75.57 74.91 74.32 73.65 72.59 72.44 73.43 73.22 72.71 72.88 73.36 73.02 73.14 72.98 72.01 71.41 71.33 71.95 72.18 72.37 72.67 73.15 73.85 73.09 72.82 72.39 72.61 72.64 73.98 73.83 73.29 72.84 66.69 68.74 72.91 73.94 73.65 73.99 74.34 74.74
70.62 69.55 72.09 74.71 74.40 73.75 73.24 71.42 71.09 71.21 71.59 71.81 72.00 72.16 71.85 71.04 70.82 70.65 70.58 70.76 71.28 71.47 71.29 71.95 73.08 73.44 73.06 72.86 72.27 72.27 72.61 73.47 72.74 71.37 68.51 68.55 69.28 71.74 72.29 73.37 73.60 74.05 74.31
69.87 70.09 71.22 74.31 73.46 72.90 71.93 70.42 70.12 70.11 70.37 70.60 70.98 70.99 70.83 71.03 71.03 71.14 71.15 71.50 70.65 70.04 70.51 71.85 73.16 73.19 72.86 72.61 72.07 72.14 72.10 73.87 72.45 68.93 66.83 67.22 68.09 71.32 71.69 71.97 72.65 73.01 73.23
69.64 70.20 73.05 73.45 72.55 71.39 70.55 70.25 70.50 70.65 70.38 70.25 70.51 70.76 71.29 71.22 71.44 71.13 72.01 70.89 69.96 69.91 71.17 71.69 72.70 72.82 72.44 71.94 71.36 71.54 71.80 72.54 70.67 64.80 64.06 65.82 66.11 71.15 72.69 71.53 71.69 72.47 72.96
69.82 70.19 71.35 72.73 71.91 70.96 70.64 70.71 71.10 71.56 71.61 71.62 71.56 72.17 72.62 72.39 71.40 70.98 70.92 70.06 69.27 69.08 70.44 71.29 71.53 71.92 71.68 71.12 70.84 70.21 69.76 72.10 66.28 64.12 63.53 64.21 65.51 69.40 70.83 72.18 72.33 71.40 71.89
69.37 69.68 70.26 72.31 71.91 71.27 71.12 71.21 71.64 71.81 72.06 72.08 71.69 71.90 71.95 71.14 70.31 70.17 69.90 69.26 68.52 68.00 68.14 68.94 69.12 69.35 68.89 68.36 68.23 67.60 69.28 69.87 64.18 62.44 62.10 62.69 68.59 67.73 68.32 70.09 71.09 72.33 71.43
68.54 68.30 68.09 69.13 71.05 72.18 71.87 71.58 72.11 72.64 72.71 72.64 72.26 71.05 70.59 69.90 69.27 68.87 68.41 67.96 67.50 66.99 66.54 66.26 66.41 66.32 65.96 65.34 64.47 64.50 66.24 68.07 60.58 59.77 60.50 60.95 68.55 66.81 66.78 66.95 69.06 70.05 71.98
67.10 66.54 66.22 67.57 68.71 69.04 70.12 72.92 72.79 72.67 72.70 71.64 70.78 70.46 69.92 68.78 68.20 67.53 66.61 65.83 64.97 64.51 64.09 63.61 63.06 62.58 62.12 61.62 61.73 62.43 65.90 63.82 57.13 56.60 57.49 59.57 65.01 66.58 65.83 65.88 66.47 68.47 69.80
66.49 65.63 65.99 66.53 67.53 68.95 69.97 71.91 72.30 72.80 71.99 70.59 69.88 70.35 68.80 63.73 62.47 62.29 64.65 64.46 63.58 62.56 61.56 60.37 59.93 61.43 61.97 63.27 62.25 64.12 61.16 51.89 54.44 54.75 55.82 61.83 63.60 64.99 66.03 65.20 65.09 65.57 68.09
64.08 65.39 66.28 66.63 68.01 68.99 70.61 70.12 69.78 69.84 67.75 65.50 64.80 64.82 63.23 61.64 61.30 61.78 62.05 62.42 61.52 61.09 60.27 59.04 57.65 61.23 59.64 50.69 51.13 57.23 49.66 49.78 53.02 53.64 56.39 62.47 62.58 63.48 63.74 64.97 64.01 65.01 65.42
64.58 66.03 66.62 67.41 69.20 68.18 69.82 69.28 69.39 69.24 66.91 62.10 61.85 60.37 60.77 60.15 59.59 57.47 56.16 53.94 53.32 58.50 52.60 53.96 52.03 51.56 50.54 50.62 50.21 49.46 49.61 49.37 51.88 55.84 60.61 63.33 64.72 65.48 63.87 62.73 63.51 63.83 64.61
64.98 65.19 66.31 67.31 67.77 68.26 69.50 68.71 68.74 65.03 60.70 58.43 57.73 57.15 56.51 55.46 53.07 53.41 52.22 51.61 51.39 51.44 51.00 50.87 50.55 50.67 50.10 49.77 48.47 48.18 48.57 48.94 49.88 52.98 54.87 61.09 62.00 63.90 65.85 64.78 62.83 63.81 64.08
64.96 65.12 65.55 66.50 66.71 68.19 69.12 66.80 66.40 60.91 58.73 57.13 54.74 54.30 52.96 51.80 50.33 51.13 50.94 51.16 50.81 51.11 50.46 50.23 49.73 49.72 49.26 49.55 49.31 48.79 48.10 48.18 48.39 51.29 51.67 58.90 60.48 62.58 63.65 65.16 65.87 65.68 65.36
65.34 65.59 66.38 66.41 67.62 68.19 68.06 67.50 65.39 61.90 58.31 56.49 54.63 52.61 52.46 51.79 50.97 51.11 50.90 51.25 50.85 50.93 50.58 50.24 49.85 49.73 49.23 49.47 49.51 49.41 48.44 48.17 48.36 49.21 50.94 52.54 58.11 58.96 60.08 61.29 62.03 62.43 62.56
65.60 66.01 66.51 66.59 68.24 67.98 65.19 64.73 64.54 61.83 59.37 56.27 55.16 52.83 51.95 52.28 50.95 51.41 50.74 50.86 50.65 50.00 50.41 50.90 50.28 50.40 50.31 51.52 48.81 48.99 49.14 48.34 48.00 48.31 49.26 50.61 52.41 56.48 56.43 57.19 58.32 59.52 60.19
65.68 66.06 67.50 68.31 67.38 66.80 63.79 61.48 60.15 60.82 58.60 57.17 55.65 54.11 53.57 53.48 53.03 52.33 51.74 50.72 50.56 50.91 50.91 50.31 49.75 49.90 49.80 49.81 48.66 48.97 48.57 48.84 48.15 47.47 48.84 48.92 48.52 50.63 53.47 54.40 54.16 55.13 56.03
65.24 66.48 68.24 68.08 65.66 62.90 60.99 60.81 59.71 59.36 58.17 56.30 54.16 52.69 53.07 53.59 53.34 52.50 52.21 51.95 51.88 51.21 50.44 50.14 49.28 48.93 48.72 48.88 49.50 47.95 48.42 48.29 48.32 50.02 46.81 48.50 47.59 48.44 48.00 52.70 52.91 51.90 52.70
65.64 66.80 68.94 68.16 63.61 62.07 59.42 57.31 56.82 57.71 56.17 55.14 52.85 52.47 52.17 52.64 52.68 51.98 52.11 51.24 51.36 50.37 49.67 49.25 48.24 48.77 48.12 48.10 51.27 49.99 48.70 48.64 48.03 47.56 46.55 48.56 47.96 48.60 47.93 47.93 47.25 48.48 52.72
65.84 66.93 67.90 66.56 62.21 59.62 57.12 56.88 56.38 53.59 53.59 52.23 52.92 52.38 51.45 51.67 52.12 51.58 51.43 51.25 51.20 50.55 49.69 49.69 48.56 47.61 48.06 48.44 46.60 46.74 47.20 48.42 47.07 46.71 46.62 46.05 47.01 47.55 47.02 47.24 47.04 46.41 46.61
65.85 66.41 66.91 64.77 61.03 59.38 58.06 58.31 57.38 53.38 52.58 52.73 52.64 51.98 51.74 51.69 51.73 51.75 51.20 50.81 50.46 49.61 49.15 49.21 48.66 47.67 48.03 47.88 44.89 43.67 41.84 44.34 45.95 45.72 45.18 46.36 45.33 46.12 46.17 46.61 45.43 44.40 44.62
63.65 62.13 66.64 64.42 61.96 60.61 59.56 58.76 56.70 54.23 53.48 51.77 51.22 50.59 50.91 51.73 51.54 50.89 51.02 50.43 49.60 49.68 49.35 49.81 49.39 48.54 46.39 47.58 46.92 44.08 40.00 38.95 40.99 44.46 44.69 44.62 44.23 44.12 44.63 44.55 44.50 44.55 43.97
62.97 63.37 67.18 65.66 64.33 62.64 61.48 57.72 55.13 52.17 50.56 50.68 51.22 50.94 50.68 51.19 51.04 51.29 50.65 50.01 49.39 49.95 49.23 49.22 50.87 48.35 47.29 45.14 46.50 48.68 44.71 43.46 39.27 38.18 42.67 43.85 44.69 44.67 42.95 43.00 43.47 43.73 43.14
62.89 65.14 66.61 65.02 63.98 63.60 61.65 58.27 54.03 51.63 51.71 51.63 52.58 50.47 50.05 50.06 50.35 51.12 50.60 49.86 49.53 49.26 48.68 47.98 47.34 46.69 46.18 45.27 44.58 44.47 43.67 43.18 42.24 39.20 37.28 39.35 41.57 42.40 42.37 41.82 41.76 41.97 42.72
64.65 65.51 66.16 64.59 63.70 62.79 61.12 56.67 54.38 53.86 50.60 51.14 49.48 50.75 49.13 49.60 49.87 50.18 50.82 49.47 49.24 48.96 48.52 48.00 47.50 46.86 45.59 44.63 44.28 43.42 42.34 40.91 39.90 38.75 36.86 36.74 37.04 38.90 40.56 40.67 40.64 41.17 42.06

GFSSE_sfc_wetblb_102.txt.gz
Wetbulb
68.35 72.56 75.88 76.00 75.82 75.67 75.55 75.63 75.55 75.44 75.24 74.99 74.93 74.84 74.70 74.47 74.02 73.42 73.13 72.76 72.76 73.16 73.95 72.72 71.98 72.77 73.12 73.23 73.60 73.00 72.62 72.06 71.65 72.12 72.64 73.75 74.09 74.42 74.67 74.49 74.44 72.73 74.84
70.53 73.24 76.71 76.03 75.59 75.54 75.44 75.32 75.34 75.11 74.82 74.81 74.65 74.47 74.37 73.60 73.30 72.93 72.79 72.31 72.22 72.55 73.57 72.86 72.02 72.70 73.03 73.20 72.98 73.32 72.89 72.41 71.92 71.52 71.00 71.52 73.66 74.11 74.25 74.07 74.67 73.29 74.86
72.13 73.77 74.69 76.16 75.36 74.59 75.05 75.13 74.69 74.68 74.48 74.35 73.97 73.68 72.84 72.43 72.15 72.04 71.74 71.63 71.92 72.38 73.36 72.88 72.42 72.59 72.89 73.04 72.46 72.04 72.05 71.54 71.03 70.58 70.09 67.08 70.00 73.84 74.09 73.67 74.15 74.49 74.48
72.62 73.46 73.82 75.50 74.73 74.16 74.62 74.15 73.56 73.71 73.73 73.05 72.25 72.09 71.48 71.08 70.91 70.95 70.60 70.95 71.82 72.82 73.32 73.07 72.49 72.37 72.47 72.12 72.21 70.63 69.99 70.12 69.78 68.83 65.78 67.39 68.50 71.97 73.37 73.54 73.80 73.98 73.99
72.21 73.20 73.68 74.73 73.63 72.98 73.13 73.03 72.78 72.65 72.48 71.97 70.92 70.88 70.96 70.82 71.14 70.56 70.61 71.07 71.90 73.36 73.20 72.98 72.27 72.08 70.88 72.08 70.63 69.71 69.23 68.76 67.98 64.96 63.35 66.72 69.52 70.42 71.68 72.95 73.13 73.55 73.56
71.08 72.03 74.47 74.35 72.45 72.03 71.57 71.48 71.04 71.28 71.09 70.69 71.07 71.05 71.23 71.99 71.45 71.20 71.48 71.97 71.74 72.69 72.57 72.32 71.93 71.04 69.99 72.89 70.19 69.31 68.42 67.60 65.12 61.01 61.44 64.09 67.06 72.31 71.69 71.33 73.12 73.00 73.03
69.97 71.84 72.63 73.84 72.27 71.14 70.63 70.67 70.80 70.86 70.69 71.13 71.47 72.43 72.94 72.29 71.46 70.79 70.93 71.26 71.18 71.40 71.34 71.03 70.42 69.87 68.60 69.57 69.17 68.07 67.36 65.81 59.40 58.83 59.74 62.04 65.32 70.77 72.17 71.86 71.91 72.36 72.80
70.34 70.84 71.13 72.28 71.38 70.90 71.08 70.96 70.96 71.19 71.68 72.00 72.76 72.15 71.71 71.68 71.01 70.19 69.76 70.00 70.14 70.12 69.77 69.38 69.01 67.79 66.67 67.98 67.83 65.96 64.07 62.87 58.60 57.39 58.48 61.36 68.04 69.11 70.82 72.02 71.58 71.88 71.90
70.02 69.19 68.46 68.18 69.83 72.36 72.07 72.41 72.54 72.62 72.88 72.77 72.27 71.63 71.13 70.47 70.20 69.53 68.97 68.51 68.13 67.75 67.12 66.56 66.23 65.23 64.74 66.26 65.85 64.10 62.72 62.02 54.17 55.78 59.02 61.00 67.93 67.14 68.92 70.18 70.63 71.36 71.48
68.31 67.85 65.88 66.54 67.82 68.21 70.02 73.33 73.02 72.96 72.78 72.34 71.41 70.64 70.08 69.43 68.83 68.10 67.35 66.96 66.25 65.05 63.97 63.54 64.51 63.70 65.55 64.68 63.80 62.24 62.14 61.11 54.62 55.51 56.63 62.57 66.47 66.50 67.00 67.42 68.88 69.48 69.99
66.73 66.06 66.33 66.13 66.99 67.93 69.84 71.84 73.08 73.02 72.38 71.63 70.19 69.75 66.28 61.25 61.49 61.45 64.65 64.40 63.31 63.09 63.11 62.82 62.48 61.97 63.20 63.30 62.30 61.41 59.75 54.28 56.32 57.36 58.64 65.98 65.18 65.75 66.23 66.50 66.54 66.96 68.16
64.58 65.36 65.99 66.05 66.67 68.16 71.31 69.41 68.55 69.38 67.11 65.74 64.62 60.15 58.72 58.48 58.54 60.00 62.26 63.71 62.50 62.11 62.76 61.55 61.80 59.63 53.60 47.68 52.44 56.20 53.03 54.48 54.85 55.70 61.06 67.30 64.67 65.23 65.80 65.89 65.91 66.12 66.11
63.98 65.47 65.96 66.18 67.44 68.77 69.42 68.86 67.18 65.28 63.77 64.23 61.07 59.10 57.94 58.74 56.58 54.00 52.62 52.11 50.85 55.46 48.04 49.57 47.87 46.89 46.03 46.81 47.19 48.39 49.36 50.49 52.09 54.25 62.27 66.34 65.95 65.51 66.40 66.40 65.92 65.60 66.06
62.56 64.56 65.81 66.59 67.97 68.77 69.04 68.44 66.38 64.72 61.95 61.47 59.81 58.71 57.28 53.64 51.72 50.83 49.03 48.75 48.29 47.79 46.31 46.06 45.39 45.35 45.51 45.30 44.95 46.26 47.40 48.55 50.06 52.09 59.46 63.76 65.08 66.08 65.95 64.88 64.05 64.14 64.48
62.11 63.83 64.97 66.21 67.72 68.10 67.83 67.54 66.33 63.24 60.03 58.73 58.64 57.25 55.79 51.58 49.99 50.01 47.92 47.15 46.39 46.06 46.60 45.80 45.71 45.75 44.79 44.86 44.76 45.03 45.96 46.86 48.15 50.52 52.38 61.00 62.00 62.59 63.05 63.21 63.32 63.78 63.44
62.40 63.21 64.77 65.99 67.73 67.75 67.16 66.67 65.63 57.76 55.19 55.35 56.02 55.43 54.24 50.79 49.41 48.03 46.55 46.43 46.28 46.34 45.86 45.83 45.94 45.95 45.57 44.84 45.28 45.09 44.47 46.21 47.46 48.56 50.51 53.26 58.75 59.04 59.69 59.78 60.17 60.30 60.45
62.80 63.47 64.18 66.42 67.71 66.95 65.71 63.02 58.15 55.57 53.51 51.81 50.81 49.41 51.36 49.29 48.03 47.29 46.88 46.21 45.67 46.03 46.35 46.42 46.27 46.24 46.48 46.80 44.13 44.21 44.57 44.49 46.95 47.39 48.59 49.36 51.55 57.26 57.14 57.36 57.94 58.31 58.39
63.51 63.10 65.10 66.97 67.30 66.55 63.42 59.12 56.21 52.90 52.49 50.65 49.66 49.58 50.77 49.69 48.79 47.72 47.59 47.04 47.71 47.98 47.01 46.45 46.71 46.56 46.22 45.59 44.19 44.22 44.19 44.08 44.12 45.67 47.83 47.62 47.82 48.85 53.16 55.82 55.94 55.80 56.55
63.45 63.89 65.35 66.11 65.50 62.96 60.33 57.70 55.78 53.78 52.64 52.19 49.46 49.05 49.55 49.83 49.75 48.28 47.82 47.15 47.97 47.92 46.77 47.97 46.45 46.91 45.68 45.42 46.88 45.16 44.83 44.75 43.83 47.02 44.83 45.40 45.57 46.52 46.22 52.83 54.15 53.77 53.74
63.98 65.19 65.13 64.39 62.07 61.77 59.44 58.15 57.88 57.81 57.65 53.07 51.11 49.23 49.40 49.60 49.59 48.54 47.36 47.46 47.38 47.35 45.95 46.68 46.00 45.29 45.00 44.88 48.35 46.80 44.30 44.48 44.39 43.41 43.36 46.05 44.73 45.69 45.00 45.53 44.68 46.16 53.62
64.11 64.79 64.10 62.61 61.26 59.56 58.28 56.74 55.75 55.35 56.98 54.07 50.80 49.75 49.72 50.72 49.66 48.30 48.14 47.33 47.14 46.94 46.08 45.88 45.41 45.00 44.90 44.43 44.16 43.93 43.88 43.08 42.40 42.93 41.95 41.74 43.62 44.65 44.25 44.43 43.71 43.90 44.75
63.56 64.33 64.10 63.42 60.31 59.54 58.85 59.03 58.42 58.21 58.08 53.30 51.41 50.06 49.92 49.56 49.86 49.90 48.12 47.56 47.49 47.20 46.60 46.11 45.40 44.62 44.73 44.23 42.48 40.52 39.52 42.08 42.91 42.20 41.15 42.89 41.09 42.47 43.45 43.49 41.78 41.81 41.90
64.01 64.55 64.00 61.23 60.71 60.47 60.36 59.60 58.60 56.07 54.58 53.67 50.83 50.58 49.38 49.62 49.89 49.80 48.74 48.14 47.20 46.63 46.62 46.17 45.91 45.52 44.20 44.60 43.67 42.56 38.25 37.30 38.05 41.39 41.44 41.69 40.88 40.74 40.32 40.71 40.68 41.05 40.35
64.00 65.50 63.46 61.16 60.74 60.58 60.19 60.13 58.52 57.56 54.54 53.49 51.09 50.12 48.49 48.62 48.55 49.66 48.53 48.20 47.54 46.90 46.34 46.70 47.48 45.90 45.03 43.75 43.51 45.62 41.70 41.10 39.06 37.67 40.23 40.21 40.43 41.24 38.85 39.15 39.17 39.50 39.08
63.92 64.18 62.12 61.26 61.09 60.45 60.62 59.94 58.82 56.48 54.11 52.68 52.97 52.40 49.71 47.72 48.39 48.23 48.06 47.04 46.48 46.85 46.31 46.33 45.43 45.06 44.44 43.36 42.69 41.77 40.66 39.52 38.02 37.16 35.86 38.10 39.29 39.00 38.88 38.43 37.59 37.59 38.46
64.04 63.16 61.83 61.32 61.43 60.38 60.10 58.38 57.47 54.89 52.72 52.84 51.87 51.20 49.91 47.57 47.52 49.11 47.79 47.62 47.61 45.86 45.35 44.88 43.99 43.78 43.26 42.33 41.57 40.71 40.09 38.96 37.45 36.30 34.28 34.19 34.43 37.00 37.61 38.14 37.36 37.72 38.14

GFSSE_sfc_wetblb_105.txt.gz
Wetbulb
67.61 70.93 75.70 74.99 75.69 75.76 75.60 75.57 75.44 75.19 75.33 75.09 74.87 74.63 74.61 74.20 73.23 72.99 72.48 72.67 73.56 72.49 71.64 72.28 73.12 73.32 73.63 73.25 73.11 72.56 71.69 72.00 72.18 72.49 73.41 73.79 74.17 74.60 74.48 74.26 74.15 72.45 74.34
69.69 72.43 75.20 75.85 75.17 75.41 75.46 75.40 75.27 75.12 74.81 74.53 74.45 74.26 73.80 72.71 72.61 72.51 71.99 71.87 72.71 72.79 71.76 72.20 72.87 73.24 72.95 73.22 72.80 72.25 71.69 71.70 71.44 71.27 71.29 72.32 73.75 74.35 74.43 73.85 74.81 72.86 74.42
71.55 72.17 74.62 75.96 75.15 75.22 75.11 74.96 74.83 74.72 74.59 74.26 74.11 73.81 72.52 72.34 72.07 71.75 71.31 71.56 72.48 72.80 72.28 72.52 72.78 72.81 72.80 71.94 71.75 71.52 71.28 71.29 71.08 70.98 70.82 67.65 70.76 74.18 74.27 73.92 74.76 74.26 74.11
71.94 73.41 73.29 75.44 75.79 75.21 75.10 74.62 74.54 74.27 73.94 73.81 73.09 71.94 71.54 71.23 71.06 70.55 70.93 71.49 72.82 72.78 72.39 72.40 72.05 71.94 72.22 70.89 69.90 70.06 70.40 70.29 69.49 68.56 65.97 68.43 68.14 73.18 73.73 74.06 73.96 74.02 74.01
72.39 73.13 73.03 75.60 75.15 75.05 74.31 73.97 73.69 73.62 72.57 71.69 71.46 70.92 70.78 70.77 70.40 70.61 71.23 72.21 72.82 72.58 72.34 72.01 70.80 72.38 71.05 70.18 69.64 69.11 68.80 68.58 67.75 64.23 63.00 67.13 67.96 70.42 73.47 73.54 73.39 73.41 73.48
71.34 72.25 74.23 74.69 73.97 73.96 73.75 72.99 72.46 72.17 71.78 70.82 70.78 70.97 70.93 70.93 70.99 71.13 71.32 72.73 72.63 72.30 71.92 71.14 70.82 71.99 70.65 69.71 68.91 68.58 67.92 67.07 64.29 60.25 61.68 65.13 68.06 71.49 72.13 72.61 73.00 73.15 73.15
70.50 72.37 72.58 73.42 72.45 72.30 72.12 71.78 71.53 71.21 70.75 70.89 71.12 71.22 71.95 71.11 71.08 72.11 71.96 70.87 71.86 71.69 71.13 70.45 69.42 70.76 69.80 68.72 67.95 67.34 66.89 65.83 58.57 58.84 60.44 62.60 68.45 72.43 71.38 71.84 71.81 72.86 72.74
70.75 71.67 71.63 73.01 72.10 71.44 70.98 70.87 70.85 70.87 70.98 71.33 72.30 72.55 71.77 71.15 70.74 70.85 70.57 70.65 70.43 70.12 69.87 69.04 67.84 69.15 68.71 66.86 65.32 65.08 65.16 63.31 58.22 57.54 60.02 62.05 69.46 71.14 72.33 71.67 71.65 71.33 71.94
70.08 69.68 69.38 68.81 69.86 71.86 71.21 70.80 70.80 71.22 71.78 72.62 72.08 71.71 71.27 70.51 70.18 69.76 69.63 69.52 69.14 68.56 68.13 66.96 66.16 67.87 66.97 65.15 63.94 63.30 63.74 62.94 54.67 56.58 60.81 61.03 68.50 68.88 70.27 70.38 70.55 71.19 71.08
67.98 67.27 65.46 65.88 67.21 67.65 68.85 72.49 72.25 72.74 72.64 72.34 71.53 71.09 70.31 69.75 69.52 68.81 68.09 67.07 65.74 64.36 64.56 64.22 65.49 65.94 64.93 63.44 63.27 63.61 63.54 62.44 56.52 57.02 58.74 63.25 67.12 67.52 67.71 68.16 69.03 69.40 70.65
66.35 64.82 65.02 65.40 66.42 67.46 68.60 71.25 72.43 72.71 72.41 71.85 70.76 70.24 66.74 61.60 61.85 61.42 65.55 65.54 64.79 63.53 63.13 63.28 64.20 64.44 63.34 62.80 63.90 63.83 60.83 55.42 56.51 58.53 59.49 66.90 66.27 67.07 67.10 67.03 66.99 67.77 68.57
64.41 64.86 65.12 65.27 66.16 67.54 70.99 69.39 68.89 70.25 67.83 66.16 64.13 60.66 59.14 58.72 58.55 59.87 63.04 65.37 63.01 62.64 62.83 62.56 62.17 62.11 55.41 49.73 53.34 56.41 52.84 53.75 55.24 57.20 62.01 66.61 66.29 66.95 66.97 66.52 66.59 66.89 67.33
64.76 65.41 65.37 65.80 66.56 68.33 68.94 67.51 65.96 64.97 64.52 62.56 59.54 58.38 57.32 58.03 55.82 52.95 51.44 50.25 49.34 54.14 47.50 49.64 47.21 46.24 46.36 47.55 47.55 48.55 50.45 51.48 53.18 56.30 64.06 67.48 67.08 66.47 65.41 65.00 65.22 65.55 65.02
63.96 65.06 65.76 66.37 67.27 68.25 68.88 67.28 64.78 63.69 62.41 60.47 58.75 57.70 56.79 53.52 51.57 49.90 49.03 47.70 47.04 45.41 44.53 44.19 43.84 43.95 44.73 45.86 45.77 46.11 47.24 49.17 51.01 53.19 60.51 65.09 64.60 64.55 64.70 65.07 64.71 64.15 63.88
63.28 64.60 65.63 66.23 67.29 68.25 68.04 66.52 64.40 62.52 62.10 60.76 57.84 57.39 54.17 50.49 49.34 47.84 46.75 46.48 45.22 45.17 44.63 43.95 43.70 43.72 43.22 43.69 44.81 45.91 45.71 47.06 48.82 50.59 53.02 63.00 62.46 62.62 62.77 62.99 62.52 62.32 62.12
62.76 63.79 65.38 65.87 67.47 67.94 67.71 66.59 64.82 62.82 60.74 59.32 57.08 56.33 52.29 49.21 48.41 47.43 45.93 45.55 45.00 45.16 44.47 44.68 44.48 43.97 43.19 43.12 43.62 44.24 45.06 45.69 47.05 48.98 50.26 53.16 59.26 59.40 59.75 60.01 60.22 60.42 60.68
62.41 63.63 64.11 65.22 67.47 67.43 67.04 66.60 63.98 61.96 58.18 58.47 56.42 55.12 52.57 49.57 48.52 46.25 45.65 45.19 44.88 44.78 45.30 45.42 45.08 44.64 44.46 44.81 42.26 42.87 44.06 44.64 45.93 46.76 48.07 49.20 50.74 57.92 57.97 58.30 58.54 58.98 59.41
62.85 62.83 63.67 65.73 67.18 67.15 66.06 65.63 61.60 56.77 54.53 55.86 54.42 53.48 52.34 49.82 47.86 46.32 46.08 45.24 44.87 45.42 46.20 46.17 45.88 45.37 44.27 44.00 42.58 43.05 42.61 43.47 44.26 45.21 46.59 46.53 46.91 47.77 52.69 56.74 56.69 57.18 57.71
62.91 62.92 63.31 65.15 66.61 66.52 65.65 62.36 56.97 52.46 52.56 52.74 52.17 50.86 49.75 49.25 48.15 47.07 46.27 45.80 46.35 46.19 45.51 46.53 44.70 45.31 43.95 44.58 45.00 44.54 44.04 43.09 42.78 46.29 44.17 44.79 45.35 45.53 45.42 52.98 55.67 55.29 55.22
62.94 63.26 64.08 65.46 66.61 66.40 62.28 57.37 55.55 53.12 52.44 50.02 50.31 50.75 49.75 48.87 48.09 47.00 46.19 46.21 46.37 45.52 44.99 45.13 44.48 44.44 44.20 44.26 47.49 45.62 43.51 43.24 43.43 42.56 42.71 44.78 43.76 44.71 44.08 44.58 43.61 44.89 55.12
62.73 63.29 64.16 65.14 66.00 63.08 59.01 56.16 54.35 53.62 54.27 52.74 50.38 50.71 49.56 49.04 48.33 47.46 46.13 46.19 46.39 45.97 44.55 44.86 44.25 44.10 43.77 43.06 43.77 43.58 42.97 42.19 40.95 41.61 40.93 41.39 43.21 43.62 43.48 43.71 42.89 42.81 43.35
62.18 63.37 64.33 65.10 64.29 61.89 60.09 58.40 56.56 55.90 57.60 55.75 51.44 49.16 50.49 50.26 49.47 47.83 47.22 46.18 45.80 45.68 45.13 45.40 45.38 44.36 44.22 43.26 41.79 39.93 39.05 41.80 41.98 41.27 40.09 41.53 39.85 41.27 41.55 41.82 40.36 40.25 39.92
62.08 63.18 64.04 64.61 63.03 60.17 59.00 58.99 57.31 56.96 56.74 56.08 52.64 49.38 49.27 49.91 50.20 49.57 48.18 47.59 47.01 47.27 46.00 45.17 44.97 44.91 43.62 43.87 42.74 42.03 38.08 37.51 37.53 40.69 39.93 40.18 39.91 39.70 38.89 39.32 39.06 39.21 38.70
62.13 63.68 63.64 62.97 60.60 59.51 59.40 58.19 56.31 55.87 54.22 56.44 55.20 51.76 50.26 49.29 49.31 49.26 48.23 47.33 46.69 46.14 45.81 45.33 46.37 44.64 44.45 43.29 43.14 44.82 41.31 40.37 38.62 38.05 39.89 39.22 39.10 39.77 37.64 38.35 37.91 38.46 38.24
64.30 63.42 61.56 61.84 61.41 60.76 59.83 59.47 58.29 58.00 55.18 54.36 53.44 51.90 49.56 48.27 48.45 48.43 47.71 47.10 45.64 45.93 44.80 45.66 45.11 44.88 44.05 43.19 42.14 41.24 39.95 38.75 37.39 37.40 36.54 38.20 38.29 37.91 37.98 37.50 36.77 36.76 37.31
63.95 63.19 61.50 60.83 61.09 61.43 61.11 60.59 60.01 56.52 54.77 52.54 52.52 52.10 53.11 50.04 47.89 47.72 47.50 46.24 47.57 45.81 45.12 44.79 43.78 43.84 42.62 41.68 41.34 40.61 40.05 38.92 37.02 35.92 34.35 34.43 34.32 36.49 36.16 36.39 35.96 36.42 37.03

GFSSE_sfc_wetblb_108.txt.gz
Wetbulb
66.34 68.23 76.35 75.99 76.02 75.98 75.79 75.56 75.49 75.29 75.15 74.84 74.58 74.41 74.31 73.38 72.88 72.47 73.22 73.13 71.74 71.68 72.98 73.18 73.57 73.92 73.36 72.70 72.11 71.95 72.36 72.72 72.94 72.93 73.85 73.86 74.41 74.62 74.59 74.65 74.35 72.65 74.53
67.64 71.14 76.35 76.04 75.85 75.78 75.60 75.53 75.28 75.08 74.92 74.62 74.47 74.11 73.07 72.79 72.38 71.70 72.04 73.33 71.95 71.69 72.70 73.06 73.25 73.27 72.70 72.37 71.98 71.86 72.01 71.93 72.07 72.19 71.63 72.90 73.57 74.67 74.38 75.05 75.02 73.47 74.50
69.01 72.02 73.86 76.36 75.94 75.59 75.33 75.26 75.16 74.95 74.66 74.32 74.16 73.73 72.24 71.86 71.55 71.28 71.30 72.86 72.31 72.09 72.80 72.66 72.99 72.22 71.81 71.42 71.38 71.53 71.76 72.08 71.82 71.29 70.94 68.64 72.07 74.07 74.30 74.22 75.01 74.63 74.54
71.04 71.05 73.58 75.94 75.62 75.53 75.17 75.11 74.77 74.63 74.44 73.95 73.24 71.56 71.68 71.06 70.90 70.70 71.29 72.71 72.70 72.48 72.53 71.93 72.44 71.54 70.64 69.95 70.15 70.70 70.62 70.62 70.42 69.38 66.79 67.83 70.51 73.83 73.98 73.93 74.34 74.27 74.16
70.66 72.72 73.33 75.80 75.32 75.11 74.88 74.70 74.38 74.15 73.74 72.95 71.64 71.25 70.76 70.39 70.34 71.01 72.03 72.66 72.55 72.01 71.10 71.93 71.75 70.95 70.29 69.72 69.15 68.97 69.21 68.78 68.15 64.64 64.12 68.40 67.30 72.11 73.79 73.77 73.40 73.74 73.97
71.49 71.79 74.77 75.64 75.54 74.74 74.43 74.56 74.02 72.65 71.81 71.51 70.91 70.67 70.62 70.54 70.86 71.39 72.81 72.54 72.24 71.46 70.98 72.12 71.35 70.48 69.52 68.91 68.52 68.26 67.98 67.54 64.86 61.76 63.54 68.19 67.27 72.07 72.76 73.13 73.03 73.11 73.23
70.72 71.90 72.83 75.24 74.80 74.39 73.71 72.79 72.56 72.38 71.24 70.81 70.78 70.94 70.85 70.93 71.48 71.38 72.20 72.15 71.93 71.19 70.46 71.63 70.94 69.83 68.81 67.91 67.60 67.37 67.05 66.40 59.69 60.56 62.06 66.16 70.53 71.81 71.32 72.01 72.15 72.65 72.65
70.95 71.65 71.75 74.07 73.69 73.35 72.81 72.12 71.74 71.12 70.80 70.93 71.37 71.98 71.63 71.98 71.93 71.61 71.40 70.85 70.66 70.22 69.27 69.81 70.27 68.33 66.65 65.84 66.04 66.51 66.06 64.24 59.36 59.46 60.88 64.25 70.99 71.36 71.42 70.95 71.35 71.88 72.31
70.66 69.98 69.07 69.31 70.85 72.65 71.93 71.32 70.94 70.88 70.98 71.83 72.27 72.16 71.58 71.07 70.92 70.55 70.22 70.12 69.80 69.07 67.95 68.99 69.10 66.69 65.25 64.39 64.47 65.38 65.28 64.22 56.56 58.77 61.99 62.74 69.29 69.27 69.75 70.28 70.95 71.49 71.52
67.50 67.70 66.15 66.70 66.95 66.92 68.28 71.96 71.38 71.60 72.55 72.31 72.59 71.79 70.87 70.02 69.84 69.48 68.89 67.91 67.43 66.77 66.04 67.52 66.69 64.77 64.27 64.05 64.49 65.29 64.81 63.42 58.21 58.83 60.50 64.89 67.81 68.17 68.52 68.66 69.23 69.81 70.64
65.90 64.69 64.87 65.21 66.01 66.41 66.90 69.32 71.86 72.56 72.00 72.22 71.75 71.13 67.85 63.05 63.24 62.52 66.38 66.53 65.10 65.07 65.49 66.18 64.86 63.94 64.30 64.84 65.22 64.17 61.18 56.10 57.96 59.20 60.45 67.64 67.22 67.61 67.71 67.81 67.98 68.46 68.99
65.33 64.17 64.07 64.73 65.77 66.50 69.38 69.02 68.89 69.89 68.90 67.71 65.07 61.55 59.82 58.95 58.86 60.77 64.50 66.43 64.22 63.89 64.19 64.99 63.53 61.96 55.82 50.55 54.52 57.88 54.39 55.75 57.65 59.70 62.67 67.88 66.34 66.52 66.80 66.59 66.04 66.22 66.74
65.51 64.94 64.87 64.93 65.61 67.12 68.38 67.42 67.18 67.34 65.15 63.35 60.54 58.77 57.68 57.97 54.93 52.73 50.61 50.32 50.32 58.06 50.14 50.46 47.60 46.51 46.63 48.34 49.03 50.56 52.67 53.59 54.97 58.20 65.31 66.31 65.62 66.36 66.16 65.21 64.78 64.69 64.96
64.43 64.74 65.28 65.73 66.52 67.70 68.21 66.69 65.98 65.31 62.74 60.03 58.39 57.13 56.32 53.16 50.70 48.77 47.18 45.43 44.76 44.05 43.35 43.49 43.67 44.58 45.62 45.95 45.96 47.53 49.24 50.89 52.44 54.80 61.82 65.50 64.57 65.00 64.52 64.09 63.46 63.29 63.23
64.42 64.82 65.36 65.99 66.43 67.80 68.12 65.55 64.13 63.57 61.88 58.65 57.16 56.95 54.34 51.09 49.05 47.19 45.76 44.93 43.82 43.51 43.31 42.50 42.60 43.11 43.42 44.46 45.20 46.07 46.77 48.30 49.64 51.36 54.25 63.46 61.94 61.97 62.22 62.25 62.43 62.41 62.18
64.57 64.81 65.57 65.91 66.83 68.26 68.75 65.56 63.91 62.29 60.57 58.17 56.68 56.13 52.26 50.17 47.73 46.22 45.24 44.29 43.94 43.61 43.27 43.03 42.64 42.49 42.18 42.65 43.74 45.02 44.83 45.85 47.73 49.17 50.31 53.91 60.40 60.26 60.79 61.13 61.18 61.57 61.91
64.39 65.25 65.12 65.66 66.99 67.98 68.08 66.31 63.62 62.60 60.65 58.14 57.11 54.66 50.43 49.05 47.55 46.08 45.14 44.38 43.75 43.55 44.21 43.97 43.05 42.54 42.59 43.21 41.25 42.77 44.93 44.64 45.91 46.55 47.92 48.65 50.72 59.14 59.12 59.18 59.55 59.95 60.19
63.68 64.05 65.09 66.01 66.61 67.26 67.52 66.13 62.57 61.40 59.25 58.59 56.95 54.77 50.68 49.42 47.44 45.70 45.35 44.64 43.92 44.38 45.27 44.99 44.47 43.69 43.13 42.64 41.44 41.89 42.03 43.81 44.37 45.23 46.18 46.24 46.16 46.73 51.92 57.44 57.48 57.82 58.10
62.52 63.11 63.68 64.54 65.94 66.78 66.35 65.09 60.02 56.56 56.16 57.11 56.00 54.53 50.60 49.60 47.37 46.19 45.40 44.63 44.76 45.06 45.10 45.99 44.27 44.33 43.29 42.70 43.87 42.77 42.50 42.02 42.56 46.39 44.19 44.78 46.66 45.50 45.36 52.83 55.06 56.23 57.05
62.45 62.88 63.16 63.89 65.53 66.47 64.70 58.78 55.08 53.10 52.52 53.25 55.33 54.84 51.54 49.31 47.23 46.94 45.76 45.03 45.17 44.56 44.15 44.33 43.69 43.35 43.24 43.58 46.46 43.94 41.99 42.03 42.68 42.01 42.56 44.40 44.27 44.89 44.46 44.50 43.90 45.41 54.46
62.41 62.32 62.66 63.65 65.38 63.69 59.73 57.64 55.91 55.32 52.48 51.02 51.02 53.53 53.90 50.79 47.59 46.72 46.40 46.16 45.57 44.89 44.25 44.15 43.39 43.58 43.18 42.41 42.94 42.19 41.66 41.07 40.82 41.32 40.78 41.50 42.85 42.85 43.00 42.62 42.25 41.55 42.79
61.58 62.21 62.92 64.04 65.30 65.29 64.19 61.23 56.86 55.74 56.03 54.89 54.44 50.70 50.11 50.18 48.43 47.70 47.48 46.76 47.28 45.55 44.07 43.83 44.22 43.05 43.42 42.26 41.86 40.34 39.46 41.48 41.39 40.91 40.17 41.02 40.00 41.15 41.01 40.13 39.46 39.51 39.77
60.96 61.79 62.88 64.02 65.02 65.45 62.13 59.24 58.00 57.42 56.62 54.19 52.51 49.80 50.04 50.11 49.67 49.46 48.50 47.93 46.94 46.36 45.24 45.23 45.47 45.41 43.47 43.50 41.99 41.54 37.60 37.15 37.49 40.05 39.34 39.41 39.44 38.54 38.27 39.19 38.95 39.36 39.17
61.10 62.24 63.02 63.88 64.02 62.24 59.73 58.79 56.40 56.52 53.14 56.61 54.57 52.86 52.65 51.48 49.59 49.00 48.65 47.33 46.52 46.27 45.11 45.05 45.89 44.29 43.85 42.53 42.26 43.35 40.11 39.76 38.62 38.22 39.73 38.89 38.46 39.56 38.11 38.78 38.49 39.11 38.76
61.71 62.09 62.98 63.71 62.03 59.71 59.68 58.87 57.09 56.53 56.71 55.65 53.43 52.72 52.28 51.23 49.75 49.21 48.44 47.07 45.51 45.39 45.12 45.64 44.46 44.08 43.77 43.02 41.98 40.96 39.52 38.54 37.65 38.35 37.69 38.38 38.41 37.83 37.87 37.90 37.64 37.54 38.01
61.54 62.55 62.49 61.84 60.99 60.06 59.94 59.04 57.57 57.15 55.91 54.56 53.36 52.21 50.92 50.56 49.45 48.07 48.15 46.61 46.21 46.34 45.41 44.94 44.55 44.31 42.78 42.05 41.50 40.66 40.23 39.36 37.58 36.38 35.40 35.85 35.58 37.03 36.33 36.56 36.40 36.83 37.31

GFSSE_sfc_wetblb_111.txt.gz
Wetbulb
69.35 71.80 76.76 76.58 76.37 76.11 76.00 75.83 75.71 75.42 75.14 75.10 74.80 74.43 73.58 72.93 73.00 73.90 72.46 71.80 72.73 73.38 73.53 74.13 73.78 73.11 72.37 72.16 72.19 72.91 73.25 73.44 73.50 73.68 74.03 74.16 75.07 75.11 74.87 75.39 74.95 73.96 75.16
70.05 73.05 76.98 77.15 76.46 76.18 75.96 75.72 75.65 75.14 75.01 74.73 74.52 73.83 73.27 72.53 72.06 73.27 72.75 71.98 72.48 72.95 73.65 73.27 72.99 72.54 71.83 71.95 71.79 72.01 72.43 72.58 72.63 72.67 72.81 73.88 74.13 75.01 74.75 75.18 75.43 74.41 74.75
69.42 75.14 75.34 76.89 76.82 76.08 76.02 75.68 75.29 75.02 74.86 74.51 73.86 73.02 72.40 71.90 71.43 71.94 73.15 72.16 72.88 72.82 73.34 72.68 72.09 71.46 71.34 71.62 71.59 71.88 72.13 72.16 71.76 71.54 72.16 73.68 73.48 74.44 74.68 74.57 75.07 74.69 74.57
72.93 74.83 74.66 76.99 76.72 76.42 75.62 75.29 75.13 74.99 74.50 74.22 73.54 72.43 71.65 71.31 70.92 71.41 73.14 72.55 72.98 72.46 73.12 72.24 71.39 70.77 70.23 70.66 71.00 71.19 71.47 71.43 71.01 70.99 71.30 71.62 72.47 73.83 74.38 74.44 74.54 74.32 74.21
73.23 74.06 74.53 76.57 76.41 76.14 75.86 75.24 74.90 74.51 74.15 73.16 72.08 71.62 71.03 70.57 70.74 71.64 73.04 72.86 72.59 71.71 72.77 71.79 71.14 70.53 69.92 69.40 69.59 69.94 70.16 69.96 69.59 70.60 70.54 71.70 72.60 73.06 73.76 73.84 73.92 73.96 73.70
72.50 74.16 75.47 75.52 75.69 75.72 75.18 74.95 74.49 74.20 73.57 72.19 71.43 70.92 70.50 70.63 71.41 73.00 72.94 72.52 71.41 71.86 72.29 71.31 70.37 69.67 69.15 68.76 68.69 68.68 68.76 68.68 69.20 68.70 71.46 70.74 71.00 72.94 73.21 73.26 73.06 73.23 73.38
72.15 74.14 74.21 75.11 75.25 75.38 74.81 74.54 74.02 73.31 72.09 71.51 70.82 70.69 70.78 71.07 72.48 72.95 72.74 72.26 71.46 72.32 72.00 70.87 69.97 69.13 68.25 67.93 67.84 67.62 67.43 67.33 67.84 68.73 70.77 71.03 71.09 71.45 72.24 72.66 72.78 72.83 72.79
72.49 73.41 73.38 74.80 75.02 74.79 74.64 73.80 73.49 72.11 71.53 70.92 71.46 71.02 71.82 72.06 71.99 72.49 72.02 71.62 70.77 71.00 71.55 70.21 68.38 67.38 66.82 67.05 67.17 67.10 66.74 66.24 66.63 67.48 68.65 69.40 71.01 71.08 72.03 72.38 72.40 72.41 72.47
72.92 72.78 72.87 73.37 73.81 74.36 73.95 73.30 72.62 71.38 71.01 71.17 72.65 72.32 72.24 72.06 71.78 71.18 70.62 70.70 69.86 69.49 70.65 68.83 67.21 66.04 65.50 66.04 66.61 66.64 66.32 65.70 65.96 66.64 66.74 67.63 69.44 70.03 70.72 71.08 71.20 71.46 71.61
71.96 71.68 71.60 71.61 71.95 71.76 71.22 72.72 72.02 71.43 71.77 72.77 72.79 72.46 71.68 71.05 70.70 70.26 70.13 69.87 68.89 68.60 69.86 66.92 65.68 65.04 64.78 65.58 65.94 65.78 65.18 65.41 65.76 66.08 66.49 67.17 68.50 69.41 69.62 69.61 69.83 70.05 70.70
69.86 70.39 70.61 70.21 70.18 70.09 69.94 70.40 71.79 72.02 72.85 72.21 71.72 72.11 70.05 68.01 69.07 68.06 68.13 68.81 66.96 67.60 67.93 65.48 65.08 65.12 65.44 65.85 65.87 65.20 64.18 64.80 65.35 66.00 65.95 67.88 67.82 67.91 67.66 67.45 67.83 68.49 69.17
67.91 68.12 69.44 69.29 68.98 68.96 69.07 69.99 70.44 71.46 71.59 71.01 70.22 68.69 68.04 67.47 66.30 65.59 66.10 67.42 66.13 66.99 66.03 64.79 64.93 64.08 62.60 62.99 63.86 63.56 63.93 65.33 66.10 65.18 65.27 67.65 66.69 66.69 66.44 66.10 65.99 66.27 66.77
67.52 66.99 67.98 68.31 68.57 68.48 68.85 70.41 71.08 69.55 68.89 69.20 67.81 67.14 66.25 64.89 64.26 63.58 62.34 62.00 63.17 63.45 62.32 58.96 56.76 57.62 59.81 61.56 62.27 62.72 63.78 64.49 64.74 64.28 65.73 67.15 65.64 65.67 65.21 64.73 64.45 64.41 64.82
66.36 67.55 67.34 67.85 68.09 68.78 70.47 70.50 69.02 68.28 66.42 67.48 66.24 65.36 63.80 61.66 60.43 59.54 58.74 58.66 58.61 58.03 54.48 54.03 54.54 55.47 56.71 58.88 60.60 61.41 62.22 62.36 62.84 63.23 64.36 65.33 64.09 63.84 64.23 64.04 63.73 63.63 63.65
66.15 66.78 66.93 67.41 67.86 69.13 69.95 69.80 67.41 66.89 66.86 66.23 64.52 63.20 62.33 59.71 58.15 56.29 55.23 55.48 53.89 53.67 53.62 53.47 53.78 53.92 54.29 54.81 56.09 57.80 59.11 60.06 60.46 60.79 60.78 63.55 63.07 62.85 63.18 63.66 63.71 63.29 62.99
66.07 66.55 66.98 66.91 67.79 69.08 68.86 69.33 67.33 66.28 66.53 64.35 62.71 62.19 60.65 58.94 56.12 54.29 52.97 52.76 52.35 53.17 53.11 53.28 53.06 53.09 53.05 53.87 53.79 54.65 55.56 57.03 57.74 58.22 59.22 60.33 62.79 61.81 61.89 62.37 62.36 62.27 62.11
66.04 67.09 66.62 66.65 67.80 68.49 68.75 68.40 67.17 66.59 65.21 63.42 62.33 61.34 58.75 57.57 55.28 53.99 52.76 52.36 52.27 52.42 52.04 51.94 51.70 52.24 52.20 52.48 52.90 53.34 53.93 54.72 55.35 55.77 56.26 57.36 58.62 60.45 60.38 60.20 60.45 60.67 60.81
66.33 66.26 66.50 66.83 67.25 68.68 68.74 67.86 66.62 66.38 64.61 63.10 62.20 60.35 57.23 56.48 55.05 53.91 52.90 52.31 52.05 52.44 52.79 52.44 52.28 51.99 51.95 52.29 51.81 52.08 53.06 53.50 53.40 53.48 54.18 54.45 54.81 55.86 57.93 58.44 58.80 58.78 59.07
66.37 66.17 66.11 66.33 66.79 68.42 68.14 67.32 66.16 65.15 64.51 63.00 61.91 59.57 55.91 54.97 53.55 53.61 53.23 52.55 52.37 52.94 53.06 52.73 52.41 53.26 52.07 51.83 51.84 51.84 51.87 52.26 52.74 52.88 52.53 53.33 53.59 53.61 53.75 54.27 55.09 57.08 58.45
65.43 66.10 66.20 65.72 66.70 68.04 67.43 63.95 62.79 62.66 62.31 62.49 61.26 59.63 53.21 53.43 52.60 53.28 52.85 51.88 52.77 53.26 52.83 53.07 52.81 52.65 52.87 52.71 51.41 51.39 51.85 52.42 52.76 52.70 52.07 51.49 52.74 52.87 53.40 52.93 53.25 52.80 55.50
64.15 64.46 65.21 65.25 66.09 66.79 62.89 60.70 59.83 59.64 58.69 59.77 60.25 59.15 53.55 52.35 50.25 52.41 52.56 52.16 52.79 53.14 53.30 53.66 52.42 52.42 51.82 52.59 51.72 51.20 50.97 50.40 50.96 50.73 51.62 51.72 51.04 52.04 51.94 51.58 51.49 51.31 50.98
63.30 63.79 64.28 64.55 65.90 65.60 64.74 63.97 62.07 60.10 58.92 58.00 55.97 53.19 53.16 50.72 49.70 50.10 52.33 51.98 52.09 51.78 51.21 51.85 52.21 51.24 51.67 50.48 50.91 49.99 48.12 49.71 50.30 49.29 49.34 50.25 50.18 50.96 49.27 48.55 48.91 49.18 49.77
62.56 63.17 63.65 64.37 65.76 65.53 64.23 60.72 58.98 58.99 57.31 55.64 52.76 50.32 50.53 50.85 49.94 51.24 51.39 50.61 50.34 51.65 50.90 51.93 51.93 51.97 49.93 48.87 49.16 50.17 46.78 46.84 48.21 49.78 48.55 49.54 49.75 49.52 48.90 48.61 48.18 48.43 48.76
63.18 63.50 64.13 64.40 65.53 65.52 62.70 60.92 59.25 58.08 55.37 55.88 52.91 52.21 52.12 53.05 52.25 50.76 50.67 50.88 50.62 50.81 49.94 50.72 51.92 52.52 53.00 51.31 50.50 49.87 50.26 50.16 48.65 47.05 48.62 48.70 48.84 47.53 48.36 49.02 48.67 47.95 48.01
63.69 62.93 63.54 64.35 64.58 63.85 62.35 62.61 60.41 58.10 56.07 53.41 52.64 52.36 52.54 53.07 53.56 53.22 51.41 50.29 50.33 50.41 50.83 50.86 50.70 51.08 52.32 52.11 51.46 50.09 49.83 49.19 48.91 48.98 47.10 47.19 47.27 47.04 47.42 47.80 47.66 48.11 47.98
63.17 63.17 63.43 63.47 63.16 61.58 60.96 60.07 58.33 55.41 53.71 52.44 52.02 51.76 52.54 52.89 53.40 52.89 51.20 50.24 50.44 51.18 50.92 51.64 51.90 51.75 51.66 51.83 50.79 50.48 50.06 49.13 47.67 47.07 46.06 46.56 46.45 47.17 46.62 46.95 46.48 47.15 47.65

GFSSE_sfc_wetblb_114.txt.gz
Wetbulb
69.51 73.31 76.57 76.81 76.46 76.44 76.14 75.79 76.27 76.11 75.55 75.13 75.19 74.09 73.66 74.10 73.35 72.33 72.22 73.48 73.57 74.08 73.97 73.62 72.59 72.11 72.06 72.53 73.12 73.49 73.79 73.98 74.15 74.26 74.49 74.87 75.03 75.19 75.07 75.74 75.09 74.48 75.45
68.75 74.65 77.01 77.42 76.66 76.40 76.32 76.06 75.70 75.40 75.12 74.85 74.52 73.59 72.94 72.85 73.83 72.53 72.23 73.12 73.47 73.69 73.28 72.76 71.98 71.97 71.84 71.88 72.31 72.77 73.11 73.29 73.33 73.91 74.93 74.44 74.30 75.11 74.73 74.75 75.50 74.59 75.07
68.14 75.55 76.52 76.97 76.90 76.39 76.37 76.07 75.67 75.28 74.94 74.75 74.00 73.27 72.60 71.85 73.44 72.81 72.28 73.10 73.41 73.28 72.56 71.67 71.38 71.57 71.42 71.55 71.73 72.10 72.23 72.47 72.76 74.16 74.38 73.23 74.17 74.80 74.81 74.58 74.91 75.33 74.62
69.64 74.83 75.97 76.78 76.54 76.49 76.13 75.54 75.39 75.05 74.80 74.26 73.30 72.60 71.95 71.33 71.91 73.37 72.64 73.04 72.76 73.02 72.04 71.46 70.75 70.56 70.98 71.19 71.46 71.78 71.76 71.52 71.78 74.01 72.32 72.19 73.00 74.01 74.43 74.47 74.55 74.56 74.61
72.16 73.78 74.62 76.62 76.26 76.31 75.66 75.52 75.20 74.89 74.58 73.80 72.71 71.89 71.36 70.95 71.44 73.34 73.08 72.78 72.80 72.67 71.88 71.18 70.53 69.94 69.86 70.31 70.61 71.11 71.20 71.56 72.26 71.70 72.17 72.76 73.21 73.42 74.25 74.10 73.81 73.97 73.87
74.31 74.99 75.88 76.23 76.04 75.56 75.60 75.23 75.02 74.42 73.73 72.75 71.99 71.32 70.83 70.78 71.70 73.19 72.82 71.78 72.81 72.29 71.36 70.54 69.74 69.27 69.11 69.08 69.34 70.07 70.36 71.25 72.85 71.38 70.95 72.03 72.39 73.31 73.65 73.27 73.19 73.21 73.11
72.79 73.46 75.32 76.00 75.43 75.36 74.77 74.92 74.53 73.99 73.52 72.02 71.32 70.78 70.88 71.59 73.17 73.00 72.42 71.58 72.54 71.91 71.15 70.30 69.34 68.62 68.33 68.12 68.19 68.67 69.45 71.00 71.27 70.11 69.93 70.98 71.86 72.87 73.13 72.92 72.87 72.88 72.82
71.52 72.29 74.00 75.02 75.49 75.08 75.14 74.65 74.09 73.11 72.26 71.43 71.01 71.02 71.39 72.93 73.02 72.54 72.05 72.08 72.16 71.62 70.47 68.85 68.12 67.80 67.60 67.47 67.43 67.85 67.78 70.28 69.99 68.85 69.44 70.09 71.63 71.79 72.39 72.30 72.53 72.48 72.34
72.10 73.52 73.59 74.30 74.51 74.64 74.53 74.67 73.85 72.33 71.67 71.46 71.05 71.88 73.28 72.81 72.44 72.10 71.58 70.75 71.71 70.74 69.39 67.82 66.86 66.76 66.95 67.04 67.12 67.31 67.30 69.18 67.87 67.97 67.95 69.43 70.74 70.83 71.26 70.97 71.52 71.77 71.98
71.92 72.82 72.83 73.74 73.78 73.89 73.39 74.09 73.23 72.31 71.87 72.51 72.74 72.98 72.66 72.50 71.45 71.10 70.90 70.03 70.50 70.13 68.08 66.53 65.72 65.91 66.29 66.49 66.58 66.41 67.26 68.48 66.96 66.99 67.47 67.90 68.52 69.14 69.76 69.99 70.16 70.56 71.03
71.58 72.57 72.25 72.33 73.21 72.71 72.45 72.38 72.10 72.08 72.49 72.58 72.22 72.32 71.71 71.29 69.49 70.46 70.58 70.11 69.74 68.83 66.67 65.81 65.60 65.88 65.98 66.01 65.87 65.26 68.13 66.21 65.98 65.88 66.70 67.92 67.34 67.91 67.88 67.77 68.23 68.85 69.53
70.00 71.12 71.51 71.67 71.72 71.65 69.95 70.42 69.55 69.75 71.54 71.70 71.05 70.76 70.34 69.65 69.65 68.17 68.68 68.99 68.98 67.22 65.69 65.73 65.82 65.14 66.11 63.58 64.37 65.50 66.23 65.57 65.37 65.65 65.93 67.30 66.19 66.52 66.42 66.07 66.13 66.26 66.65
69.67 70.64 70.96 71.31 71.20 69.57 68.00 68.60 68.88 69.58 72.61 70.78 70.89 70.14 69.13 68.51 66.90 65.91 65.83 66.06 67.34 66.15 63.36 62.75 62.96 62.55 63.74 63.76 63.99 65.42 65.53 64.48 64.94 65.24 65.86 66.39 65.19 65.36 65.34 65.07 64.93 64.82 64.86
69.20 69.79 70.34 70.67 70.33 68.10 67.57 68.32 69.82 71.67 71.58 70.39 70.33 69.31 68.16 66.89 65.73 64.74 64.05 64.44 64.98 62.89 57.75 57.81 59.22 61.79 62.85 62.99 63.65 63.66 63.34 63.45 63.80 63.40 64.19 65.43 64.75 64.78 64.93 64.66 64.25 63.75 63.61
67.62 69.18 69.66 70.53 69.83 67.43 67.39 68.98 71.18 68.49 69.48 69.69 70.14 68.59 67.26 65.54 64.25 63.78 62.95 62.04 61.26 57.80 56.62 57.06 57.73 58.22 58.83 60.09 61.59 61.44 60.64 61.18 61.63 61.25 61.84 64.64 64.28 64.01 64.21 64.26 63.81 63.38 62.88
68.03 67.92 70.16 69.68 69.59 67.19 67.77 70.05 70.00 68.85 68.89 69.75 69.09 67.18 65.82 64.63 63.27 62.16 61.04 59.36 57.64 57.00 57.19 57.10 56.89 56.88 56.78 57.13 57.24 58.37 58.64 59.05 59.62 60.39 60.80 61.73 63.65 62.86 62.86 62.92 62.78 62.55 62.36
67.76 68.83 69.57 69.48 69.21 66.83 67.90 70.06 70.09 67.96 68.07 68.84 67.30 65.57 64.36 63.29 61.76 60.13 58.76 56.81 56.44 56.73 56.60 56.75 56.41 56.65 56.69 56.75 56.49 56.69 56.98 57.07 57.54 58.29 59.38 59.59 59.75 61.59 61.14 60.80 61.07 61.16 61.09
67.98 68.34 68.70 68.63 68.20 66.61 68.09 69.46 69.54 68.31 68.21 68.50 65.86 64.26 63.08 61.77 60.16 57.80 56.76 56.21 56.48 56.37 56.44 56.14 56.16 55.93 56.00 56.16 55.90 56.17 56.30 56.18 56.27 56.56 57.07 57.61 58.02 58.35 58.67 59.07 59.45 59.69 59.59
68.35 67.00 67.39 68.23 67.68 66.95 68.26 69.52 69.62 69.01 68.76 67.69 65.20 63.89 61.64 60.00 58.34 57.11 56.51 56.47 56.49 56.44 56.39 56.36 56.34 56.22 55.31 55.41 55.30 55.95 56.57 56.54 56.11 55.51 55.97 56.49 56.21 57.16 56.68 55.25 56.59 57.81 58.93
68.77 68.24 68.48 68.30 67.73 67.25 69.17 68.21 67.95 68.32 67.80 66.23 65.02 64.06 60.01 58.72 57.40 56.57 56.80 56.22 56.38 56.30 56.36 56.48 56.17 56.61 56.05 55.59 54.00 54.85 55.93 56.42 56.68 56.79 55.60 55.52 55.98 56.19 57.17 56.73 56.88 55.83 56.26
67.78 67.58 67.54 67.40 67.41 67.13 65.95 63.69 63.93 64.62 65.45 65.09 64.64 64.05 58.97 57.58 55.05 53.63 56.27 55.49 56.67 56.54 56.55 56.81 56.49 55.80 55.45 56.18 54.86 54.41 55.04 56.11 55.58 55.37 55.68 55.59 55.06 55.81 56.06 56.12 55.87 55.87 54.66
66.53 67.08 67.25 67.25 67.34 67.15 66.80 64.80 65.17 63.09 64.14 64.42 64.07 63.59 59.16 56.62 54.34 54.71 54.61 54.94 56.41 56.72 56.91 56.48 56.49 55.46 55.86 55.79 54.05 54.22 51.00 52.12 53.35 53.86 54.56 53.93 53.93 54.35 53.66 53.41 53.92 54.00 54.63
65.37 66.07 66.81 67.32 67.44 67.50 66.46 62.63 60.98 59.99 59.91 58.89 57.04 56.07 55.92 54.87 54.02 50.90 51.93 53.87 55.91 56.36 55.76 56.19 56.53 56.43 54.00 53.95 54.23 52.95 49.97 48.41 52.20 53.39 53.06 53.59 53.45 53.58 53.63 53.41 53.19 53.20 53.24
64.50 66.04 66.89 66.78 67.06 67.55 66.13 63.66 62.35 61.59 58.05 57.61 53.16 52.46 52.62 52.99 52.83 52.79 52.07 51.50 52.51 53.28 53.46 54.54 54.76 55.70 55.12 52.82 53.99 53.83 54.17 53.77 50.22 49.85 52.67 52.72 52.97 52.36 52.57 52.58 52.11 52.16 52.07
65.38 65.10 65.63 64.98 65.43 64.88 63.61 62.01 62.31 59.14 55.93 54.83 52.47 52.13 52.63 53.63 54.86 54.17 53.22 52.43 50.50 51.64 52.82 53.56 53.82 54.68 55.21 54.13 53.52 53.39 52.98 53.33 53.46 51.31 49.38 50.80 51.09 50.84 52.17 52.14 51.82 51.42 51.59
65.26 64.61 64.82 64.87 65.20 64.46 64.10 62.98 58.56 55.19 52.87 51.79 51.88 51.76 52.19 53.30 54.49 54.32 53.82 52.83 51.72 51.79 52.40 52.84 53.62 54.30 54.67 54.66 54.68 54.50 53.51 52.47 51.81 50.79 49.06 49.84 50.72 51.83 51.52 51.46 51.34 51.36 51.22

GFSSE_sfc_wetblb_117.txt.gz
Wetbulb
70.12 72.53 76.16 77.45 76.73 76.41 76.03 75.93 76.03 75.77 75.92 75.55 74.95 74.72 74.50 73.26 72.40 72.83 73.61 74.05 74.01 73.91 73.05 72.38 72.31 72.45 72.98 73.42 73.88 74.05 74.22 74.64 74.58 74.79 74.72 74.86 75.20 75.23 75.25 75.83 75.17 74.01 75.70
69.76 74.44 77.25 77.41 76.77 76.25 75.80 75.94 76.29 75.46 75.41 75.18 74.25 73.73 74.09 73.38 72.55 72.64 73.32 73.69 73.77 73.06 72.31 72.02 72.06 71.91 72.21 72.69 73.24 73.47 73.56 74.01 74.84 75.08 75.10 74.48 74.28 75.00 74.81 75.29 75.29 74.35 74.97
68.96 74.64 76.24 77.18 76.84 76.58 76.47 76.44 76.00 75.50 75.17 74.69 73.77 73.15 72.76 73.98 72.80 72.45 73.18 73.66 73.30 72.33 71.82 71.72 71.58 71.55 71.64 72.05 72.30 72.58 72.73 73.02 75.05 74.61 74.46 73.16 73.57 75.19 74.88 74.65 74.81 75.21 74.72
71.61 74.64 75.37 77.16 77.07 76.69 76.06 75.73 75.37 75.16 74.86 74.36 73.56 72.70 71.85 73.12 73.18 72.70 73.21 73.45 72.93 72.23 71.58 71.02 70.96 71.26 71.59 71.89 71.97 71.84 71.98 72.31 74.45 73.95 72.78 72.44 73.07 74.28 74.69 74.60 74.62 74.32 74.31
73.03 74.70 75.75 76.93 76.78 76.26 75.93 75.64 75.19 74.86 74.60 73.83 73.05 72.22 71.51 71.44 73.49 73.10 73.08 73.38 72.82 71.76 71.21 70.50 70.24 70.31 70.71 71.25 71.52 71.67 72.28 73.43 74.13 72.30 72.33 72.90 72.96 73.40 74.23 74.23 73.71 73.56 73.95
73.10 73.87 75.98 76.68 76.33 76.18 75.86 75.26 75.13 74.60 74.28 73.32 72.35 71.59 71.06 70.96 73.01 73.05 72.79 73.30 72.38 71.41 70.47 69.99 69.49 69.45 69.45 70.16 70.75 70.90 72.20 73.18 71.74 71.27 71.54 72.56 72.47 73.45 73.65 73.38 73.43 73.76 73.81
73.34 74.24 75.44 76.09 75.70 75.90 75.31 75.02 74.68 74.36 73.43 72.67 71.78 71.03 70.71 71.44 73.06 72.82 72.02 72.96 72.10 71.16 70.46 69.58 68.86 68.63 68.58 69.03 69.64 70.04 71.34 72.13 69.32 69.11 70.48 71.36 71.64 72.91 73.23 73.11 72.98 72.94 72.80
73.04 74.29 74.75 75.49 75.72 75.39 75.22 74.83 74.55 73.79 72.93 71.90 71.22 70.87 71.50 73.04 72.86 72.50 72.35 72.27 71.73 70.67 69.44 68.83 68.40 68.11 67.71 68.26 68.44 68.53 69.38 71.60 68.94 68.79 69.50 70.76 71.77 72.31 72.76 72.76 72.54 72.46 72.43
72.20 72.05 73.47 73.78 74.31 75.14 74.95 74.64 74.53 73.21 72.40 71.52 70.95 71.55 72.82 72.75 72.53 72.31 72.15 71.79 71.30 69.64 68.47 67.81 67.69 67.52 67.47 67.52 67.64 67.95 69.81 70.41 67.02 68.61 67.93 68.64 71.13 71.07 71.81 71.97 71.86 71.82 71.90
71.17 71.43 71.65 72.59 73.47 73.46 73.43 73.85 74.12 73.27 71.93 72.33 72.31 72.81 73.02 72.31 72.16 71.95 71.89 71.34 70.50 68.82 67.48 66.64 66.78 67.01 66.95 66.72 66.75 67.03 68.92 69.52 66.54 66.92 66.51 67.13 69.01 69.30 70.26 70.41 70.65 70.78 71.07
70.13 71.96 72.59 71.68 71.92 71.83 71.97 72.77 72.90 72.92 72.49 72.67 72.58 72.36 71.72 70.96 70.18 70.49 70.68 70.89 69.14 67.64 66.63 66.13 66.32 66.22 66.44 65.59 64.58 65.38 67.85 65.49 65.56 65.46 65.46 68.05 67.63 68.02 68.13 68.12 68.47 68.83 69.54
68.37 70.04 71.96 71.64 71.38 71.48 71.46 72.04 70.91 70.36 69.51 70.59 70.69 70.51 70.85 69.83 69.73 69.43 69.15 70.51 67.95 66.64 66.07 66.11 65.64 65.98 65.93 63.57 64.94 65.75 64.71 65.27 64.78 64.41 64.73 67.17 66.30 66.78 66.63 66.30 66.11 66.21 66.55
68.96 69.82 70.80 71.88 71.49 71.23 70.15 70.21 68.07 67.62 69.25 71.98 70.22 69.28 68.88 68.53 67.87 67.43 66.44 67.84 66.13 66.06 63.31 63.16 64.00 63.78 62.98 63.38 64.91 64.40 64.19 64.70 64.14 63.79 65.08 66.48 65.48 65.99 65.94 65.32 65.05 65.09 65.29
67.60 68.78 70.44 70.85 71.57 69.99 69.30 67.77 66.92 67.14 71.18 72.07 69.67 68.85 67.85 67.07 65.54 65.48 64.99 66.15 65.25 62.05 59.21 59.67 61.49 62.97 62.82 63.23 63.37 62.82 63.23 63.52 62.61 62.52 64.25 66.24 65.48 65.32 65.27 64.93 64.51 64.31 64.19
67.69 68.96 70.15 70.18 69.60 68.90 67.69 66.99 67.18 70.91 71.73 69.83 69.14 68.49 68.05 65.98 64.62 64.30 63.84 64.37 63.52 58.92 57.22 58.33 60.23 61.00 61.47 61.88 61.82 60.77 61.45 61.35 61.15 61.65 62.50 65.58 65.50 64.56 64.53 64.31 64.02 63.72 63.39
67.71 68.29 69.39 69.37 70.01 68.25 66.82 66.75 69.68 70.78 70.83 69.51 69.08 68.72 66.65 65.09 64.14 63.39 62.76 61.02 59.83 57.17 57.45 57.77 57.72 57.86 58.17 58.89 58.89 59.17 59.19 59.88 60.11 60.58 60.84 61.88 64.52 64.11 63.35 63.32 63.22 62.96 62.58
68.61 68.44 68.63 69.42 69.54 67.88 66.19 67.53 70.46 70.28 69.66 69.96 69.12 68.02 65.18 64.31 63.35 62.42 61.23 58.39 57.00 57.01 56.82 57.23 57.08 57.32 57.13 57.02 56.76 57.27 57.67 58.01 59.05 59.49 59.72 59.79 59.95 62.23 62.13 61.51 61.63 61.70 61.77
68.43 68.60 68.48 69.40 68.35 67.89 66.38 69.95 69.90 69.85 68.75 69.02 68.38 65.91 63.93 63.00 62.21 61.06 59.09 56.83 56.93 57.09 57.50 56.85 56.68 56.65 56.62 56.47 55.96 56.25 56.30 56.82 56.74 57.47 58.45 58.60 59.33 58.05 59.06 60.15 60.51 60.52 60.54
69.04 68.11 67.76 69.02 67.76 67.84 66.90 69.93 69.84 69.28 68.13 68.29 67.27 63.94 62.72 61.77 60.46 58.49 57.58 57.27 56.96 57.32 56.71 57.13 56.61 56.46 55.68 55.98 55.85 56.27 56.37 56.20 56.19 56.11 56.23 57.35 57.16 58.90 56.80 56.64 57.83 58.63 58.53
69.42 67.15 67.55 68.02 68.04 67.86 67.18 69.05 68.17 68.97 68.09 68.06 65.27 63.37 61.66 60.49 58.52 57.76 57.81 57.43 56.62 57.50 57.42 57.64 56.19 56.64 56.12 55.72 53.86 54.60 55.78 56.43 56.60 56.41 55.91 56.05 56.52 57.25 57.66 57.78 57.33 55.73 56.87
67.57 66.22 64.11 66.00 67.71 66.56 66.60 67.82 66.89 65.87 66.96 66.36 64.86 63.30 60.62 58.83 57.31 57.78 57.82 56.75 57.65 57.43 57.17 57.70 56.97 56.03 56.09 56.11 54.48 54.66 54.89 55.43 55.41 55.93 56.25 55.51 56.28 56.06 56.31 56.84 56.91 56.58 54.82
67.06 66.02 66.43 67.11 67.23 66.63 68.15 67.16 66.17 65.46 66.53 65.47 65.18 63.51 59.71 57.84 56.76 56.45 56.56 56.36 54.83 57.76 57.55 57.42 58.31 56.46 56.64 56.69 53.78 54.49 51.19 52.42 53.99 54.77 55.24 55.19 54.63 55.57 54.71 54.48 54.20 54.54 56.21
66.18 66.01 66.65 66.89 67.59 67.04 67.78 66.11 63.28 61.13 61.11 62.81 63.12 62.60 58.49 55.81 55.14 55.44 55.80 55.38 56.30 58.41 57.99 58.51 58.17 58.63 55.68 56.78 55.29 54.09 50.56 49.06 52.47 54.01 53.33 54.01 54.11 54.72 54.67 54.09 53.38 53.28 53.24
64.42 67.76 67.62 66.30 66.64 67.17 66.71 63.47 61.82 60.09 58.62 59.96 58.00 56.57 56.01 55.90 53.83 53.05 52.60 51.84 52.11 52.45 53.94 56.36 56.03 56.94 56.14 53.90 54.90 54.00 54.05 53.86 51.04 50.43 53.37 53.22 53.87 53.31 54.13 54.56 53.22 52.59 52.27
63.64 65.63 67.62 66.22 65.28 65.16 64.45 63.45 63.52 61.25 59.65 57.06 54.42 53.53 53.08 53.82 53.88 52.76 51.95 51.20 50.94 51.05 50.99 51.65 52.67 53.55 55.05 54.56 55.07 54.84 53.97 53.73 52.67 50.35 49.54 50.92 53.27 53.43 53.32 53.56 52.57 52.86 52.86
63.86 65.66 66.03 64.06 63.41 63.31 63.20 63.45 60.15 56.60 54.57 53.35 53.53 52.99 53.59 53.08 54.03 54.13 53.07 52.59 52.66 52.17 51.66 51.74 51.99 52.98 53.57 53.74 55.02 55.17 54.06 52.59 51.33 51.02 49.75 50.80 50.97 52.72 52.28 51.85 52.25 52.84 53.35

GFSSE_sfc_wetblb_120.txt.gz
Wetbulb
70.61 73.68 77.52 76.86 76.94 76.62 76.42 76.37 76.25 75.96 75.89 75.82 75.33 74.33 73.08 72.61 73.65 73.68 74.31 74.17 73.66 72.77 72.48 72.35 72.78 73.07 74.00 74.31 74.35 74.80 74.65 74.71 74.67 74.85 74.61 74.86 75.20 75.31 75.01 75.57 74.85 71.97 74.95
70.30 73.89 77.57 77.32 77.22 76.60 76.27 76.03 76.00 75.98 75.70 75.32 74.88 74.32 73.22 72.58 73.16 73.60 73.82 73.63 72.81 72.33 72.27 72.07 72.09 72.62 72.73 73.28 73.79 73.94 74.49 74.66 74.80 75.01 74.51 74.25 74.03 75.04 74.69 74.96 75.11 73.67 75.22
69.99 74.37 76.10 77.70 77.39 76.98 76.73 76.65 75.94 75.66 75.10 74.40 73.81 73.85 73.52 72.83 72.83 73.71 73.63 72.91 72.38 72.06 71.73 71.64 71.86 71.95 72.27 72.66 72.81 73.28 74.05 75.04 74.43 74.55 74.34 71.76 72.25 74.87 74.73 74.61 74.82 75.01 74.82
72.15 74.63 75.00 77.60 77.21 77.15 76.87 76.61 75.69 75.34 74.88 74.04 73.27 72.81 74.03 73.05 72.86 73.47 73.61 72.85 72.26 71.71 71.39 71.30 71.43 71.65 71.74 71.99 72.68 73.40 73.86 74.79 74.31 73.73 71.26 71.46 72.09 74.36 74.59 74.63 74.40 74.07 74.16
71.90 73.68 75.14 77.24 76.80 76.57 76.34 76.03 75.29 75.10 74.72 73.91 73.05 71.94 72.53 73.50 73.19 73.38 73.61 72.71 71.62 71.21 70.81 70.59 70.76 71.26 71.62 71.95 72.43 73.66 74.06 74.39 73.59 71.73 70.50 70.76 71.05 73.31 73.44 73.11 72.91 73.63 74.45
71.87 73.58 76.19 76.92 76.79 76.22 75.72 75.50 75.29 74.86 74.26 73.54 72.60 71.78 71.07 72.95 73.45 73.27 73.00 72.65 71.43 70.78 70.23 69.78 69.74 70.18 71.00 71.38 73.02 72.93 73.49 71.90 71.39 69.31 69.42 70.81 70.60 73.21 73.68 73.18 73.74 74.09 74.17
72.10 74.15 75.14 76.72 76.16 75.79 75.41 75.15 75.05 74.71 73.86 72.96 72.08 71.22 70.81 72.14 73.17 72.99 72.69 72.12 71.27 70.60 69.84 69.12 68.77 69.28 70.05 70.29 70.39 70.55 72.54 72.06 67.76 68.10 68.45 69.34 70.41 73.03 73.42 73.14 73.06 73.12 73.29
72.56 73.61 74.01 76.22 76.14 75.52 75.32 75.07 74.77 74.26 73.34 72.37 71.50 70.92 71.35 73.18 72.87 72.66 72.38 72.11 70.95 70.01 69.41 68.71 68.11 68.23 68.84 69.36 69.37 70.92 72.34 70.81 67.94 66.49 67.26 68.37 71.66 72.60 72.93 72.84 72.60 72.64 72.64
72.49 73.01 72.55 73.41 74.29 75.38 75.22 74.92 74.60 73.71 72.73 71.85 71.08 71.48 73.20 73.15 72.58 72.57 72.14 71.50 70.01 69.16 68.69 68.11 67.67 67.45 67.44 68.48 69.09 71.30 70.96 69.21 64.71 64.65 66.53 66.93 71.47 71.52 71.72 71.89 71.74 72.17 72.13
71.46 71.94 71.28 72.22 72.30 72.40 72.54 74.02 74.08 73.91 72.45 71.49 72.36 73.59 73.41 72.49 72.39 72.25 71.76 70.76 69.37 68.32 67.73 67.39 67.09 66.65 66.56 67.32 67.71 67.97 69.72 67.88 63.56 63.90 64.63 66.22 69.45 70.24 70.36 70.23 70.54 71.02 71.26
68.01 69.84 70.14 70.94 71.35 71.53 71.35 72.11 72.98 73.78 72.77 72.46 72.37 73.14 71.95 69.06 68.86 69.44 71.19 69.95 68.53 67.57 67.05 66.61 66.52 65.78 65.74 65.24 65.35 66.50 67.45 62.50 62.73 62.75 63.16 67.70 67.78 68.07 68.01 67.79 68.20 68.63 68.96
66.54 68.77 70.73 70.57 70.91 71.09 71.55 70.48 69.63 69.68 68.34 67.65 69.48 69.27 68.79 67.22 67.50 68.62 69.63 69.07 67.74 66.95 66.41 65.61 65.74 66.19 65.90 60.85 61.31 65.57 62.00 61.63 61.42 61.49 63.12 67.40 66.59 66.89 66.78 66.36 66.29 66.43 66.70
67.31 69.18 70.45 69.94 70.10 70.09 70.32 69.98 68.98 67.80 66.04 67.79 68.53 68.39 68.13 66.74 66.41 66.07 66.28 63.70 62.16 64.93 60.61 62.60 62.73 61.53 57.48 59.29 59.97 59.88 61.21 60.60 60.35 60.56 64.56 66.96 65.86 66.04 66.13 65.68 65.51 65.39 65.29
67.72 68.32 69.79 69.99 69.49 69.72 69.93 68.45 65.52 65.35 66.51 68.04 68.29 67.40 65.91 64.50 63.06 62.75 62.92 63.30 60.70 58.54 56.92 56.82 57.77 57.97 58.23 59.43 58.13 58.27 59.81 59.41 59.48 59.18 63.55 66.56 65.65 65.48 65.44 65.21 64.84 64.46 64.32
66.00 66.82 68.47 69.54 69.51 69.40 66.11 64.13 62.70 65.66 68.45 68.44 68.79 66.84 65.44 62.19 60.59 61.22 60.64 61.60 58.33 53.60 52.43 54.69 56.33 56.70 56.06 56.36 55.97 56.50 57.20 57.65 57.74 58.27 59.86 65.81 65.81 64.73 64.81 64.66 64.37 63.92 63.50
65.79 65.32 67.81 68.47 68.68 67.60 64.17 62.66 66.99 69.10 69.34 67.77 68.28 65.79 64.52 61.93 60.07 58.91 58.63 57.98 53.13 52.11 52.80 53.79 53.37 52.81 53.45 53.50 53.47 54.18 54.62 56.86 57.22 56.83 57.01 59.74 65.07 64.52 63.75 63.64 63.38 63.24 63.02
66.20 68.01 68.11 67.53 68.20 66.17 64.28 62.73 68.35 68.31 68.24 67.87 67.18 66.07 62.36 61.24 59.21 58.48 56.43 54.46 52.27 52.07 52.19 51.66 51.55 51.68 51.69 52.83 51.11 51.98 53.09 53.92 55.89 55.89 55.84 55.12 56.80 62.91 62.63 62.11 62.41 62.30 61.90
66.07 66.20 66.09 68.62 67.57 66.24 63.29 67.48 68.28 67.70 67.61 67.99 67.03 64.43 61.16 60.59 58.54 57.17 54.45 53.01 52.46 52.11 52.24 51.65 51.59 51.24 50.79 50.53 49.56 50.17 50.72 51.91 52.21 53.38 54.29 54.17 54.14 55.72 59.08 61.96 61.23 60.78 60.87
66.04 66.19 66.61 66.90 66.83 66.14 64.09 67.64 67.69 67.59 67.50 67.34 65.70 61.32 59.55 59.07 57.79 55.55 53.37 52.33 52.40 52.27 52.02 51.89 50.90 51.00 49.79 50.00 50.78 50.09 49.76 49.99 50.88 53.33 51.41 51.74 52.26 52.45 52.12 58.89 59.46 59.20 59.54
65.63 66.86 67.23 67.18 67.66 65.80 67.53 67.87 67.06 66.69 67.00 67.05 63.26 60.33 58.52 57.39 55.58 53.43 53.13 51.78 52.99 52.32 51.35 51.16 50.42 50.50 50.27 49.83 51.90 51.12 50.01 50.34 50.04 49.65 50.60 52.56 51.86 51.93 50.45 51.51 52.16 54.35 58.20
67.76 66.30 65.39 64.60 66.04 64.85 65.70 65.42 65.36 64.94 64.67 66.16 61.89 59.42 57.40 55.46 53.67 53.07 53.44 52.31 53.07 51.82 51.64 51.04 50.70 49.64 49.42 49.47 48.40 48.25 48.30 49.11 49.37 49.72 49.58 49.74 50.82 51.50 51.13 51.20 51.12 50.17 52.47
64.49 64.51 63.00 64.08 63.25 61.82 65.07 65.52 65.16 65.68 64.89 64.01 61.56 58.30 55.58 53.98 52.98 54.29 53.61 52.73 53.05 51.85 52.05 51.45 52.58 49.90 49.90 49.88 47.50 46.88 44.12 46.28 47.24 49.03 49.14 49.86 49.08 50.21 50.14 50.45 49.37 49.46 49.66
61.47 63.05 60.71 61.71 62.32 60.94 64.93 65.08 62.21 62.03 61.62 61.29 59.26 54.61 53.20 52.98 53.17 53.00 52.75 52.78 52.92 52.91 52.11 52.57 53.13 51.76 50.04 50.94 50.38 48.89 45.02 43.80 44.52 47.14 47.14 48.25 47.38 48.40 48.73 48.45 48.05 48.39 47.90
60.06 63.99 61.35 62.51 61.35 63.21 66.02 63.23 62.56 61.48 59.24 59.12 55.56 54.45 54.27 53.01 52.38 52.17 50.91 51.45 51.33 52.16 51.65 51.88 53.03 52.99 52.36 50.08 50.49 51.81 49.55 48.42 45.26 44.68 47.34 47.40 48.27 48.36 47.51 47.76 46.82 47.06 47.20
58.19 64.11 64.44 63.16 61.83 63.33 62.42 63.39 61.40 59.92 57.37 56.24 56.15 53.83 52.74 52.96 52.37 52.18 51.01 50.71 50.67 50.66 50.56 50.79 50.52 50.16 51.76 50.82 50.81 49.86 49.08 48.99 48.49 44.84 43.46 46.27 46.36 47.09 46.97 46.98 46.78 46.56 47.21
63.09 64.37 61.44 62.43 61.12 61.25 62.55 60.27 59.20 56.86 55.49 54.46 53.89 53.66 52.11 52.64 53.45 53.40 52.92 52.07 51.55 51.24 51.15 50.95 50.64 50.48 49.94 50.09 50.26 50.94 49.58 48.09 47.23 45.48 44.38 44.37 44.76 46.92 46.52 47.55 47.01 47.29 47.30

GFSSE_sfc_wetblb_123.txt.gz
Wetbulb
70.22 74.44 77.10 77.60 77.28 76.95 76.76 76.48 76.19 76.22 75.80 75.25 73.94 72.99 73.31 73.74 74.67 74.13 74.13 73.11 72.67 72.30 72.47 72.47 73.55 74.15 74.62 74.69 74.92 74.56 74.66 74.62 74.73 74.67 74.63 74.66 75.19 74.96 74.43 75.49 74.53 72.39 75.01
71.65 75.27 77.09 77.87 77.57 76.88 76.67 76.46 76.31 75.96 75.79 75.11 74.02 72.96 72.84 73.61 74.06 74.01 73.26 72.69 72.39 72.18 72.14 72.16 72.70 72.91 73.90 74.13 74.60 74.60 74.44 74.46 74.37 74.40 74.05 74.16 74.28 74.72 74.48 75.14 75.22 73.71 74.67
72.95 75.02 75.51 77.82 77.66 77.49 76.60 76.43 76.16 75.67 75.36 74.99 74.00 73.21 72.79 73.37 74.11 73.75 72.97 72.53 72.08 71.73 71.80 72.01 71.99 72.66 73.19 73.71 73.86 74.88 74.32 74.23 73.99 73.71 73.55 71.46 72.03 74.48 74.39 75.06 75.02 75.16 74.52
73.30 75.09 74.87 77.81 77.49 77.34 77.04 76.77 75.84 75.25 74.58 74.23 74.08 73.55 72.87 73.16 74.17 73.50 72.88 72.34 71.93 71.64 71.44 71.64 71.63 72.34 73.09 73.47 74.74 74.25 73.82 73.52 73.23 72.85 70.99 71.03 71.26 73.82 73.32 74.19 74.16 74.03 73.99
73.41 74.57 75.74 77.50 77.15 77.05 76.97 76.51 75.73 75.11 74.31 73.33 73.07 74.04 73.06 73.51 73.96 73.36 72.51 71.95 71.46 71.14 70.93 71.22 71.64 72.29 72.76 73.64 74.13 73.31 73.05 72.72 71.97 70.67 70.24 70.48 70.74 72.02 73.41 73.25 73.02 73.41 74.25
72.89 73.89 76.59 77.26 77.01 76.80 76.50 75.90 75.41 74.98 74.29 73.40 72.24 72.81 73.55 73.69 73.58 73.40 72.23 71.60 70.95 70.39 69.90 70.15 71.20 71.69 71.86 71.95 73.34 72.53 72.19 71.78 70.40 68.36 69.24 70.87 70.74 73.22 72.98 72.92 73.29 73.22 73.35
72.30 74.15 75.59 77.20 76.88 76.32 76.01 75.60 75.24 75.02 73.98 73.07 72.04 71.51 72.84 73.66 73.48 73.09 71.95 71.09 70.74 69.93 69.17 69.22 70.18 70.97 70.92 70.46 71.08 71.76 71.21 70.49 67.14 67.48 68.77 69.57 70.26 72.94 73.14 72.98 72.72 72.73 72.70
72.85 74.06 74.67 76.53 76.60 76.19 75.79 75.45 75.20 74.54 73.57 72.63 71.61 71.70 72.42 73.53 73.03 72.71 71.86 70.79 70.43 69.52 68.71 68.24 68.69 70.13 69.90 72.21 72.49 70.93 69.38 68.24 65.62 65.69 66.94 69.44 71.78 72.58 72.98 72.89 72.58 72.26 72.30
73.24 73.32 73.66 73.98 74.70 75.54 75.60 75.28 75.03 74.25 73.11 72.12 71.10 71.93 73.72 73.63 72.82 72.44 71.44 70.53 69.93 69.14 68.39 67.74 67.53 68.97 69.29 70.92 70.18 69.29 68.59 67.45 62.90 63.90 67.25 67.88 71.73 71.70 72.18 71.58 71.52 71.59 71.53
71.91 72.53 72.48 72.83 73.03 72.80 72.89 74.72 74.55 74.09 72.85 71.73 72.46 73.70 73.82 73.18 72.47 71.98 70.85 69.89 69.27 68.57 67.80 67.12 66.80 67.79 68.35 68.58 69.20 68.01 67.32 66.21 62.13 62.76 64.81 67.38 69.47 69.93 70.47 70.49 70.52 70.69 70.64
70.90 71.04 71.52 71.33 71.60 71.58 71.59 72.48 73.52 73.80 72.92 72.61 73.35 73.42 71.86 68.86 69.51 68.81 69.91 69.23 68.47 67.89 67.01 66.22 66.40 67.16 66.84 68.11 68.55 66.75 65.22 61.60 61.69 61.60 63.59 67.97 67.54 68.04 68.14 68.08 68.04 68.21 68.59
67.70 69.46 70.48 70.47 70.71 70.68 71.50 70.59 69.54 70.44 68.82 68.26 70.04 68.71 68.32 67.28 68.32 68.21 68.80 68.91 67.91 66.76 65.81 65.65 66.34 66.91 64.31 59.66 63.51 64.22 60.72 59.54 59.75 60.82 63.47 67.41 66.71 67.21 67.06 66.54 66.28 66.28 66.43
66.25 68.19 69.52 69.81 70.30 70.20 70.05 69.41 68.40 67.69 66.67 67.12 68.64 67.83 66.56 67.27 67.86 65.51 64.38 62.73 61.93 63.79 60.41 62.01 61.88 60.48 58.04 58.76 58.97 59.98 59.93 59.33 58.73 60.41 64.81 67.01 66.13 66.38 66.42 65.78 65.46 65.39 65.45
66.97 68.36 69.14 69.67 70.10 69.59 69.31 68.69 67.55 66.00 64.87 66.45 67.67 67.05 65.79 65.04 65.26 63.55 61.65 60.16 59.56 57.73 58.58 58.49 59.33 59.50 57.21 58.74 59.17 58.60 58.88 58.22 57.94 59.60 64.04 66.48 65.84 65.61 65.69 65.30 64.94 64.72 64.63
65.50 67.23 68.71 69.20 68.89 68.50 68.62 68.23 66.23 64.58 65.52 67.06 66.43 66.98 65.27 63.68 63.07 63.15 61.59 59.84 58.15 54.67 54.27 53.70 54.70 55.00 54.44 55.71 57.99 57.81 57.20 56.76 56.83 58.27 60.06 65.99 66.03 64.97 64.92 64.89 64.49 64.15 63.84
66.56 64.34 66.31 68.80 68.95 68.44 67.30 64.50 64.15 65.70 66.70 67.32 67.07 65.96 64.31 62.54 61.11 61.40 61.39 58.45 53.85 50.65 52.05 53.78 52.87 51.66 51.35 55.26 55.93 57.20 56.83 56.61 55.36 55.90 57.28 61.00 65.38 64.72 64.09 63.98 63.81 63.61 63.13
65.29 65.47 66.41 67.55 68.82 67.73 66.31 65.95 66.86 66.91 67.33 67.07 67.80 66.66 62.90 60.16 58.82 57.87 57.23 50.95 49.95 51.02 52.39 50.67 49.72 50.24 50.62 51.35 50.36 53.95 55.36 54.52 54.73 53.83 54.11 54.83 57.21 64.12 63.91 62.87 62.65 62.59 62.44
65.36 64.98 66.97 68.30 67.48 66.08 64.14 67.84 67.97 67.36 66.74 66.64 67.41 64.00 61.95 59.46 57.81 55.40 53.10 50.58 50.27 50.03 50.30 49.75 50.06 49.23 48.87 48.74 48.01 50.63 53.44 53.58 53.00 52.95 53.18 53.36 54.13 55.31 60.17 63.06 61.49 61.77 61.62
65.84 65.91 66.02 66.48 64.71 66.14 65.36 67.31 66.93 66.50 66.62 66.27 66.38 61.18 60.72 58.45 56.85 54.60 52.56 50.83 50.29 50.41 50.11 50.91 49.27 49.55 47.75 47.71 48.81 47.61 47.71 49.79 51.66 53.47 51.25 51.84 52.84 52.54 52.94 61.19 60.65 61.43 60.59
65.21 65.56 65.31 63.60 62.68 64.44 66.14 67.05 66.57 66.07 65.84 66.79 63.58 60.39 59.05 56.17 54.64 52.65 51.24 50.26 50.80 50.37 49.53 49.60 49.50 48.76 48.24 48.01 51.37 48.96 47.44 47.63 47.86 48.71 49.14 51.10 51.10 49.56 50.26 52.31 51.63 55.60 59.26
64.84 63.66 64.52 63.54 63.96 63.17 63.77 65.00 64.50 64.07 64.66 64.13 60.75 59.68 57.43 54.17 52.38 51.33 49.88 50.70 51.11 50.54 50.37 50.13 49.03 48.72 47.43 46.73 46.98 46.07 46.27 46.48 47.04 47.77 47.78 48.18 49.52 49.48 48.66 50.28 49.53 49.87 52.89
62.63 63.73 64.63 63.45 63.93 63.07 62.32 61.62 64.25 64.04 63.18 63.06 59.67 58.02 56.53 52.59 51.68 51.60 50.37 50.75 51.09 50.67 50.87 50.75 50.58 48.44 47.96 46.96 45.67 44.49 42.67 45.42 45.73 46.49 46.22 48.95 47.83 48.88 49.13 49.48 49.08 48.80 48.82
60.08 62.02 62.31 61.78 62.27 62.52 61.59 62.14 63.08 61.92 61.48 59.50 55.84 55.26 54.25 51.62 52.50 51.35 50.95 51.28 50.97 51.27 50.90 52.08 51.54 50.89 47.89 48.04 49.01 47.13 43.59 42.44 43.13 45.63 45.47 46.11 46.71 46.61 46.81 47.44 46.78 48.32 47.57
57.72 60.79 60.87 60.66 60.95 60.93 61.72 62.47 62.90 61.30 59.24 57.77 55.27 53.97 53.66 51.41 50.62 50.49 51.26 51.52 52.26 52.37 52.36 52.72 53.27 52.40 51.12 48.89 49.18 50.76 48.94 48.04 43.31 42.88 45.47 46.62 45.57 47.50 46.64 46.03 45.44 45.81 46.31
57.96 59.64 60.57 59.89 60.53 60.31 59.21 58.00 61.52 59.06 56.55 55.63 53.65 52.58 52.42 52.43 52.45 51.83 51.50 50.92 50.57 50.96 51.11 51.34 50.87 51.23 51.11 50.59 49.80 49.26 48.44 47.67 45.59 42.53 41.03 44.83 45.11 44.89 45.64 45.59 44.49 44.37 44.59
61.27 62.23 61.39 60.62 58.51 58.48 58.81 58.68 58.22 57.22 56.56 55.63 54.72 53.22 53.31 53.13 52.53 52.66 52.63 52.09 51.90 51.08 50.64 50.70 50.32 49.72 49.60 49.87 50.01 49.97 49.00 47.11 44.51 43.20 42.42 42.87 42.75 44.55 43.89 44.73 45.18 45.03 45.38

GFSSE_sfc_wetblb_126.txt.gz
Wetbulb
69.86 72.96 77.48 78.09 77.45 76.99 76.44 76.46 76.31 75.97 74.86 73.95 73.24 73.70 74.65 74.71 74.17 73.54 72.76 72.21 71.87 72.39 73.21 74.12 74.43 74.73 74.77 74.80 75.02 75.00 75.01 75.04 74.82 74.72 74.44 74.27 75.28 74.84 74.17 74.51 74.80 72.87 74.78
71.24 73.50 77.60 78.10 77.75 77.25 76.46 76.58 76.21 75.88 74.76 74.21 73.06 73.38 74.06 74.61 74.03 73.03 72.49 72.17 72.06 72.06 72.53 73.34 73.81 73.86 74.26 74.66 74.64 74.62 74.57 74.76 74.47 74.10 73.73 73.90 73.76 74.87 74.47 75.19 75.16 73.95 74.64
72.81 73.98 76.00 77.55 77.75 77.54 77.04 76.52 76.17 75.71 74.81 73.44 72.90 73.09 73.59 74.14 73.26 72.94 72.40 71.85 71.78 71.91 72.01 72.93 73.59 73.79 74.08 74.16 74.27 74.07 73.93 74.02 74.05 73.61 73.07 70.99 71.47 74.50 74.22 74.90 74.91 75.24 74.67
73.98 73.88 75.43 77.77 77.67 77.37 76.91 76.65 76.66 75.65 74.98 73.70 73.00 72.94 74.29 74.04 73.10 72.82 72.32 71.87 71.56 71.63 71.70 72.51 73.13 73.33 73.80 73.68 73.68 73.42 73.48 73.46 73.21 72.58 70.44 69.63 70.58 73.80 73.84 74.12 73.96 74.01 74.04
73.39 73.48 75.44 77.53 77.58 77.20 76.90 76.99 76.44 75.59 74.92 74.51 73.23 72.86 74.02 74.10 73.09 72.64 72.03 71.59 71.39 71.34 71.55 72.21 72.88 72.66 73.31 73.28 73.29 73.08 72.98 72.63 72.03 70.68 70.28 69.46 69.68 71.54 72.77 72.68 72.77 73.30 73.67
73.13 73.13 76.50 77.47 77.35 77.13 76.78 76.55 76.11 75.04 74.42 74.59 74.08 72.83 73.50 73.95 73.17 72.39 71.61 71.05 70.54 70.90 71.48 71.60 71.44 71.80 72.41 72.58 72.61 72.56 72.12 71.54 70.27 68.75 69.79 71.16 70.72 72.90 72.61 71.98 73.11 73.41 73.40
72.68 73.52 75.75 77.27 77.00 77.05 76.77 76.43 75.83 75.28 73.92 73.74 74.29 73.67 73.83 73.48 73.11 72.13 71.46 70.79 69.85 69.74 71.04 71.72 71.41 70.67 71.78 71.68 71.56 71.36 71.11 70.30 66.78 67.94 68.72 69.23 70.09 72.80 73.16 72.74 72.01 72.07 71.76
72.33 74.10 74.79 75.93 76.39 76.39 76.09 75.66 75.37 74.79 73.66 72.86 73.01 73.33 73.76 73.37 72.86 71.72 71.14 70.41 69.51 68.75 69.74 71.11 70.46 71.42 72.03 71.01 70.37 69.97 69.43 68.03 66.33 66.94 67.91 68.77 71.65 72.26 72.75 72.33 71.93 72.12 72.05
72.99 73.60 73.78 73.84 74.53 75.60 75.42 75.44 74.90 74.54 73.56 72.42 71.60 72.57 73.76 73.07 72.66 71.68 71.06 70.29 69.31 68.24 68.26 70.32 70.72 70.56 70.96 70.16 69.67 69.07 68.17 67.04 62.06 64.59 66.66 67.69 71.65 71.67 71.91 71.59 71.57 71.55 71.42
71.32 72.36 72.40 72.88 73.07 72.14 72.74 74.79 74.47 74.38 73.53 72.53 72.31 73.51 73.47 73.03 72.64 71.63 70.60 70.01 69.15 67.98 67.31 69.32 70.15 69.28 69.65 69.19 68.71 67.86 66.74 65.66 61.16 62.79 64.77 67.00 70.08 70.44 70.39 70.23 70.10 70.36 70.36
64.19 65.35 71.76 71.45 71.38 71.57 71.71 72.64 73.83 74.18 73.26 72.47 72.57 73.28 71.94 69.81 69.04 67.63 69.24 69.48 68.64 67.38 66.59 68.29 68.98 68.57 68.62 67.97 67.30 66.44 64.50 60.61 61.07 61.71 63.66 67.65 67.99 68.37 68.29 67.90 67.80 67.82 68.24
62.74 63.25 59.98 70.96 70.60 70.64 72.01 70.84 70.33 70.54 69.18 69.46 70.72 68.48 68.03 68.01 67.17 67.59 68.66 69.09 67.82 66.26 66.38 68.03 68.08 66.93 64.19 61.91 62.58 63.13 59.39 59.17 59.91 60.97 63.66 67.67 66.90 67.25 67.02 66.68 66.55 66.50 66.56
62.24 62.09 59.49 65.95 69.92 69.69 70.28 69.46 69.07 67.97 67.98 68.89 67.62 67.37 67.16 67.63 67.20 65.59 64.59 63.52 60.45 63.95 59.85 62.34 61.40 57.83 57.80 58.75 58.65 59.11 58.79 58.63 59.02 60.51 65.07 67.33 66.23 66.60 66.54 66.14 65.94 65.84 65.84
58.38 59.02 59.19 68.39 69.36 69.10 69.20 68.55 67.92 67.01 67.06 67.99 67.29 66.11 66.87 65.91 63.92 61.73 61.07 59.73 58.89 58.37 58.36 58.42 58.12 57.37 57.44 57.80 57.53 57.07 57.01 57.75 58.61 59.70 64.25 66.66 65.91 65.76 65.87 65.73 65.44 64.96 64.62
58.07 59.79 64.27 66.85 66.48 68.21 68.43 67.91 66.82 66.17 66.57 67.54 66.75 65.77 66.02 64.78 62.99 60.85 59.39 58.16 56.85 56.65 56.97 55.21 54.65 55.07 56.49 56.73 57.21 57.43 56.30 56.81 57.40 58.79 60.44 65.99 65.65 65.03 65.10 65.06 64.80 64.44 64.09
60.38 64.75 65.97 64.65 64.23 68.76 67.76 66.98 66.05 65.38 65.92 67.03 66.36 65.13 64.66 64.50 62.92 60.85 58.59 57.20 54.66 53.73 52.12 53.47 51.58 54.83 55.28 56.65 55.88 56.80 55.60 55.55 55.99 57.00 58.34 61.41 65.53 65.06 64.58 64.22 63.95 63.84 63.61
62.24 65.03 66.37 66.28 68.07 67.84 67.55 65.24 64.98 64.32 65.91 66.83 66.67 63.94 63.50 62.32 62.34 60.71 58.70 55.42 53.02 49.98 52.09 49.39 48.99 53.09 53.55 55.80 53.61 54.61 55.18 53.90 54.08 54.13 54.59 55.32 58.10 64.73 64.19 63.19 63.17 62.99 62.79
64.36 63.54 64.43 65.14 67.40 66.86 66.54 64.64 65.15 65.44 66.09 67.03 67.17 63.87 63.26 61.37 60.98 59.35 56.61 52.01 49.93 49.59 49.44 49.20 48.88 49.74 49.98 52.95 52.81 53.57 53.36 53.65 52.50 52.53 53.29 53.63 53.96 54.86 61.23 63.72 62.42 62.16 62.03
64.32 63.49 63.70 65.33 66.94 66.80 65.59 66.89 65.90 66.28 65.93 66.00 66.38 61.48 61.95 60.30 59.22 57.84 52.65 49.29 49.30 48.92 48.71 49.88 47.90 50.16 49.28 48.35 50.89 49.86 51.33 51.68 51.71 53.15 51.30 52.29 53.79 53.17 53.88 61.79 62.85 62.16 61.00
62.84 64.25 64.39 64.58 65.51 64.94 65.35 66.07 65.77 66.08 65.34 64.30 61.73 60.52 59.37 58.82 56.17 54.04 50.23 49.02 49.36 48.80 48.22 48.47 48.26 47.54 48.05 47.85 51.29 49.25 48.30 48.98 49.51 49.69 49.76 51.44 50.34 50.92 51.56 52.25 51.61 55.67 60.63
60.98 62.70 61.64 62.05 62.74 64.42 64.66 64.34 63.67 63.99 64.67 62.68 59.68 59.36 58.16 56.45 54.73 51.39 49.33 49.23 49.45 49.22 48.31 48.72 47.79 47.63 46.67 46.74 46.67 45.37 45.49 45.35 45.91 46.71 47.09 48.59 48.24 47.54 49.67 49.47 49.96 50.12 53.18
56.71 61.94 62.03 61.88 62.09 61.74 61.41 61.88 63.55 63.70 63.45 61.89 60.47 59.26 58.30 56.37 52.49 50.54 49.89 49.33 49.22 48.67 48.30 48.91 48.87 47.65 47.58 47.63 45.59 44.14 42.80 44.16 44.51 45.97 45.47 47.32 46.99 47.69 47.75 49.38 48.48 48.95 48.18
54.55 59.22 61.46 62.82 62.40 61.98 62.24 62.45 62.87 63.27 62.29 58.72 57.63 56.57 56.71 55.50 51.49 50.08 49.77 49.55 49.05 49.12 48.52 48.89 49.47 49.12 48.48 48.66 48.18 46.57 41.88 42.54 43.96 44.30 44.44 45.69 46.04 46.67 47.00 47.25 48.39 48.48 46.51
54.47 60.16 61.03 61.26 60.51 60.65 60.96 60.59 60.31 59.84 59.26 56.18 55.08 56.26 55.15 52.68 51.33 50.39 50.36 49.43 49.67 49.35 49.85 50.15 51.56 50.19 50.69 48.29 49.16 49.91 48.01 47.99 44.89 44.09 46.32 44.34 44.68 46.31 45.44 45.35 45.62 46.95 46.14
56.55 58.83 59.23 60.16 59.53 57.11 58.28 60.76 60.61 58.94 55.74 54.50 54.45 53.78 52.72 52.85 52.54 51.74 50.76 50.17 50.41 50.57 51.10 51.69 51.37 51.32 51.12 49.96 49.20 48.60 47.79 47.58 46.37 44.68 42.97 44.41 44.53 44.24 44.57 44.42 43.88 44.38 45.01
60.23 59.43 59.48 59.41 57.19 57.27 57.50 59.21 58.90 55.14 53.64 52.80 52.72 52.36 52.35 52.04 52.23 52.50 52.38 51.55 51.61 50.86 50.29 49.80 50.04 50.24 50.04 49.83 49.87 49.73 48.71 47.01 45.85 44.84 43.74 43.59 42.14 44.21 43.27 43.04 42.38 42.83 43.54

GFSSE_sfc_wetblb_129.txt.gz
Wetbulb
68.12 71.43 77.30 77.64 77.26 76.42 76.07 76.48 75.85 74.55 73.31 73.93 74.23 74.82 74.74 74.22 73.07 72.31 71.82 72.34 72.55 73.92 74.21 74.35 74.91 74.84 74.81 74.82 74.93 74.84 75.01 74.93 74.67 74.33 74.44 74.90 75.10 74.71 74.79 74.86 74.68 72.47 74.86
69.78 72.46 77.55 77.78 77.59 76.74 76.30 76.52 75.86 74.51 73.25 73.57 74.13 74.96 74.63 73.88 72.87 72.17 71.82 71.93 72.49 73.01 73.46 74.01 74.49 74.62 74.82 74.57 74.36 74.46 74.35 74.41 74.14 73.74 73.45 73.99 74.06 74.77 74.33 74.77 74.95 73.30 74.54
69.84 73.35 76.04 77.77 77.51 77.23 76.93 76.45 75.74 74.42 73.33 73.25 73.55 74.88 74.57 73.35 72.41 72.14 71.93 71.76 71.74 72.56 73.62 73.75 74.21 74.26 74.44 74.34 74.31 74.23 73.82 73.55 73.06 72.77 72.87 70.54 71.67 74.41 74.15 74.51 74.72 74.93 74.28
70.92 73.01 75.45 77.90 77.49 77.26 76.93 76.57 76.10 74.54 73.65 73.14 72.99 74.00 73.99 73.03 72.19 72.10 71.79 71.74 71.73 72.73 73.27 73.40 74.06 73.97 73.81 73.72 73.69 73.57 73.34 73.32 72.63 72.06 69.68 69.60 70.64 73.67 73.91 74.05 73.96 73.87 73.86
71.49 72.93 75.25 77.18 77.10 77.00 76.67 76.14 76.29 74.81 73.55 73.10 73.29 74.40 73.91 73.02 72.08 72.02 71.65 71.46 71.45 72.11 73.08 73.00 73.58 73.38 73.08 73.08 73.13 72.97 73.11 72.85 72.17 70.67 69.02 67.93 68.27 71.54 73.36 73.16 73.11 73.35 73.35
72.16 72.20 75.71 76.88 76.93 76.54 75.92 75.63 76.05 75.05 73.84 73.16 73.49 74.50 73.90 72.96 71.99 71.83 71.45 71.23 71.29 71.84 72.21 72.23 72.68 72.79 72.73 72.69 72.71 72.61 72.45 71.95 70.72 69.45 69.51 70.54 70.29 72.19 72.14 72.16 73.26 73.56 73.34
71.52 72.39 74.76 76.07 76.22 76.26 75.52 75.75 75.45 74.87 74.58 73.88 73.60 74.32 73.78 72.97 72.00 71.56 70.88 70.71 71.01 71.22 71.17 71.37 72.26 72.08 72.32 72.33 72.30 72.09 71.85 71.13 67.63 67.69 68.22 68.76 70.01 73.05 72.58 71.56 71.23 71.41 72.38
71.87 72.56 74.24 75.52 75.77 75.53 75.51 75.63 75.18 74.32 74.48 74.27 73.70 74.34 73.52 73.02 71.97 71.51 70.56 69.90 70.78 71.44 71.27 71.10 71.91 71.59 71.29 71.26 71.27 70.88 70.23 68.87 66.73 66.42 67.78 68.84 71.68 72.17 72.31 72.23 71.41 71.42 71.29
72.63 72.49 72.37 72.13 73.50 74.97 75.14 75.22 74.81 74.30 73.73 74.05 73.95 73.69 73.34 73.09 71.96 71.45 70.43 69.30 69.62 71.27 70.91 71.87 71.68 71.07 70.56 70.08 69.99 69.78 69.07 67.77 63.13 64.86 67.19 68.53 71.77 71.42 71.71 71.34 71.06 71.38 71.15
67.53 70.31 65.75 65.66 71.05 71.45 72.58 74.65 74.18 74.23 73.71 73.19 73.37 73.26 73.11 72.70 72.48 71.25 70.22 69.11 68.46 70.55 70.57 70.84 70.96 70.02 69.81 69.24 68.77 68.34 67.22 65.74 61.36 62.41 64.63 67.54 70.12 70.26 70.35 70.15 70.32 70.32 69.96
66.04 65.38 63.35 64.12 63.38 68.79 70.06 72.11 73.62 73.85 73.61 72.66 72.33 72.82 72.00 69.20 69.41 68.71 69.16 69.25 67.88 69.81 70.19 69.72 70.06 69.32 68.53 67.94 67.44 66.45 64.22 60.40 61.20 61.74 63.85 67.81 68.13 68.47 68.24 67.76 67.60 67.56 67.71
65.27 65.05 63.22 61.89 62.48 63.07 71.01 70.45 69.22 70.79 69.37 67.97 69.66 68.44 68.07 66.84 66.55 67.23 69.16 69.43 67.25 68.74 69.64 69.11 69.31 68.03 63.97 60.47 61.57 62.34 59.48 59.61 60.24 61.02 63.85 67.84 67.13 67.56 67.46 67.02 66.86 66.63 66.53
63.15 63.68 61.87 61.65 63.09 62.49 66.60 68.58 68.00 67.09 68.33 68.41 67.21 67.31 67.10 66.37 66.65 65.24 64.70 63.30 60.44 65.62 62.97 62.17 60.72 58.20 57.61 58.40 57.86 58.23 58.85 58.90 59.16 60.67 65.12 67.39 66.58 66.96 66.98 66.37 65.82 65.66 65.62
60.18 60.69 59.95 62.14 62.43 63.12 65.23 68.54 67.91 67.48 68.51 67.85 66.78 66.98 66.39 64.81 63.22 62.18 61.25 58.38 57.96 58.03 57.89 57.23 57.23 56.33 56.85 56.91 56.67 56.97 57.29 58.09 58.83 59.90 64.37 66.65 66.18 66.19 66.14 65.66 65.37 65.03 64.80
57.57 59.11 60.63 62.46 62.37 66.31 67.44 68.18 67.54 67.06 68.12 67.18 66.19 66.54 66.09 64.12 62.20 60.49 58.94 57.33 56.66 57.27 56.74 55.40 55.05 56.25 55.88 56.08 56.63 56.86 56.47 56.88 57.76 59.14 60.61 66.06 65.75 65.24 65.23 65.31 64.95 64.58 64.17
58.24 59.33 62.12 62.26 65.42 64.05 64.17 66.77 66.75 66.55 67.59 66.85 65.77 66.17 65.38 63.75 61.71 59.80 57.55 56.07 55.42 55.21 53.31 53.19 56.75 56.24 55.47 55.91 56.09 56.19 55.63 56.01 56.78 57.70 58.67 61.71 65.73 65.16 64.55 64.59 64.21 64.00 63.72
59.24 59.42 62.63 64.32 65.26 64.41 66.29 64.88 65.83 65.00 66.61 66.50 65.51 65.15 65.01 63.44 61.57 59.26 56.27 54.59 53.13 50.66 51.31 50.77 53.34 54.83 54.72 55.64 53.91 54.67 55.14 54.52 54.75 54.55 55.25 56.28 59.03 64.91 64.41 63.49 63.33 63.25 63.05
58.27 61.57 63.77 64.35 63.69 64.15 63.56 64.41 65.07 65.32 65.49 66.64 65.99 64.61 64.23 63.38 62.19 58.91 56.21 53.75 50.72 50.35 48.76 51.98 54.02 53.27 52.15 53.88 52.62 53.69 53.42 53.34 52.68 52.85 53.34 53.73 54.21 55.30 61.91 63.87 62.56 62.53 62.33
55.96 63.23 63.21 63.63 64.06 63.35 63.00 64.05 64.27 65.68 65.51 66.57 66.57 63.46 63.24 62.90 61.90 59.40 55.96 52.10 49.12 48.78 48.48 52.13 49.08 53.21 51.60 51.27 52.48 51.72 51.86 51.80 51.75 53.14 51.77 52.57 54.18 53.28 53.82 62.82 63.32 62.37 61.51
56.43 63.52 63.95 64.51 65.27 64.86 64.67 64.76 64.52 65.12 65.44 64.54 65.44 61.86 62.13 60.97 61.04 58.04 53.04 50.10 48.90 48.03 47.62 48.08 48.88 47.48 51.06 51.77 53.44 49.53 48.70 49.42 50.05 50.25 50.39 52.23 51.60 52.23 51.86 51.50 51.94 55.88 61.03
57.87 63.00 63.20 63.77 65.60 65.14 63.96 63.99 64.29 63.93 64.36 63.03 62.98 61.76 59.97 59.44 59.48 55.26 50.22 48.52 48.43 48.82 48.24 48.24 46.84 48.23 45.83 47.25 47.48 46.08 45.90 45.73 46.46 47.35 47.40 48.39 47.95 49.07 49.93 49.48 50.24 50.60 53.30
55.58 62.06 61.84 62.92 63.68 63.91 63.95 63.98 63.85 64.19 63.62 61.32 61.62 60.12 59.18 57.08 56.33 55.08 49.58 48.34 48.43 47.71 47.66 47.79 48.02 46.43 45.67 45.66 45.02 44.46 43.10 45.21 44.39 45.41 45.18 47.19 46.56 46.09 47.78 47.96 48.56 49.00 48.29
54.79 61.74 61.16 61.72 61.84 62.14 62.88 63.51 62.37 61.50 60.08 58.31 58.10 57.30 55.53 56.25 54.32 51.90 49.02 49.14 48.22 48.81 48.41 47.53 47.95 47.41 45.42 46.16 46.03 45.51 42.18 42.07 42.05 42.87 43.29 44.51 45.79 45.59 45.65 46.92 47.42 48.34 46.58
53.90 61.42 62.09 61.90 61.59 61.79 61.59 61.42 61.25 59.08 56.56 54.98 54.58 54.45 53.45 53.18 52.60 52.20 49.74 48.86 49.03 48.66 48.95 48.46 49.17 48.27 47.43 45.78 47.49 49.32 48.43 47.38 44.39 42.83 43.53 43.71 46.08 47.12 46.36 45.36 46.06 46.98 46.60
56.26 59.86 59.49 58.87 58.15 58.94 60.01 59.72 59.31 58.05 56.23 54.74 54.18 53.14 54.18 53.21 53.28 52.38 50.37 49.36 48.75 48.81 48.68 49.88 48.82 48.15 48.31 47.70 47.50 48.02 47.72 47.11 46.29 44.65 42.88 44.61 45.85 45.70 45.70 44.84 44.82 45.25 46.44
59.56 59.76 58.48 56.87 56.71 57.41 59.20 58.62 57.78 56.06 55.71 54.20 52.78 51.19 51.25 51.91 52.36 52.54 52.22 50.86 49.58 49.50 50.11 50.19 50.14 50.07 50.13 50.00 50.35 49.94 48.54 46.93 45.70 45.07 43.90 44.15 44.27 45.26 43.33 41.98 41.48 42.31 44.34

GFSSE_sfc_wetblb_132.txt.gz
Wetbulb
65.84 71.35 77.44 77.47 76.47 75.65 76.62 75.63 74.28 74.05 74.68 74.88 75.04 74.34 73.54 72.66 72.08 72.70 73.28 74.25 74.53 74.60 74.73 75.04 75.16 75.20 75.09 75.18 75.20 74.96 74.98 74.46 74.58 74.45 74.39 75.00 74.77 74.88 74.77 75.14 74.83 72.70 74.88
67.63 71.64 76.99 77.40 76.76 75.82 76.63 75.93 74.52 73.89 74.14 74.79 75.19 74.91 73.58 72.82 72.09 71.87 72.41 72.84 73.70 74.05 74.60 74.86 74.84 75.00 74.92 74.82 74.77 74.67 74.41 73.98 73.85 73.80 73.55 74.10 74.06 74.75 74.56 74.91 74.86 74.06 74.68
68.86 72.11 75.10 76.86 77.25 76.25 76.65 75.96 74.55 73.65 73.84 74.80 75.11 74.79 73.61 72.57 72.07 71.75 72.35 72.27 73.50 73.90 74.24 74.54 74.65 74.59 74.50 74.41 74.44 73.90 73.28 73.21 72.99 72.74 72.54 70.89 72.07 74.96 74.21 74.83 74.81 74.92 74.45
69.99 73.06 74.75 76.38 76.69 76.99 76.00 75.62 74.87 73.49 73.60 74.48 75.06 74.53 73.02 72.33 72.10 71.92 71.74 72.38 73.22 73.55 74.17 74.22 74.12 74.02 74.17 74.18 73.74 73.32 73.33 73.09 72.47 71.35 68.73 69.01 71.07 74.03 74.19 74.09 73.87 73.89 73.66
71.01 72.96 74.74 76.55 76.05 76.25 75.60 75.18 74.93 73.49 73.32 73.64 74.67 74.02 73.00 72.27 71.96 71.79 71.80 72.31 73.13 73.42 73.79 73.46 73.47 73.51 73.58 73.58 73.25 72.94 72.99 72.54 71.99 70.13 68.09 67.80 69.69 72.46 73.61 73.30 72.96 73.24 73.49
70.04 72.05 75.17 76.24 75.86 76.40 75.84 75.15 75.07 73.72 73.16 73.12 74.14 73.95 73.25 72.00 71.69 71.59 71.45 71.64 72.82 72.87 73.31 73.20 72.91 73.10 73.06 72.94 72.67 72.82 72.92 72.27 70.88 68.87 69.08 70.67 69.07 72.07 72.53 72.76 72.90 73.22 73.08
71.10 72.21 74.44 76.37 75.80 75.55 75.24 75.08 74.87 74.22 73.45 73.54 74.57 74.17 73.20 72.05 71.71 71.38 71.28 71.40 72.04 71.74 72.80 72.83 72.84 72.66 72.51 72.30 72.20 72.56 72.21 71.17 67.62 67.76 68.23 69.29 70.11 72.25 71.51 72.10 71.96 72.44 72.40
71.13 72.79 73.53 74.65 75.17 75.29 75.23 74.88 74.74 74.38 73.75 73.50 74.26 73.85 73.57 71.95 71.50 71.06 70.96 71.14 70.91 71.21 71.99 72.04 71.68 71.62 71.88 71.89 71.84 71.45 70.65 69.25 67.33 67.82 68.34 69.18 71.74 72.14 71.92 71.38 71.32 71.54 71.63
72.02 72.48 69.97 69.67 72.20 73.73 74.66 74.86 74.54 74.28 74.17 73.64 74.00 73.91 73.18 72.42 71.24 70.58 70.29 70.96 71.44 71.18 71.71 71.78 71.28 71.53 71.68 71.39 70.88 70.34 69.61 68.23 64.02 65.67 67.87 68.22 71.30 71.01 71.60 71.22 70.99 70.83 70.50
68.73 65.99 65.45 65.32 65.20 65.92 69.80 73.84 74.01 74.36 73.92 74.10 73.96 73.41 72.27 72.74 71.86 70.44 69.58 70.73 71.39 71.55 71.89 71.22 70.32 70.38 70.30 70.33 69.53 68.51 67.51 66.05 62.05 63.64 65.93 67.73 69.70 69.91 69.68 69.09 69.20 69.40 70.08
66.78 64.07 63.87 63.58 64.44 64.59 65.81 67.05 73.08 73.63 74.14 74.13 73.62 73.06 71.51 68.64 69.08 67.67 68.51 69.88 71.12 70.99 70.92 70.27 69.79 69.40 68.96 68.54 67.82 66.68 64.37 60.80 62.36 62.61 64.72 68.61 68.29 68.36 68.04 67.57 67.32 67.27 67.29
63.99 64.52 63.51 63.82 64.23 64.53 64.99 64.81 65.60 70.13 70.53 68.78 69.63 69.11 68.23 67.46 67.20 67.31 68.75 69.66 70.67 70.32 70.59 69.91 68.94 67.88 63.52 59.85 61.66 62.50 59.70 60.02 60.90 61.58 64.42 68.06 67.38 67.76 67.58 67.06 66.69 66.63 66.65
63.61 64.19 63.58 63.27 64.29 65.18 64.74 64.23 63.55 66.44 67.93 68.10 68.14 68.22 66.60 67.06 67.16 65.94 65.66 62.64 63.68 66.94 63.21 63.63 59.29 57.78 57.35 58.47 58.20 58.48 59.17 59.34 59.75 61.12 65.68 67.74 67.07 66.95 66.87 66.43 65.94 65.70 65.59
61.49 62.68 62.41 61.72 62.43 63.32 63.83 63.34 63.06 66.78 68.18 68.33 68.03 67.55 65.87 65.47 64.47 63.14 62.51 58.59 58.61 61.44 57.96 56.88 56.00 56.33 56.81 56.92 56.93 57.15 57.69 58.49 59.27 60.24 64.38 67.07 66.38 66.21 66.38 65.98 65.43 64.99 64.65
57.81 59.49 58.73 60.89 61.40 62.86 63.49 64.92 65.42 67.53 68.21 68.37 67.54 67.10 66.23 64.67 63.22 61.57 58.55 57.10 57.35 58.30 57.08 55.32 55.48 56.19 56.00 56.27 56.75 56.93 56.75 57.32 58.22 59.39 61.04 66.21 66.46 65.60 65.52 65.44 65.10 64.73 64.36
56.26 57.60 60.28 61.34 63.60 64.54 64.99 64.42 66.38 67.79 68.08 67.26 67.12 66.52 65.61 64.46 62.44 60.74 57.41 56.22 56.35 56.22 54.34 55.40 55.95 55.92 55.17 56.12 56.17 56.44 55.96 56.53 57.15 58.05 59.17 62.13 65.80 65.49 64.88 64.84 64.57 64.27 63.88
52.11 57.87 60.56 61.21 64.72 62.82 65.54 62.84 63.27 65.86 67.17 66.68 66.51 66.22 64.96 63.56 61.77 59.61 56.97 55.80 54.46 52.57 52.40 54.73 54.17 54.93 55.00 55.59 53.95 54.84 55.48 55.02 55.21 55.38 56.32 57.33 59.86 64.96 64.68 63.86 63.76 63.71 63.44
52.25 57.54 61.09 62.66 64.30 63.70 64.13 62.58 62.88 64.79 65.35 66.19 65.18 65.55 64.28 63.05 61.12 58.30 56.20 55.09 51.36 50.75 53.35 55.21 55.43 53.43 53.77 54.11 52.94 53.75 53.33 53.20 52.92 53.38 54.18 54.48 54.93 56.45 62.62 64.18 63.02 63.08 62.77
52.61 55.56 59.72 62.95 63.25 63.13 62.86 63.07 63.62 63.49 65.10 66.12 64.64 64.52 64.00 62.94 61.18 58.13 55.97 52.95 50.59 49.44 53.29 54.83 52.72 54.88 53.43 52.53 52.99 51.72 51.21 51.25 51.57 53.14 52.28 53.74 54.13 53.84 55.66 63.43 63.62 62.83 61.98
53.37 56.38 61.51 62.77 62.47 62.85 63.35 63.39 62.52 63.59 65.14 65.07 64.55 63.01 63.14 62.81 61.13 57.79 54.48 51.11 49.79 49.37 50.54 52.46 52.35 49.87 53.13 52.85 53.29 48.69 48.28 48.79 50.12 50.26 50.65 52.25 51.80 51.80 51.76 52.29 53.03 57.03 61.29
54.92 62.00 62.56 61.97 61.88 63.53 62.33 62.06 60.87 61.07 63.92 64.36 64.03 62.08 61.31 62.20 61.23 55.73 53.39 49.16 48.43 49.57 51.04 52.05 49.91 50.85 47.34 48.34 47.40 45.98 45.64 46.12 47.44 47.72 47.63 48.41 49.11 49.63 49.85 50.71 50.93 51.73 54.10
54.14 60.93 62.81 63.29 63.34 63.83 63.45 62.63 62.80 62.53 63.95 61.20 60.35 59.04 60.47 61.29 60.61 55.57 51.82 48.98 47.81 47.48 48.45 50.03 50.40 46.58 45.41 47.12 46.62 44.86 44.06 45.56 44.98 47.22 47.40 47.44 46.26 46.02 48.59 48.39 49.37 50.02 49.56
54.03 60.07 61.58 62.71 64.01 64.28 64.15 63.19 61.65 60.53 59.86 58.55 57.80 55.96 55.75 57.78 55.73 56.30 51.81 50.15 47.84 48.29 48.87 48.37 49.27 47.95 46.39 45.63 46.61 45.28 40.50 41.26 43.89 45.51 45.70 45.92 46.21 45.37 45.47 47.19 47.58 48.93 47.92
54.48 60.59 61.88 61.52 61.65 62.52 63.89 62.61 61.61 60.44 57.53 56.37 55.46 55.26 54.89 55.50 55.25 53.52 51.18 47.82 47.11 46.99 46.65 47.90 49.04 47.97 49.29 47.48 46.66 47.78 45.60 46.56 44.27 43.38 45.78 45.77 46.44 47.23 46.44 46.81 47.91 47.54 47.73
58.50 59.19 58.92 59.47 59.85 60.80 61.47 61.56 60.49 58.53 57.53 57.77 55.03 53.56 53.95 54.36 54.20 52.88 51.67 48.98 46.97 46.59 46.63 47.67 47.07 46.99 46.90 46.72 46.95 47.22 47.20 46.66 46.23 45.28 43.01 44.19 44.84 44.38 46.38 46.97 45.72 45.47 46.55
58.47 57.80 57.71 57.21 57.59 59.23 59.59 59.59 58.35 56.53 55.15 54.01 54.25 53.49 52.91 52.53 52.47 52.77 52.03 50.65 49.20 48.87 47.54 47.29 47.76 48.87 49.77 49.84 49.71 49.15 48.08 46.64 45.75 45.28 43.74 44.00 44.75 45.79 45.12 44.17 43.16 42.87 44.16

GFSSE_sfc_wetblb_138.txt.gz
Wetbulb
72.13 75.63 76.88 77.09 76.26 75.19 74.62 74.22 74.19 73.87 73.94 73.56 73.12 72.99 73.41 73.79 75.10 75.32 75.36 75.35 75.48 75.56 75.59 75.59 75.61 75.76 75.61 75.30 75.03 74.65 74.73 74.83 74.73 74.61 74.78 75.17 75.31 75.02 74.92 75.59 74.66 74.20 74.80
72.56 75.90 77.06 77.07 76.65 75.49 75.32 74.68 74.12 73.21 73.29 73.96 73.26 72.55 72.57 73.51 74.41 74.84 74.98 74.95 74.91 75.14 74.98 75.20 75.28 75.20 75.18 74.90 74.77 74.42 74.38 74.31 74.38 74.97 75.14 74.31 74.12 74.79 74.24 75.22 74.94 73.90 74.36
72.17 76.09 76.27 76.85 77.31 76.45 75.10 75.50 74.84 74.45 74.46 74.41 73.50 72.89 72.54 73.08 73.44 74.08 74.55 74.69 74.69 74.93 74.93 74.78 74.93 74.66 74.63 74.26 74.02 73.82 73.74 73.40 73.60 74.79 74.37 73.60 74.13 74.90 73.96 74.39 74.53 74.51 73.74
72.37 75.79 76.08 76.91 77.27 76.34 76.13 75.92 75.77 75.45 75.53 74.93 74.25 72.94 72.43 72.38 72.97 73.35 74.11 74.31 74.46 74.75 74.81 74.83 74.53 74.36 74.29 73.94 73.26 73.07 73.04 72.91 74.19 74.58 72.71 72.50 73.18 74.14 74.16 73.80 73.64 73.94 73.88
72.45 75.82 75.60 76.70 76.83 76.48 75.46 75.76 75.00 75.24 75.57 75.08 74.82 73.18 72.56 72.29 72.67 73.02 73.60 74.11 74.24 74.46 74.47 74.32 74.25 74.10 73.73 72.93 72.53 72.62 72.37 72.27 73.57 72.20 72.38 72.55 73.20 73.36 73.70 73.60 73.49 73.50 74.04
72.75 75.40 76.05 75.95 76.12 75.89 75.20 75.15 75.13 75.20 75.64 74.97 74.85 73.08 72.48 72.48 72.32 73.57 73.62 73.84 73.93 73.83 73.83 73.78 73.70 73.50 73.13 72.64 73.02 72.91 72.65 73.60 72.78 71.37 71.43 72.54 72.78 73.14 73.18 72.92 73.10 73.34 73.50
72.10 74.24 76.47 75.58 75.73 75.71 75.29 75.19 74.77 75.02 75.46 75.26 74.88 73.99 73.03 72.29 72.24 73.27 73.64 73.50 73.44 73.38 73.41 73.39 73.25 73.19 73.35 72.93 73.17 72.54 72.37 73.52 71.62 71.27 70.54 71.02 71.81 72.36 72.57 72.57 72.36 72.39 72.35
71.70 73.67 75.11 75.43 75.55 75.69 75.20 75.22 75.20 74.61 74.99 74.70 75.03 73.91 72.98 72.47 71.88 72.65 73.09 73.22 73.03 72.73 72.96 72.85 72.62 72.87 72.73 72.54 72.45 71.98 72.41 72.40 70.66 70.40 71.61 71.49 72.08 71.85 71.76 71.76 71.39 71.40 71.69
72.03 73.02 74.94 75.39 74.73 75.04 75.60 75.24 75.37 74.75 74.73 74.90 74.26 74.20 73.18 71.81 71.73 72.26 72.19 72.72 72.78 72.41 72.30 72.37 72.23 72.52 72.35 72.16 71.77 71.21 71.38 71.76 70.38 69.78 69.54 69.91 70.87 70.84 71.25 70.80 70.65 70.60 70.43
71.99 73.00 73.87 73.81 73.28 74.31 74.28 74.18 74.35 74.16 74.73 74.93 73.83 73.42 72.82 71.47 72.26 72.17 72.43 72.52 72.55 72.02 71.97 71.95 72.08 72.05 71.68 71.25 70.53 69.98 70.76 70.78 69.54 68.81 68.43 67.79 69.56 68.92 69.36 68.91 68.68 68.72 68.87
71.51 72.11 73.93 73.49 73.62 73.11 74.25 74.22 74.15 73.39 73.39 73.95 73.42 72.98 72.50 70.65 70.84 71.00 72.02 72.41 72.15 71.55 71.64 71.41 71.10 70.83 70.26 69.48 68.75 68.45 70.57 68.95 68.04 67.46 67.18 67.89 68.46 68.50 68.20 67.77 67.48 67.47 67.55
68.35 70.76 71.77 72.74 72.79 72.60 70.53 72.03 71.82 71.83 70.05 69.99 72.25 72.02 72.02 70.31 70.62 70.10 71.62 72.15 71.65 71.21 71.01 70.82 70.30 69.50 70.66 69.27 68.16 68.20 68.52 67.72 66.90 66.96 66.99 68.41 67.97 67.77 67.56 67.08 66.90 66.70 66.70
69.48 69.47 70.54 71.59 72.39 71.94 70.40 70.07 69.01 66.62 65.62 67.99 69.59 71.43 71.53 71.62 69.27 69.03 71.03 71.10 71.08 70.84 69.68 69.62 68.63 67.81 67.43 67.89 68.15 68.04 67.14 66.25 66.32 66.34 67.02 68.07 67.18 66.99 66.88 66.38 66.04 65.85 65.94
63.71 68.48 70.77 70.47 70.75 71.56 71.30 70.15 69.41 68.72 65.72 65.68 68.41 68.47 69.76 70.19 67.46 67.01 68.85 69.01 69.17 69.92 68.29 67.69 66.45 66.18 66.12 66.26 66.43 66.27 65.65 65.66 65.69 65.75 66.30 67.32 66.64 66.42 66.48 66.05 65.58 65.28 65.06
59.72 63.34 67.20 70.13 69.85 69.40 68.76 68.95 69.12 68.82 68.31 67.59 64.24 64.15 67.26 69.38 68.06 66.61 67.92 69.05 68.10 68.39 67.49 65.37 65.07 65.00 65.06 65.51 65.37 64.62 64.63 65.30 65.37 65.35 65.61 66.70 66.96 65.98 65.76 65.63 65.34 65.00 64.72
59.74 60.46 61.91 64.98 69.45 69.87 68.28 67.96 68.10 68.12 67.90 68.41 66.64 65.85 67.56 68.92 68.37 66.81 66.60 67.78 67.94 67.23 65.10 63.97 62.88 63.26 63.59 63.87 63.51 64.03 64.41 64.71 64.80 64.84 64.84 65.56 66.39 66.12 65.30 65.16 65.01 64.73 64.61
59.91 60.32 60.73 62.42 66.58 68.04 67.98 67.94 68.08 68.86 69.33 66.84 67.02 68.11 68.95 69.75 68.03 66.30 65.99 66.23 66.56 66.85 64.70 63.90 62.80 63.28 63.23 63.37 63.23 63.60 63.80 63.93 64.07 64.11 64.07 64.31 64.60 65.38 65.32 64.32 64.24 64.09 63.94
59.47 59.73 60.53 61.66 64.50 66.89 67.88 67.65 67.22 68.31 68.76 68.21 67.23 68.15 68.90 68.90 67.87 65.38 64.93 65.17 66.57 65.70 64.39 63.23 62.27 62.19 62.42 62.46 62.27 62.43 62.76 63.03 63.06 63.21 63.48 63.52 63.06 62.99 64.43 64.92 63.58 63.44 63.14
59.30 59.70 59.84 61.39 64.30 66.29 66.77 67.34 67.41 67.14 67.45 67.64 67.39 67.65 67.86 67.29 66.55 65.22 63.74 65.37 64.74 64.46 63.66 62.82 62.09 61.41 60.45 61.32 61.33 61.76 61.98 61.84 61.72 61.47 61.76 62.44 62.95 63.07 62.65 63.54 63.99 63.44 62.45
59.32 59.80 60.05 60.86 64.47 65.80 65.60 66.36 66.13 65.94 66.56 67.59 66.25 66.81 65.77 65.33 65.40 64.10 62.96 63.85 63.52 63.48 62.60 62.72 61.47 61.63 61.05 60.78 59.92 59.94 60.79 60.97 60.99 60.38 60.43 60.68 61.62 61.56 61.65 61.72 62.21 61.78 61.47
58.42 59.16 60.13 61.45 63.91 65.03 64.14 64.61 63.84 64.65 64.99 64.56 65.30 65.49 65.38 64.26 63.87 63.18 62.72 62.98 63.31 62.69 62.59 62.78 61.52 60.31 59.88 60.60 58.96 58.32 58.70 59.49 59.31 59.45 59.79 59.29 59.80 60.02 60.38 60.85 61.03 60.94 60.04
58.06 59.85 62.01 63.10 63.93 64.31 64.53 65.13 65.34 64.62 65.31 66.16 64.65 64.85 65.42 63.73 62.37 61.11 61.40 61.73 61.72 62.16 62.24 61.80 60.86 59.68 59.99 59.90 57.02 56.36 53.39 55.34 57.43 57.73 58.34 58.05 57.86 58.59 58.95 59.54 59.92 60.07 59.98
59.15 60.66 62.05 62.34 63.26 64.34 64.90 65.79 64.93 62.48 60.46 59.64 61.08 62.65 64.35 61.95 59.92 60.76 59.85 58.34 59.29 61.54 61.51 61.38 61.61 60.56 58.03 59.33 59.28 57.20 53.16 51.86 54.46 56.87 56.59 57.13 56.97 56.42 57.27 58.03 57.45 58.45 59.32
59.92 62.04 63.44 63.30 63.27 65.40 65.12 65.28 63.11 61.14 58.34 58.47 57.30 58.28 60.47 61.73 58.87 59.39 59.83 60.50 58.73 61.42 61.72 61.84 62.07 60.92 60.04 57.23 58.32 57.05 57.69 57.07 52.70 51.72 55.69 56.16 56.34 56.10 55.61 55.38 56.38 56.86 57.83
58.99 60.17 62.30 63.64 63.25 65.25 65.34 65.14 63.76 60.10 58.47 58.01 57.29 57.13 58.20 58.64 58.45 55.66 56.56 57.64 58.72 60.52 61.58 61.92 61.86 61.72 61.06 59.19 57.71 56.17 55.72 55.82 56.32 53.95 51.48 53.00 54.62 54.94 52.16 54.51 56.88 55.91 57.11
58.71 59.60 60.78 60.95 60.74 62.50 63.32 63.45 61.92 59.53 57.67 57.02 57.14 56.86 57.62 58.11 57.09 53.87 53.75 52.69 54.42 56.07 59.56 60.44 61.54 62.07 61.44 60.72 59.10 58.00 56.00 54.25 53.52 53.53 52.72 52.72 52.58 49.69 50.51 50.85 50.74 49.17 51.25

GFSSE_sfc_wetblb_144.txt.gz
Wetbulb
73.28 74.71 77.09 75.97 75.44 75.65 75.63 75.45 75.50 75.41 75.24 75.60 74.63 73.76 74.52 75.43 75.65 75.61 75.51 75.75 75.93 75.51 75.55 75.48 75.28 75.57 75.49 75.26 75.42 74.89 75.08 75.00 75.30 74.77 74.60 75.00 75.14 74.81 74.66 75.05 75.18 73.31 75.78
73.66 74.98 77.07 76.49 75.36 75.37 75.47 75.50 75.20 74.80 74.41 73.90 73.56 73.62 74.97 75.17 75.40 75.41 75.38 75.53 75.47 75.47 75.42 75.21 75.10 75.40 74.91 74.91 74.79 74.59 74.44 74.98 75.42 75.37 74.33 73.72 73.90 74.59 74.25 75.07 74.86 74.43 75.30
73.00 75.16 75.29 76.55 75.82 75.03 74.81 74.72 74.20 74.18 73.44 72.98 73.05 73.25 74.41 75.01 75.10 75.23 75.06 75.06 75.04 75.32 75.08 75.05 74.72 74.66 74.24 74.27 74.09 74.37 75.03 74.72 74.90 74.89 73.93 71.03 71.32 74.36 73.71 74.88 75.09 75.39 75.16
73.74 74.92 74.62 76.86 76.32 75.86 75.37 74.66 73.79 73.51 73.59 73.05 72.73 72.86 74.01 74.41 74.67 74.63 74.68 74.79 74.72 75.07 74.87 74.58 74.48 74.06 73.77 73.45 73.73 74.30 74.47 74.62 74.30 73.36 70.91 70.86 71.20 73.68 73.78 74.22 74.18 74.14 74.04
73.78 74.93 75.04 76.97 76.64 76.32 76.20 75.62 74.57 74.21 74.32 73.52 72.82 72.71 73.28 73.86 74.57 74.45 74.46 74.65 74.72 74.79 74.59 74.25 73.90 73.47 73.11 73.15 74.26 74.47 74.20 74.54 73.58 71.41 70.14 69.80 70.19 72.64 73.30 72.91 73.06 73.35 73.77
73.28 74.43 76.17 77.02 77.02 76.52 76.50 75.97 75.54 75.28 74.66 73.91 72.97 72.45 72.57 73.31 73.97 74.36 74.14 74.19 74.31 74.52 74.39 73.77 73.19 72.91 73.13 73.91 74.04 73.55 73.72 73.60 71.94 69.59 69.12 70.47 69.75 72.60 72.81 72.32 73.20 73.42 73.37
72.39 74.58 75.15 77.15 76.74 76.64 76.47 75.80 75.63 75.41 75.05 74.82 73.86 72.93 72.43 72.83 73.56 74.23 74.07 73.64 74.13 73.94 74.05 73.38 73.03 73.11 73.41 73.47 73.35 73.18 73.79 72.73 68.84 68.36 68.59 68.75 69.73 72.04 72.10 72.19 72.42 72.47 72.63
70.96 74.67 74.82 76.67 76.91 76.30 76.24 75.84 75.59 75.67 75.04 74.77 74.46 74.00 73.09 72.88 73.92 73.99 73.80 73.71 73.76 73.55 73.40 73.25 72.98 72.89 72.82 72.65 73.15 72.62 72.56 71.53 68.81 67.43 67.36 68.11 71.01 71.00 71.31 71.07 70.99 71.58 72.03
71.36 73.83 74.06 73.94 75.30 75.92 75.42 75.59 75.31 75.21 74.64 74.41 74.41 73.87 73.46 73.44 73.28 73.41 73.42 73.44 73.17 73.12 73.04 72.75 72.82 72.43 72.40 72.12 72.35 72.15 71.62 70.02 65.16 65.96 67.02 66.90 70.12 69.47 69.59 69.51 69.66 69.88 70.31
72.04 71.03 73.20 72.95 72.77 72.80 73.29 74.58 74.28 74.86 74.44 74.15 73.80 73.66 72.81 73.07 72.86 72.37 72.75 73.22 72.95 72.80 72.72 72.49 72.29 72.19 71.81 72.22 71.85 71.60 71.16 68.50 64.18 63.89 65.10 66.36 68.53 68.93 68.73 68.27 68.60 68.88 69.55
70.81 71.21 71.13 72.31 71.73 71.87 71.55 72.02 73.65 73.83 73.87 73.15 72.63 72.63 71.44 67.81 69.81 69.91 71.93 72.68 72.61 72.53 72.49 72.04 71.91 71.17 70.69 70.60 70.16 69.62 68.58 64.47 63.76 64.08 64.63 67.61 68.37 68.41 68.19 67.87 67.78 67.80 67.99
66.74 68.12 70.00 70.55 70.41 70.92 71.82 70.35 70.32 70.20 68.38 69.24 70.10 69.21 68.25 67.38 67.31 68.63 70.82 71.58 72.04 72.06 72.09 72.00 71.27 70.85 68.89 65.13 65.63 67.85 64.28 63.52 62.93 63.54 64.13 67.68 67.73 67.86 67.73 67.35 67.12 67.04 67.09
64.07 68.02 69.25 69.64 70.38 70.06 69.91 68.48 68.29 69.23 68.27 67.35 68.19 67.23 66.20 66.57 64.32 67.23 67.68 68.79 67.99 70.23 68.92 68.94 67.86 67.75 64.83 65.82 65.23 64.76 63.94 62.89 62.42 63.06 65.39 66.53 67.05 67.02 67.11 66.81 66.55 66.45 66.41
56.84 59.81 69.31 69.60 69.02 69.51 69.72 69.27 68.11 68.00 67.28 67.08 66.67 66.98 64.29 63.76 64.53 65.78 66.90 67.72 67.25 67.06 66.21 65.46 65.18 62.69 64.71 65.34 64.06 61.61 62.69 61.86 62.16 61.71 64.73 66.99 66.87 66.50 66.75 66.68 66.38 66.12 65.94
55.62 58.70 60.89 68.14 68.43 69.38 68.98 68.42 67.07 67.41 66.35 66.58 65.90 65.90 63.42 63.08 62.55 63.24 64.47 66.96 66.83 66.71 64.85 62.79 60.39 60.46 59.95 60.08 61.61 62.65 61.85 61.66 60.51 62.50 62.25 64.86 66.94 66.18 66.26 66.50 66.37 66.14 65.90
56.50 57.60 59.42 60.41 66.34 68.35 67.37 67.62 67.74 66.51 66.48 65.64 65.95 64.35 63.15 63.06 63.49 62.76 62.17 65.27 66.28 65.79 62.62 60.50 59.79 59.27 60.06 60.59 59.00 61.86 62.02 61.26 61.41 60.46 60.98 63.29 66.30 66.50 65.90 66.04 65.92 65.83 65.73
55.70 57.21 58.64 60.03 60.77 61.78 67.91 67.76 67.44 67.50 67.29 66.83 66.48 64.61 63.83 61.82 61.73 60.80 62.83 65.88 66.01 62.11 60.12 59.38 59.42 59.28 58.61 59.25 57.96 59.30 60.76 60.53 61.17 60.70 60.64 60.27 61.89 65.45 65.76 65.02 65.12 65.15 65.04
56.07 56.41 57.68 60.10 60.18 60.34 66.61 67.48 66.67 67.28 67.29 66.52 65.97 64.52 63.42 61.67 60.01 61.30 63.80 65.57 66.40 62.01 60.68 58.68 58.64 58.17 57.74 58.19 57.63 57.87 58.49 60.39 60.48 60.62 60.41 59.60 58.77 60.01 63.61 65.11 64.32 64.34 64.36
56.33 56.45 57.07 58.36 58.50 59.91 61.77 66.02 66.33 66.56 66.47 67.00 66.28 64.69 62.21 63.30 64.09 63.91 64.19 65.36 65.23 61.39 60.06 59.71 58.35 58.02 57.08 56.90 57.90 57.23 57.29 57.47 58.27 59.84 58.41 58.73 59.24 58.93 59.14 64.50 64.85 64.23 63.48
57.37 57.72 57.30 57.63 58.61 58.77 61.89 64.82 65.79 65.73 65.71 66.31 66.20 66.02 64.97 63.78 65.39 65.30 63.61 64.40 62.57 60.06 58.68 58.92 58.10 57.92 57.09 56.16 58.27 56.22 55.48 55.38 56.38 56.57 57.10 59.19 58.73 58.30 57.46 57.33 56.37 59.66 62.99
56.80 56.75 56.89 56.93 57.86 57.84 61.90 62.42 63.02 63.38 63.59 63.53 65.45 66.34 65.94 65.85 65.58 64.41 63.92 63.23 60.96 60.31 59.03 58.49 57.29 56.61 56.05 56.00 54.52 53.45 53.39 53.96 53.92 54.62 55.43 55.91 56.17 56.73 56.52 57.17 55.42 55.07 57.22
58.70 57.64 56.33 56.73 57.96 58.55 62.68 62.58 63.53 63.37 63.93 63.81 64.11 64.72 65.28 65.21 65.19 63.65 63.12 61.15 60.78 59.76 59.74 57.92 57.29 55.74 55.42 55.10 52.21 51.08 48.33 50.39 51.98 53.70 52.99 54.82 53.68 54.66 55.01 55.19 54.75 53.89 53.54
58.07 59.37 59.06 57.93 58.67 59.28 62.27 63.42 63.11 63.10 62.10 62.51 62.94 63.27 63.40 64.27 63.71 63.01 61.95 61.56 60.81 60.19 59.62 58.41 57.57 56.50 54.05 53.36 53.95 51.06 47.93 46.63 48.86 50.15 50.55 51.39 51.07 51.14 51.58 52.13 53.00 53.66 52.70
58.52 61.20 62.01 61.74 60.46 62.21 61.96 61.88 60.48 60.84 58.18 60.52 60.24 61.78 60.74 61.17 61.61 62.07 61.54 61.45 60.84 60.11 59.67 59.23 59.24 57.80 55.88 52.83 53.57 54.91 51.60 51.11 46.97 45.66 49.03 50.00 50.36 50.63 50.09 50.64 50.66 51.52 51.75
59.20 60.42 61.40 62.26 62.89 62.33 61.99 62.53 62.01 59.28 58.52 58.70 59.73 60.11 59.17 58.50 59.79 60.19 59.53 59.78 60.33 59.82 60.15 59.76 58.72 57.85 56.58 54.30 53.51 50.96 50.49 50.07 49.78 48.18 45.08 46.99 49.23 50.30 50.15 49.67 49.34 48.99 50.08
58.98 59.67 59.89 59.89 60.83 61.49 61.39 61.85 59.45 57.34 57.30 57.15 57.46 57.82 58.01 56.49 55.17 56.10 57.86 58.40 59.34 59.54 59.40 59.26 59.14 57.93 57.46 55.65 54.37 52.41 50.89 48.56 47.33 47.36 46.26 46.36 46.60 46.94 45.80 45.90 46.20 46.33 48.30

GFSSE_sfc_wetblb_147.txt.gz
Wetbulb
72.51 74.30 76.95 76.24 76.00 75.98 76.21 76.27 75.76 75.55 75.39 75.23 73.82 74.43 74.98 75.47 75.56 75.60 75.56 75.92 75.80 75.77 75.53 75.47 75.76 75.59 75.64 75.21 75.12 74.83 74.83 74.50 74.21 74.10 74.23 74.77 74.99 74.78 74.64 75.11 74.89 73.10 75.31
73.61 74.70 76.95 76.63 75.99 75.89 75.40 75.71 75.60 74.98 74.33 73.97 73.62 74.21 74.86 75.62 75.44 75.34 75.55 75.63 75.42 75.55 75.34 75.26 75.22 75.27 75.02 74.71 74.38 75.04 74.61 74.28 73.92 73.46 73.54 73.56 73.84 74.74 74.37 74.70 75.10 73.83 74.82
73.58 74.69 75.10 76.64 76.44 75.73 75.71 75.69 75.24 74.73 73.95 73.44 73.48 74.43 75.04 75.25 75.32 75.01 74.97 75.29 75.20 75.03 75.26 75.05 74.64 74.74 74.38 73.91 75.23 74.96 74.22 74.04 73.53 73.05 73.34 70.83 71.46 74.66 74.24 74.85 74.76 74.97 74.71
74.10 74.46 74.04 76.78 76.40 76.29 75.53 75.14 74.54 73.88 73.19 72.99 73.24 73.82 74.74 75.07 74.83 74.97 74.82 75.06 75.07 74.85 74.98 74.50 74.17 74.02 73.56 73.98 74.73 74.27 73.82 73.48 72.84 72.15 70.18 70.45 70.86 73.74 73.99 74.10 74.00 73.91 74.01
73.94 74.02 74.34 76.73 76.32 76.02 75.85 74.96 74.06 73.78 73.70 73.11 72.82 73.52 73.88 74.40 74.80 74.74 74.97 74.85 74.39 74.66 74.56 73.89 73.58 73.33 73.53 74.46 74.48 74.54 73.19 72.70 71.89 70.54 69.83 70.12 70.22 71.98 73.40 73.26 73.11 73.36 73.85
73.20 73.76 75.88 76.85 76.56 76.33 75.96 74.45 74.32 74.64 74.06 73.37 73.01 73.06 73.47 74.02 74.41 74.49 74.42 74.54 74.49 74.43 73.88 73.38 73.22 73.49 74.07 73.68 73.76 73.24 72.48 71.85 70.60 68.31 68.13 70.50 70.33 72.30 72.92 72.82 72.75 73.33 73.47
72.85 73.93 75.43 77.30 76.88 76.63 76.45 75.57 74.98 75.32 74.66 73.62 73.08 73.02 73.16 73.59 74.18 74.12 74.09 74.31 74.32 74.10 73.50 72.82 73.54 73.31 73.84 73.52 73.07 72.22 71.63 70.68 67.40 67.14 67.65 68.71 69.56 71.60 71.92 72.49 72.31 72.39 72.61
72.91 74.43 74.92 76.96 76.97 76.59 76.31 75.83 75.56 75.37 75.04 74.34 74.15 73.78 73.64 73.50 74.07 73.73 73.86 73.80 73.93 73.69 73.74 73.85 73.50 72.76 72.36 72.64 72.45 71.88 70.95 69.99 67.04 65.94 66.04 66.82 69.83 70.70 71.22 71.44 71.62 71.80 72.05
72.52 73.11 73.55 74.12 74.94 75.89 75.94 75.19 75.14 75.13 74.61 74.63 74.36 73.92 73.73 73.87 73.67 73.37 73.65 73.51 73.57 73.57 73.37 72.88 72.53 71.87 72.61 72.34 72.22 70.37 69.35 68.40 63.16 64.71 65.64 66.17 70.05 69.90 70.37 70.47 70.50 70.71 71.07
70.97 72.44 71.90 72.18 73.39 73.21 73.20 74.73 74.30 74.72 73.91 73.74 73.66 73.72 73.97 73.64 73.24 73.01 72.95 73.09 73.39 73.09 72.95 72.61 72.35 72.07 71.99 71.84 70.65 69.88 69.01 67.45 62.49 64.05 64.39 64.91 68.00 68.86 69.22 69.15 69.56 69.93 70.08
68.56 69.50 70.91 71.15 70.72 70.73 71.04 72.09 73.69 74.02 73.23 72.68 72.15 72.39 71.06 69.48 69.84 70.17 71.69 72.72 72.83 72.93 72.54 72.20 72.12 71.39 70.94 70.93 69.94 68.54 66.47 62.49 62.50 63.85 64.34 68.11 68.22 68.36 68.24 68.07 68.05 68.09 68.36
64.61 67.10 68.96 70.09 70.57 70.35 72.11 69.50 69.85 69.51 68.82 68.75 68.65 67.11 66.26 64.59 65.89 68.93 70.48 72.21 72.30 72.40 72.30 71.74 71.90 70.69 67.22 64.66 65.34 65.75 62.40 61.41 62.72 63.09 64.38 68.34 67.77 67.93 67.85 67.34 67.11 67.17 67.20
65.52 66.29 67.94 69.00 69.21 69.38 69.47 67.82 67.64 68.08 67.83 67.92 67.08 66.02 65.86 65.49 64.72 65.17 66.45 67.56 68.27 70.57 69.44 69.21 67.88 65.91 63.03 64.82 62.91 62.34 61.59 61.22 62.65 63.01 64.69 66.69 67.07 67.21 67.35 66.84 66.52 66.43 66.50
56.16 64.65 67.69 68.21 67.86 68.48 68.97 67.37 67.49 67.77 67.11 67.35 66.93 65.75 64.87 63.74 63.54 63.06 64.44 64.22 65.96 66.52 66.11 65.35 65.35 66.46 64.33 63.80 62.42 61.10 60.11 60.05 61.06 62.09 64.93 66.38 67.21 66.69 66.91 66.72 66.55 66.29 66.13
53.81 56.40 66.49 67.94 67.26 68.11 67.99 67.35 67.02 67.51 66.71 67.37 67.09 65.34 64.63 62.99 61.66 62.87 63.64 63.23 64.90 65.63 64.98 63.78 62.73 59.27 62.02 62.52 61.86 61.07 60.34 58.93 58.76 60.62 61.98 65.06 66.82 66.57 66.53 66.74 66.64 66.42 66.20
54.41 55.07 57.85 64.99 67.23 67.30 67.48 66.97 66.60 66.89 66.01 66.13 65.63 63.76 63.34 62.69 61.41 61.46 62.88 63.59 63.92 66.45 63.23 60.85 58.88 58.58 57.62 61.92 61.49 60.57 59.63 59.70 59.33 59.18 61.33 63.52 66.52 66.87 66.25 66.44 66.23 66.08 65.91
54.02 55.55 57.25 58.07 62.63 65.86 65.58 66.58 65.97 66.58 65.61 65.33 64.77 63.58 62.15 62.11 60.94 61.38 61.98 62.36 63.65 65.79 61.15 58.80 58.15 57.57 58.39 61.17 59.84 59.68 60.08 59.55 59.07 58.31 59.25 59.57 61.86 65.76 65.98 65.52 65.49 65.47 65.41
53.28 54.41 56.12 59.14 58.78 58.23 64.16 64.85 66.78 66.10 64.81 65.23 65.06 64.34 63.71 62.02 61.28 60.65 61.44 62.06 65.47 64.26 61.06 59.49 58.09 57.06 57.88 58.67 59.02 59.75 59.70 59.74 58.61 58.23 58.79 58.46 58.63 59.85 64.07 65.41 64.71 64.78 64.71
54.77 54.64 54.84 56.45 57.00 58.11 59.04 64.99 65.50 66.66 66.28 65.75 65.62 64.59 63.70 62.34 60.57 61.61 62.00 63.67 65.43 63.83 60.72 59.58 56.67 57.26 56.57 56.91 57.65 57.88 59.25 59.02 58.79 59.59 57.26 57.80 58.97 58.63 59.53 64.56 64.84 64.25 63.83
56.82 56.71 55.40 56.26 56.66 58.53 57.56 63.33 63.61 65.25 65.79 66.50 65.37 64.27 62.79 62.69 61.93 61.78 63.00 64.48 64.53 62.44 59.12 58.25 57.30 56.51 56.00 56.15 57.46 56.23 57.56 56.60 56.51 57.60 56.52 58.62 57.26 57.19 56.39 56.31 57.61 61.09 63.50
57.63 58.23 55.31 55.45 55.67 56.37 56.92 60.83 61.28 63.07 64.00 63.87 64.70 65.42 63.13 62.61 63.00 63.60 62.96 64.11 63.02 60.62 58.82 58.49 56.31 56.25 54.71 55.33 53.24 51.67 51.56 53.21 54.74 55.94 57.31 55.98 56.15 55.97 55.40 54.87 54.63 55.15 58.42
56.60 57.71 56.61 55.23 55.73 56.20 58.53 60.55 60.82 62.33 63.26 62.78 62.96 64.01 64.51 64.05 64.01 64.29 63.23 63.09 61.67 59.36 57.82 57.75 57.32 55.32 53.60 53.98 51.86 49.83 48.20 49.52 51.07 53.62 53.92 55.28 54.23 54.98 55.37 55.18 53.38 53.45 53.08
57.64 58.35 59.35 57.31 55.67 56.21 60.27 61.14 61.93 61.14 61.61 61.15 61.03 60.94 62.40 63.93 64.09 63.94 63.32 62.11 60.73 59.40 58.09 57.71 57.24 56.45 53.11 52.35 54.08 49.71 46.42 45.53 48.10 49.48 50.45 51.90 51.92 51.47 50.40 52.88 52.75 52.56 51.27
58.61 60.72 61.24 60.51 56.85 58.43 61.06 60.57 59.69 59.49 58.95 58.63 59.95 61.65 61.17 61.39 63.65 64.13 63.26 61.88 60.54 59.66 58.09 58.09 57.71 56.30 54.79 53.14 51.71 53.39 50.27 49.94 45.95 45.26 47.80 48.10 48.67 49.73 48.54 49.18 49.36 50.28 49.32
59.25 59.54 60.19 60.98 59.81 60.32 60.49 60.57 58.95 57.08 56.72 57.30 58.75 59.93 59.02 58.28 61.00 61.77 62.04 61.23 60.60 59.70 59.02 58.53 57.16 56.60 55.48 53.77 51.57 50.49 48.41 48.52 48.17 46.09 44.44 45.54 48.24 47.72 47.47 46.91 46.94 47.11 48.56
58.52 58.63 59.02 58.55 59.08 60.29 59.86 59.81 57.79 56.55 57.33 57.43 58.52 58.73 57.72 56.73 56.44 59.05 61.23 61.18 60.90 59.97 58.66 58.50 57.83 56.94 56.26 55.27 54.20 51.34 49.41 47.08 46.58 46.97 44.76 44.47 45.30 44.47 44.75 44.81 44.60 44.90 46.01